     2              OBSERVATION DATA    GPS                 RINEX VERSION / TYPE
ASHCAN V. 1.90 19990518 17:59:13UTC                         PGM / RUN BY / DATE
                                                            COMMENT
Original Marker Name: TAMA MEXICALI_____                    COMMENT
Campaign Name: ucsd imperial valley 1999                    COMMENT
4-Character Station Name: TAMA                              COMMENT
6-Character Antenna Code: DMRCHT                            COMMENT
Vertical Measurement Point: BCR                             COMMENT
Vertical Offset to Rinex Ref. Point: 0.0348                 COMMENT
Radial Measurement Point: ECF                               COMMENT
Radial Offset to Rinex Ref. Point: 0.1897                   COMMENT
Antenna Height from Field Measurement: 1.2410 m             COMMENT
Additional Antenna Identification Info.:                    COMMENT
Turborogue and Ashtech Choke Ring                           COMMENT
Original XYZ: 0.0000 0.0000 0.0000                          COMMENT
New XYZ position is based on association with SCEC monument COMMENT
E1C8W3R0+0011. Position of that monument is believed to be  COMMENT
valid to within 1 m horizontally; vertical accuracy         COMMENT
should be no worse than 3-times this value.                 COMMENT
                                                            COMMENT
Revised Rinex header created by UCSD GPS archive for        COMMENT
GSAC on 12-Nov-1999 (1999:316) 18:18:20 GMT                 COMMENT
For assistance contact dagnew@ucsd.edu or hjohnson@ucsd.edu COMMENT
                                                            COMMENT
TAMA MEXICALI_____                                          MARKER NAME
KMW UCSD IMPERIAL VALLEY                                    OBSERVER / AGENCY
LP03319 ASHTECH Z-XII3 1F50 1D02                            REC # / TYPE / VERS
CR16409 DORNE-MARGOL. TYPE T                                ANT # / TYPE
 -2306343.0000 -4840065.0000  3443024.0000                  APPROX POSITION XYZ
        1.1916        0.0000        0.0000                  ANTENNA: DELTA H/E/N
     1     1     0                                          WAVELENGTH FACT L1/2
     5    L1    L2    C1    P1    P2                        # / TYPES OF OBSERV
    15                                                      INTERVAL
  1999     5    15    15    16    0.000000                  TIME OF FIRST OBS
  1999     5    16     2     1   45.000000                  TIME OF LAST OBS
                                                            END OF HEADER
 99  5 15 15 16  0.0000000  0  2  2  7                               0.000000000
      7534.758 9      1352.50042         0.000           0.0004          0.0004
      9352.963 9      1687.54442         0.000           0.0004          0.0004
 99  5 15 15 16 15.0000000  0  6 27  2  4 15  7  9                   0.000000000
     59988.787 9     30090.08845         0.000           0.0004   19809954.0264
     21499.85819     12234.49847         0.000           0.0005   19031458.1584
    -55036.108 9    -27569.96842         0.000           0.0004          0.0004
     35402.048 8     12087.45042         0.000           0.0004          0.0004
     26745.97219     15243.87448         0.000           0.0005   18130597.1984
    -46271.077 9    -24400.56642         0.000           0.0004          0.0004
 99  5 15 15 16 30.0000000  0  7 27  2 26  4 15  7  9                0.000000000
    111318.42819     70087.14446         0.000           0.0005   19819721.6824
     35509.966 9     23151.44148  19034116.895    19034116.4454   19034124.3144
     22114.864 8     10837.19042         0.000           0.0004          0.0004
   -101950.282 9    -64126.12252         0.000           0.0004          0.0005
     79576.040 8     46508.75642         0.000           0.0004          0.0004
     44222.336 9     28861.80149  18133916.501    18133916.1714   18133922.9344
    -87779.231 9    -56744.84952         0.000           0.0004          0.0005
 99  5 15 15 16 45.0000000  0  2  2  7                               0.000000000
     49508.579 9     34059.42748  21734912.702    21734912.2644   21734920.2664
     61726.914 9     42501.71649  20835379.687    20835379.4474   20835386.1274
 99  5 15 15 17  0.0000000  0  2  2  7                               0.000000000
     63535.845 9     44989.74848  21737581.907    21737581.5154   21737589.5114
     79307.230 9     56200.65649  20838725.266    20838724.9014   20838731.6044
 99  5 15 15 17 15.0000000  0  6 27  2 26  4  7  9                   0.000000000
    265617.727 9    190320.16547  22547206.908    22547207.1144   22547215.9894
     77615.041 9     55960.52748  21740260.766    21740260.6514   21740268.6624
     98154.359 8     70076.74652         0.000           0.0004          0.0005
   -242509.917 9   -173653.17646  22770911.354    22770911.8054   22770920.7024
     96980.286 9     69971.85449  20842088.535    20842088.0234   20842094.7424
   -212073.517 9   -153597.44847  23307325.480    23307325.5144   23307333.6024
 99  5 15 15 17 30.0000000  0  6 27  2 26  4  7  9                   0.000853481
    317240.112 9    230545.33447  22557030.907    22557030.6034   22557039.3324
     91752.927 9     66977.04748  21742951.622    21742951.0184   21742959.0094
    123717.056 8     89989.34852         0.000           0.0004          0.0005
   -289249.804 9   -210073.85146  22762017.632    22762017.6534   22762026.4484
    114750.511 9     83818.77049  20845469.872    20845469.5724   20845476.3024
   -253373.611 9   -185779.32147  23299465.972    23299466.0364   23299474.4274
 99  5 15 15 17 45.0000000  0  6 27  2 26  4  7  9                   0.000855230
    368960.237 9    270846.66347  22566873.088    22566872.6894   22566881.3224
    105955.257 9     78043.77748  21745654.356    21745653.6174   21745661.6234
    149390.805 8    109988.46652         0.000           0.0004          0.0005
   -335919.042 9   -246439.47546  22753136.211    22753136.8014   22753145.5694
    132618.542 9     97741.89749  20848869.868    20848869.7684   20848876.4874
   -294593.725 9   -217898.88047  23291622.676    23291622.1654   23291630.5064
 99  5 15 15 18  0.0000000  0  6 27  2 26  4  7  9                   0.000000083
   -929206.736 9   -740712.08347  22319840.296    22319839.7864   22319848.3544
  -1229763.743 9   -962776.24348  21491475.415    21491474.7624   21491482.7504
  -1174810.385 8  -1044181.66642         0.000           0.0004          0.0004
  -1732505.599 9  -1334688.72446  22487374.580    22487375.2244   22487384.0414
  -1199400.440 9   -940194.98349  20595395.097    20595394.9654   20595401.7104
  -1685719.048 9  -1301892.63047  23026900.263    23026899.8494   23026908.1774
 99  5 15 15 18 15.0000000  0  6 27  2 26  4  7  9                   0.000000097
   -880062.863 9   -702418.21247  22329192.086    22329191.5924   22329200.1174
  -1218202.077 9   -953767.17748  21493675.447    21493674.8594   21493682.8344
  -1151689.513 8  -1026165.39542         0.000           0.0004          0.0004
  -1781800.998 9  -1373100.71347  22477994.104    22477994.6784   22478003.4654
  -1184106.382 9   -928277.55249  20598305.502    20598305.3404   20598312.1064
  -1729542.829 9  -1336041.01747  23018560.716    23018560.4524   23018568.7624
 99  5 15 15 18 30.0000000  0  6 27  2 26  4  7  9                   0.000000115
   -830840.088 9   -664062.88047  22338558.900    22338558.4384   22338566.9894
  -1206595.901 9   -944723.42748  21495884.015    21495883.4394   21495891.4274
  -1128481.522 8  -1008081.45952         0.000           0.0004          0.0005
  -1831044.915 9  -1411472.59047  22468623.467    22468623.9254   22468632.6684
  -1168737.146 9   -916301.54249  20601230.191    20601229.9954   20601236.7634
  -1773306.323 9  -1370142.42847  23010232.700    23010232.4974   23010240.8514
 99  5 15 15 18 45.0000000  0  6 27  2 26  4  7  9                   0.000000128
   -781544.574 9   -625650.83847  22347939.482    22347939.0844   22347947.6794
  -1194950.302 9   -935648.93848  21498100.089    21498099.5254   21498107.5234
  -1105190.896 8   -989933.02052         0.000           0.0004          0.0005
  -1880240.696 9  -1449806.95547  22459261.917    22459262.3064   22459271.0404
  -1153296.756 9   -904270.07449  20604168.427    20604168.2114   20604174.9894
  -1817015.980 9  -1404201.87947  23001914.978    23001914.8164   23001923.1814
 99  5 15 15 19  0.0000000  0  6 27  2 26  4  7  9                   0.000000138
   -732175.306 9   -587181.35047  22357334.144    22357333.7704   22357342.4554
  -1183256.707 9   -926537.06248  21500325.336    21500324.7854   21500332.7944
  -1081813.043 9   -971716.48452         0.000           0.0004          0.0005
  -1929382.559 9  -1488099.29347  22449910.562    22449910.9204   22449919.6464
  -1137779.921 9   -892179.05349  20607121.199    20607120.9774   20607127.7634
  -1860668.457 9  -1438216.77847  22993608.178    22993608.0274   22993616.3934
 99  5 15 15 19 15.0000000  0  6 27  2 26  4  7  9                   0.000000148
   -682725.471 9   -548649.07447  22366744.152    22366743.8154   22366752.5504
  -1171503.172 9   -917378.48048  21502561.962    21502561.3974   21502569.4204
  -1058338.98519   -953425.01044         0.000           0.0005   23102024.2494
  -1978463.616 9  -1526344.27347  22440570.780    22440571.1164   22440579.8694
  -1122178.184 9   -880021.86849  20610090.122    20610089.9024   20610096.7064
  -1904256.381 9  -1472181.37247  22985313.601    22985313.4494   22985321.8554
 99  5 15 15 19 30.0000000  0  6 27  2 26  4  7  9                   0.000000154
   -633207.439 9   -510063.64947  22376167.203    22376166.9124   22376175.6664
  -1159700.150 9   -908181.33748  21504807.987    21504807.4414   21504815.4724
  -1034784.49019   -935070.90945         0.000           0.0005   23106508.6654
  -2027496.809 9  -1564551.95247  22431240.019    22431240.3454   22431249.1544
  -1106506.472 9   -867810.15949  20613072.385    20613072.1674   20613079.0124
  -1947792.296 9  -1506105.44647  22977028.959    22977028.8344   22977037.2324
 99  5 15 15 19 45.0000000  0  6 27  2 26  4  7  9                   0.000000159
   -583612.259 9   -471418.11347  22385604.937    22385604.6384   22385613.3824
  -1147841.188 9   -898940.60348  21507064.696    21507064.1794   21507072.2084
  -1011141.915 9   -916648.17645  23110996.943    23110997.2904   23111007.4344
  -2076475.496 9  -1602717.14447  22421919.638    22421919.9584   22421928.8474
  -1090755.815 9   -855536.93449  20616069.663    20616069.4324   20616076.2964
  -1991269.513 9  -1539983.78547  22968755.502    22968755.3914   22968763.7404
 99  5 15 15 20  0.0000000  0  6 27  2 26  4  7  9                   0.000000159
   -533943.162 9   -432714.98047  22395056.725    22395056.4454   22395065.1824
  -1135928.272 9   -889657.82948  21509331.633    21509331.1304   21509339.1654
   -987413.243 9   -898158.34345  23115512.397    23115511.4144   23115522.5004
  -2125402.206 9  -1640841.84947  22412609.158    22412609.4544   22412618.4114
  -1074928.444 9   -843203.93149  20619081.511    20619081.2774   20619088.1454
  -2034690.211 9  -1573818.08647  22960492.801    22960492.6724   22960501.0404
 99  5 15 15 20 15.0000000  0  6 27  2 26  4  7  9                   0.000000156
   -484196.148 9   -393951.12247  22404523.335    22404523.0714   22404531.8184
  -1123962.065 9   -880333.52848  21511608.747    21511608.2634   21511616.2994
   -963595.710 9   -879599.26445  23120044.732    23120044.4864   23120053.9334
  -2174273.934 9  -1678923.70447  22403309.106    22403309.4124   22403318.4584
  -1059019.013 9   -830806.98049  20622108.998    20622108.7714   20622115.6354
  -2078050.260 9  -1607605.11947  22952241.658    22952241.5144   22952249.8634
 99  5 15 15 20 30.0000000  0  6 27  2 26  4  7  9                   0.000000147
   -434370.514 9   -355126.01147  22414004.856    22414004.5684   22414013.3814
  -1111942.002 9   -870967.25748  21513896.113    21513895.6204   21513903.6754
   -939688.483 9   -860970.30245  23124594.132    23124593.3984   23124603.6964
  -2223092.723 9  -1716964.29947  22394019.190    22394019.5034   22394028.6084
  -1043027.301 9   -818345.91749  20625152.122    20625151.8754   20625158.7664
  -2121349.610 9  -1641344.86047  22944002.100    22944001.9584   22944010.2894
 99  5 15 15 20 45.0000000  0  6 27  2 26  4  7  9                   0.000000130
   -384470.198 9   -316242.71547  22423500.541    22423500.2644   22423509.2354
  -1099869.565 9   -861560.18548  21516193.454    21516192.9594   21516200.9854
   -915692.500 9   -842272.18145  23129160.416    23129160.0154   23129170.0164
  -2271862.570 9  -1754966.76247  22384738.582    22384738.8884   22384748.0124
  -1026953.967 9   -805821.25749  20628210.802    20628210.5474   20628217.4554
  -2164589.714 9  -1675038.42647  22935773.794    22935773.6444   22935781.9754
 99  5 15 15 21  0.0000000  0  6 27  2 26  4  7  9                   0.000000112
   -334487.371 9   -277295.13547  22433011.887    22433011.6604   22433020.7284
  -1087733.141 9   -852103.25248  21518502.992    21518502.5004   21518510.5124
   -891598.925 9   -823497.98545  23133745.309    23133745.1504   23133754.9484
  -2320573.458 9  -1792923.29247  22375469.238    22375469.5554   22375478.6624
  -1010790.787 9   -793226.59149  20631286.569    20631286.3084   20631293.2424
  -2207760.953 9  -1708678.34647  22927558.554    22927558.4024   22927566.7534
 99  5 15 15 21 15.0000000  0  6 27  2 26  4  7  9                   0.000000113
   -284397.739 9   -238264.33347  22442543.572    22442543.3904   22442552.5624
  -1075512.137 9   -842580.41748  21520828.620    21520828.1304   21520836.1014
   -867385.429 9   -804630.35745  23138353.008    23138352.9324   23138362.7444
  -2369204.747 9  -1830817.78747  22366215.075    22366215.3914   22366224.4594
   -994518.247 9   -780546.70349  20634383.137    20634382.8844   20634389.8424
  -2250838.098 9  -1742244.93647  22919361.252    22919361.0974   22919369.4424
 99  5 15 15 21 30.0000000  0  6 27  2 26  4  7  9                   0.000000111
   -234235.176 9   -199176.69847  22452089.182    22452089.0224   22452098.2664
  -1063246.749 9   -833022.99048  21523162.668    21523162.1854   21523170.1224
   -843090.359 9   -785699.19745  23142976.242    23142976.1404   23142985.9414
  -2417792.499 9  -1868678.35747  22356969.161    22356969.4524   22356978.5064
   -978174.312 9   -767811.18649  20637493.302    20637493.0614   20637500.0324
  -2293856.161 9  -1775765.49147  22911175.187    22911175.0344   22911183.3644
 99  5 15 15 21 45.0000000  0  6 27  2 26  4  7  9                   0.000000092
   -184018.834 9   -160047.14747  22461645.104    22461644.9164   22461654.2014
  -1050960.775 9   -823449.52748  21525500.678    21525500.1864   21525508.0994
   -818733.760 9   -766720.08445  23147611.181    23147611.1824   23147620.9554
  -2466354.641 9  -1906518.96847  22347728.131    22347728.4294   22347737.4714
   -961777.548 9   -755034.50249  20640613.514    20640613.2514   20640620.2564
  -2336835.251 9  -1809255.67647  22902996.523    22902996.3954   22903004.7324
 99  5 15 15 22  0.0000000  0  6 27  2 26  4  7  9                   0.000000071
   -133724.261 9   -120856.63347  22471215.985    22471215.7704   22471225.0164
  -1038630.341 9   -813841.40948  21527847.145    21527846.6524   21527854.5244
   -794288.131 9   -747671.60545  23152263.091    23152263.1604   23152272.9484
  -2514864.558 9  -1944318.88247  22338497.048    22338497.3304   22338506.3674
   -945300.131 9   -742194.96349  20643749.067    20643748.8004   20643755.8374
  -2379746.598 9  -1842693.07347  22894830.765    22894830.6094   22894838.9674
 99  5 15 15 22 15.0000000  0  6 27  2 26  4  7  9                   0.000000056
    -83342.962 9    -81598.54647  22480803.355    22480803.1334   22480812.2954
  -1026246.263 9   -804191.49448  21530203.790    21530203.2904   21530211.1584
   -769743.873 9   -728546.27945  23156933.758    23156933.8384   23156943.6254
  -2563309.800 9  -1982068.40547  22329278.234    22329278.5024   22329287.5494
   -928733.107 9   -729285.60049  20646901.675    20646901.4084   20646908.4794
  -2422578.240 9  -1876068.35847  22886680.146    22886680.0114   22886688.3584
 99  5 15 15 22 30.0000000  0  6 27  2 26  4  7  9                   0.000000047
    -32876.650 9    -42274.22147  22490406.875    22490406.6354   22490415.7284
  -1013806.752 9   -794498.39048  21532570.975    21532570.4814   21532578.3224
   -745101.431 9   -709344.44645  23161623.136    23161623.2514   23161632.8754
  -2611688.152 9  -2019765.79347  22320072.137    22320072.3954   22320081.4534
   -912077.453 9   -716307.18649  20650071.149    20650070.8744   20650077.9684
  -2465329.295 9  -1909380.86447  22878544.904    22878544.7734   22878553.1094
 99  5 15 15 22 45.0000000  0  6 27  2 26  4  7  9                   0.000000048
     17673.584 9     -2884.50547  22500026.383    22500026.1564   22500035.2214
  -1001312.788 9   -784762.85348  21534948.552    21534948.0564   21534955.8864
   -720363.603 9   -690068.27445  23166330.630    23166330.7824   23166339.9024
  -2659997.864 9  -2057409.70447  22310879.056    22310879.3394   22310888.4154
   -895339.838 9   -703264.90649  20653256.201    20653255.9284   20653263.0264
  -2508003.096 9  -1942633.16447  22870424.337    22870424.1954   22870432.5604
 99  5 15 15 23  0.0000000  0  6 27  2 26  4  7  9                   0.000000053
     68297.088 9     36562.31747  22509659.765    22509659.5474   22509668.6394
   -988774.453 9   -774992.73648  21537334.523    21537334.0144   21537341.8634
   -695541.760 9   -670726.62745  23171054.145    23171054.3334   23171063.3574
  -2708244.253 9  -2095004.27947  22301698.018    22301698.2864   22301707.3884
   -878531.762 9   -690167.71149  20656454.688    20656454.4144   20656461.5184
  -2550608.449 9  -1975832.13347  22862316.796    22862316.6874   22862325.0114
 99  5 15 15 23 15.0000000  0  6 27  2 26  4  7  9                   0.000000062
    118992.401 9     76065.08947  22519306.762    22519306.5784   22519315.7244
   -976195.573 9   -765191.03448  21539728.257    21539727.7564   21539735.6064
   -670636.142 9   -651319.69945  23175793.615    23175793.7224   23175802.6894
  -2756426.436 9  -2132548.81247  22292529.201    22292529.4844   22292538.6084
   -861655.619 9   -677017.48349  20659666.141    20659665.8514   20659672.9634
  -2593144.756 9  -2008977.30047  22854222.449    22854222.3114   22854230.5844
 99  5 15 15 23 30.0000000  0  6 27  2 26  4  7  9                   0.000000071
    169758.351 9    115622.89247  22528967.231    22528967.0704   22528976.2794
   -963578.711 9   -755359.73748  21542129.177    21542128.6844   21542136.5314
   -645647.132 9   -631847.79145  23180548.931    23180549.1494   23180557.7664
  -2804544.362 9  -2170043.26847  22283372.640    22283372.9024   22283382.0554
   -844709.662 9   -663812.85548  20662890.853    20662890.5684   20662897.6964
  -2635612.951 9  -2042069.39747  22846141.033    22846140.8964   22846149.1104
 99  5 15 15 23 45.0000000  0  6 27  2 26  4  7  9                   0.000000076
    220590.498 9    155232.29147  22538640.326    22538640.1644   22538649.4214
   -950923.017 9   -745498.17248  21544537.518    21544537.0374   21544544.8734
   -620576.458 9   -612312.24645  23185319.791    23185320.0674   23185328.4194
  -2852596.706 9  -2207486.62147  22274228.576    22274228.8224   22274237.9794
   -827696.739 9   -650556.04248  20666128.321    20666128.0374   20666135.1654
  -2678017.546 9  -2075111.92447  22838071.716    22838071.5924   22838079.7914
 99  5 15 15 24  0.0000000  0  6 27  2 26  4  7  9                   0.000000081
    271491.093 9    194895.02547  22548326.458    22548326.2884   22548335.6074
   -938221.123 9   -735600.61548  21546954.640    21546954.1544   21546961.9834
   -595419.846 9   -592709.73645  23190107.013    23190107.1934   23190115.6654
  -2900579.036 9  -2244875.41147  22265097.818    22265098.0734   22265107.2144
   -810612.926 9   -637243.99048  20669379.253    20669378.9674   20669386.1094
  -2720352.874 9  -2108100.48447  22830015.582    22830015.4794   22830023.6364
 99  5 15 15 24 15.0000000  0  6 27  2 26  4  7  9                   0.000000087
    322459.049 9    234610.23747  22558025.385    22558025.1844   22558034.5764
   -925471.536 9   -725665.89048  21549380.840    21549380.3244   21549388.1604
   -570181.638 9   -573043.66745  23194909.712    23194909.9084   23194918.3664
  -2948493.700 9  -2282211.48247  22255979.998    22255980.2354   22255989.3514
   -793460.255 9   -623878.28448  20672643.302    20672643.0174   20672650.1634
  -2762619.593 9  -2141035.58147  22821972.504    22821972.3774   22821980.5554
 99  5 15 15 24 30.0000000  0  6 27  2 26  4  7  9                   0.000000092
    373491.573 9    274375.77447  22567736.613    22567736.3914   22567745.8324
   -912675.570 9   -715695.02848  21551815.866    21551815.3694   21551823.2224
   -544867.672 9   -553318.54845  23199726.852    23199727.0634   23199735.3364
  -2996344.025 9  -2319497.41847  22246874.441    22246874.6594   22246883.7204
   -776242.970 9   -610462.22848  20675919.624    20675919.3294   20675926.4994
  -2804823.814 9  -2173921.97347  22813941.310    22813941.1684   22813949.3294
 99  5 15 15 24 45.0000000  0  7 27  2 26  4 24  7  9                0.000000103
    424604.101 9    314203.64847  22577463.014    22577462.7984   22577472.2964
   -899820.397 9   -705678.02748  21554262.110    21554261.6254   21554269.4854
   -519465.254 9   -533524.49545  23204560.844    23204561.0254   23204569.2964
  -3044119.132 9  -2356724.75447  22237783.163    22237783.3834   22237792.3764
  -1623552.458 8  -1242384.92552         0.000           0.0004          0.0005
   -758947.843 9   -596985.51548  20679210.767    20679210.4804   20679217.6554
  -2846952.961 9  -2206749.86847  22805924.401    22805924.2774   22805932.4024
 99  5 15 15 25  0.0000000  0  7 27  2 26  4 24  7  9                0.000000110
    475781.485 9    354082.06147  22587201.736    22587201.5054   22587211.0974
   -886923.559 9   -695628.55948  21556716.318    21556715.8164   21556723.7394
   -493991.518 9   -513674.87645  23209408.354    23209408.6314   23209416.7434
  -3091837.757 9  -2393908.06247  22228702.646    22228702.8694   22228711.7744
  -1677707.595 8  -1284583.18952         0.000           0.0004          0.0005
   -741589.356 9   -583459.43248  20682513.974    20682513.6844   20682520.8784
  -2889023.584 9  -2239532.15847  22797918.583    22797918.4504   22797926.5934
 99  5 15 15 25 15.0000000  0  7 27  2 26  4 24  7  9                0.000000110
    527028.630 9    394014.82147  22596953.779    22596953.5554   22596963.1694
   -873978.069 9   -685541.19148  21559179.724    21559179.2214   21559187.1834
   -468440.561 9   -493765.08745  23214270.602    23214270.8834   23214278.9894
  -3139495.383 9  -2431043.85947  22219633.703    22219633.9274   22219642.7764
  -1731880.465 8  -1326795.30252         0.000           0.0004          0.0005
   -724157.192 9   -569875.94348  20685831.227    20685830.9374   20685838.1344
  -2931030.064 9  -2272264.46447  22789924.965    22789924.8634   22789933.0064
 99  5 15 15 25 30.0000000  0  7 27  2 26  4 24  7  9                0.000000108
    578354.145 9    434008.67147  22606720.747    22606720.5134   22606730.0974
   -860976.983 9   -675410.49048  21561653.759    21561653.2584   21561661.2454
   -442808.133 9   -473791.80445  23219148.353    23219148.7274   23219156.7884
  -3187088.083 9  -2468129.03847  22210577.124    22210577.3574   22210586.2274
  -1786065.907 8   1363387.055 1         0.000           0.000           0.000
   -706644.235 9   -556229.49348  20689163.827    20689163.5304   20689170.7334
  -2972968.638 9  -2304943.86347  22781944.260    22781944.1884   22781952.3314
 99  5 15 15 25 45.0000000  0  7 27  2 26  4 24  7  9                0.000000110
    629760.010 9    474065.13247  22616503.050    22616502.8414   22616512.3304
   -847915.916 9   -665233.05448  21564139.189    21564138.7084   21564146.6944
   -417095.581 9   -453756.09145  23224041.371    23224041.7404   23224049.9244
  -3234614.854 9  -2505162.86247  22201533.037    22201533.2784   22201542.1584
  -1840261.524 8  -1167872.58142         0.000           0.0004          0.0004
   -689050.695 9   -542520.25248  20692511.792    20692511.5124   20692518.6994
  -3014836.882 9  -2337568.44847  22773976.996    22773976.9144   22773985.0564
 99  5 15 15 26  0.0000000  0  7 27  2 26  4 24  7  9                0.000000114
    681246.498 9    514184.41446  22626300.719    22626300.5274   22626309.9014
   -834793.600 9   -655007.89248  21566636.309    21566635.8194   21566643.8174
   -391301.818 9   -433657.10645  23228949.809    23228950.2034   23228958.4004
  -3282075.180 9  -2542144.90547  22192501.609    22192501.8514   22192510.8204
  -1894468.496 8  -1210112.03242         0.000           0.0004          0.0004
   -671374.839 9   -528746.87348  20695875.413    20695875.1344   20695882.2934
  -3056632.492 9  -2370136.44247  22766023.575    22766023.4704   22766031.6234
 99  5 15 15 26 15.0000000  0  7 27  2 26  4 24  7  9                0.000000114
    732800.317 9    554356.16446  22636111.228    22636111.0164   22636120.3074
   -821624.424 9   -644746.22048  21569142.341    21569141.8444   21569149.8234
   -365440.679 9   -413505.63545  23233871.049    23233871.4954   23233879.7364
  -3329485.077 9  -2579087.65047  22183479.730    22183479.9674   22183489.0214
  -1948702.292 8  -1252372.26552         0.000           0.0004          0.0005
   -653628.316 9   -514918.42748  20699252.502    20699252.2064   20699259.3434
  -3098367.785 9  -2402657.43847  22758081.617    22758081.5084   22758089.6584
 99  5 15 15 26 30.0000000  0  7 27  2 26  4 24  7  9                0.000000110
    784428.566 9    594585.91046  22645935.835    22645935.6054   22645944.8694
   -808402.348 9   -634443.33148  21571658.461    21571657.9924   21571665.9294
   -339502.721 9   -393294.30645  23238806.935    23238807.2884   23238815.6954
  -3376833.320 9  -2615982.36347  22174469.587    22174469.8344   22174478.9534
  -2002955.271 8  -1294647.33352         0.000           0.0004          0.0005
   -635804.730 9   -501029.94148  20702644.268    20702643.9584   20702651.0984
  -3140035.405 9  -2435125.70247  22750152.539    22750152.4574   22750160.5794
 99  5 15 15 26 45.0000000  0  7 27  2 26  4 24  7  9                0.000000109
    836134.091 9    634875.85546  22655775.072    22655774.8244   22655784.1394
   -795124.140 9   -624096.69348  21574185.271    21574184.7924   21574192.6854
   -313479.266 9   -373016.32845  23243759.120    23243759.5294   23243767.9154
  -3424114.094 9  -2652824.49547  22165472.294    22165472.5534   22165481.7134
  -2057221.094 8  -1336932.39752         0.000           0.0004   24787790.6815
   -617902.701 9   -487080.32248  20706050.934    20706050.6094   20706057.7514
  -3181629.218 9  -2467536.44747  22742237.518    22742237.4274   22742245.5644
 99  5 15 15 27  0.0000000  0  7 27  2 26  4 24  7  9                0.000000110
    887911.245 9    675221.62746  22665627.907    22665627.6834   22665637.0554
   -781793.973 9   -613709.57848  21576721.974    21576721.5064   21576729.3794
   -287374.706 9   -352675.15645  23248726.742    23248727.1114   23248735.5894
  -3471331.413 9  -2689617.18947  22156487.127    22156487.3934   22156496.5614
  -2111504.88118  -1379231.46445         0.000           0.0005   24777461.9934
   -599929.431 9   -473075.19148  20709471.167    20709470.8624   20709477.9824
  -3223153.885 9  -2499893.31947  22734335.639    22734335.5274   22734343.6904
 99  5 15 15 27 15.0000000  0  7 27  2 26  4 24  7  9                0.000000114
    939762.218 9    715624.90946  22675494.775    22675494.6024   22675504.0744
   -768403.314 9   -603275.31648  21579270.183    21579269.7024   21579277.5494
   -261180.069 9   -332263.80945  23253711.466    23253711.7814   23253720.3234
  -3518474.223 9  -2726351.82547  22147516.178    22147516.4534   22147525.5684
  -2165800.475 8  -1421539.73845  24767116.207    24767117.2324   24767129.2554
   -581880.118 9   -459010.80648  20712905.847    20712905.5544   20712912.6874
  -3264602.428 9  -2532190.88147  22726448.204    22726448.0974   22726456.2704
 99  5 15 15 27 30.0000000  0  7 27  2 26  4 24  7  9                0.000000132
    991694.068 9    756091.21346  22685377.042    22685376.9014   22685386.4494
   -754943.430 9   -592787.11848  21581831.604    21581831.1194   21581838.9174
   -234883.426 9   -311772.96245  23258715.541    23258715.8574   23258724.4384
  -3565532.539 9  -2763020.61347  22138561.312    22138561.5734   22138570.5734
  -2220099.923 8  -1463851.01645  24756783.376    24756782.3664   24756796.4344
   -563748.368 9   -444882.18048  20716356.229    20716355.9254   20716363.0704
  -3305962.638 9  -2564419.59647  22718577.606    22718577.5064   22718585.6684
 99  5 15 15 27 45.0000000  0  7 27  2 26  4 24  7  9                0.000000151
   1043681.906 9    796601.15046  22695270.014    22695269.8714   22695279.4334
   -741437.318 9   -582262.89748  21584401.796    21584401.2904   21584409.0664
   -208505.723 9   -291218.96145  23263735.101    23263735.4014   23263744.0904
  -3612528.755 9  -2799641.01947  22129618.251    22129618.5144   22129627.4004
  -2274423.930 7  -1506181.42345  24746445.855    24746446.0624   24746458.5504
   -545560.532 9   -430709.86048  20719817.320    20719816.9994   20719824.1514
  -3347253.252 9  -2596594.09847  22710720.238    22710720.1464   22710728.3134
 99  5 15 15 28  0.0000000  0  7 27  2 26  4 24  7  9                0.000000166
   1095715.165 9    837146.47646  22705171.714    22705171.5764   22705181.0704
   -727893.978 9   -571709.67348  21586979.068    21586978.5654   21586986.3064
   -182053.868 9   -270607.18245  23268768.758    23268769.0264   23268777.8964
  -3659469.567 9  -2836218.25847  22120685.694    22120685.9684   22120694.7604
  -2328778.229 7  -1548535.40645  24736102.548    24736102.0234   24736115.0604
   -527325.081 9   -416500.43148  20723287.437    20723287.0974   20723294.2694
  -3388480.922 9  -2628719.53647  22702874.892    22702874.8174   22702882.9384
 99  5 15 15 28 15.0000000  0  7 27  2 26  4 24  7  9                0.000000179
   1147796.885 9    877729.57146  22715082.669    22715082.4954   22715091.9454
   -714310.329 9   -561125.03248  21589564.003    21589563.4764   21589571.2184
   -155523.985 9   -249934.58945  23273817.263    23273817.5304   23273826.4104
  -3706350.259 9  -2872748.64447  22111764.566    22111764.8644   22111773.5564
  -2383156.609 8  -1590908.15345  24725754.689    24725754.3374   24725767.4184
   -509037.141 9   -402250.09548  20726767.493    20726767.1784   20726774.3904
  -3429641.141 9  -2660792.42447  22695042.387    22695042.2694   22695050.3914
 99  5 15 15 28 30.0000000  0  7 27  2 26  4 24  7  9                0.000000185
   1199915.148 9    918341.13746  22725000.574    22725000.3994   22725009.8054
   -700699.421 9   -550519.15848  21592154.118    21592153.5934   21592161.3364
   -128930.321 9   -229212.30945  23278877.932    23278878.2774   23278887.0094
  -3753183.951 9  -2909242.41347  22102852.429    22102852.7334   22102861.3534
  -2437570.607 7  -1633308.65845  24715400.217    24715399.1844   24715412.8844
   -490713.073 9   -387971.61448  20730254.420    20730254.1444   20730261.3874
  -3470745.141 9  -2692821.50447  22687220.601    22687220.4644   22687228.5604
 99  5 15 15 28 45.0000000  0  7 27  2 26  4 24  7  9                0.000000190
   1252074.702 9    958984.86846  22734926.330    22734926.1584   22734935.5324
   -687055.612 9   -539887.63948  21594750.452    21594749.9364   21594757.6734
   -102270.574 9   -208438.52445  23283951.157    23283951.4554   23283960.2854
  -3799967.760 9  -2945697.31147  22093949.752    22093950.0574   22093958.6514
  -2492015.347 8  -1675733.12845  24705039.976    24705039.0874   24705052.5844
   -472351.009 9   -373663.52648  20733748.639    20733748.3254   20733755.6164
  -3511788.444 9  -2724803.28247  22679410.322    22679410.2014   22679418.2374
 99  5 15 15 29  0.0000000  0  7 27  2 26  4 24  7  9                0.000000191
   1304272.783 9    999658.62546  22744859.391    22744859.2224   22744868.6024
   -673380.863 9   -529232.01048  21597352.694    21597352.1944   21597359.9514
    -75552.033 9   -187618.90245  23289035.554    23289035.7864   23289044.7204
  -3846707.522 9  -2982117.86947  22085055.441    22085055.7344   22085064.3684
  -2546496.280 8  -1718185.81245  24694672.714    24694672.1544   24694685.5194
   -453952.272 9   -359326.85948  20737249.845    20737249.4914   20737256.8244
  -3552775.167 9  -2756740.97747  22671610.821    22671610.6904   22671618.7054
 99  5 15 15 29 15.0000000  0  7 27  2 26  4 24  7  9                0.000000192
   1356520.920 9   1040371.38046  22754801.949    22754801.8284   22754811.1594
   -659663.793 9   -518543.40448  21599962.965    21599962.4574   21599970.2174
    -48765.230 9   -166746.11345  23294132.899    23294133.1074   23294142.1934
  -3893390.445 9  -3018494.15047  22076171.923    22076172.2244   22076180.9034
  -2601004.362 8  -1760659.65045  24684300.100    24684299.5654   24684312.9464
   -435501.461 9   -344949.61548  20740760.883    20740760.5204   20740767.9004
  -3593694.167 9  -2788625.90547  22663824.228    22663824.1114   22663832.0754
 99  5 15 15 29 30.0000000  0  7 27  2 26  4 24  7  9                0.000000184
   1408809.265 9   1081115.47746  22764752.201    22764752.0604   22764761.4434
   -645917.434 9   -507831.97448  21602578.834    21602578.3164   21602586.1154
    -21924.268 9   -145831.13045  23299240.592    23299240.8604   23299249.9474
  -3940028.982 9  -3054835.83747  22067296.874    22067297.1784   22067305.9054
  -2655548.876 8  -1803161.85645  24673920.544    24673920.1504   24673933.4184
   -417005.614 9   -330537.27248  20744280.513    20744280.1844   20744287.6184
  -3634554.836 9  -2820465.36747  22656048.693    22656048.5644   22656056.5324
 99  5 15 15 29 45.0000000  0  7 27  2 26  4 24  7  9                0.000000182
   1461164.799 9   1121911.92846  22774715.163    22774715.0234   22774724.4374
   -632118.926 9   -497079.91448  21605204.600    21605204.0784   21605211.8864
      4990.410 9   -124858.70546  23304362.306    23304362.6454   23304371.7444
  -3986601.470 9  -3091126.06647  22058434.394    22058434.6834   22058443.4994
  -2710103.375 8  -1845671.84345  24663539.054    24663538.6984   24663551.8864
   -398438.511 9   -316069.41948  20747813.674    20747813.3584   20747820.8604
  -3675333.462 9  -2852240.90847  22648288.778    22648288.6364   22648296.6214
 99  5 15 15 30  0.0000000  0  7 27  2 26  4 24  7  9                0.000000174
   1513572.802 9   1162749.26246  22784688.177    22784688.0084   22784697.4874
   -618286.039 9   -486301.05648  21607836.909    21607836.3964   21607844.2294
     31958.911 9   -103844.33746  23309494.313    23309494.6134   23309503.7204
  -4033123.234 9  -3127376.76047  22049581.604    22049581.9024   22049590.7514
  -2764683.285 8  -1888201.63745  24653152.775    24653152.3774   24653165.7024
   -379815.317 9   -301557.84648  20751357.527    20751357.2254   20751364.7794
  -3716049.713 9  -2883967.84847  22640540.677    22640540.5604   22640548.5574
 99  5 15 15 30 15.0000000  0  7 27  2 26  4 24  7  9                0.000000162
   1566044.559 9   1203636.27246  22794673.305    22794673.1364   22794682.6114
   -604407.931 9   -475486.96248  21610477.834    21610477.3284   21610485.1764
     58990.086 9    -82781.12646  23314638.213    23314638.4824   23314647.6414
  -4079584.376 9  -3163580.22347  22040740.365    22040740.6434   22040749.5054
  -2819281.121 8  -1930745.41845  24642763.121    24642762.8204   24642776.1254
   -361123.453 9   -286992.76848  20754914.480    20754914.1624   20754921.7504
  -3756694.578 9  -2915639.15647  22632806.235    22632806.1344   22632814.1334
 99  5 15 15 30 30.0000000  0  7 27  2 26  4 24  7  9                0.000000153
   1618586.854 9   1244578.26446  22804671.876    22804671.6444   22804681.1874
   -590479.667 9   -464633.78948  21613128.295    21613127.8134   21613135.6804
     86088.440 9    -61665.59046  23319794.889    23319795.1524   23319804.2804
  -4125980.041 9  -3199732.66347  22031911.616    22031911.8754   22031920.7334
  -2873893.945 8  -1973300.87745  24632370.670    24632370.4444   24632383.8884
   -342358.181 9   -272370.49248  20758485.383    20758485.0704   20758492.6724
  -3797264.370 9  -2947251.97347  22625086.050    22625085.9294   22625093.9404
 99  5 15 15 30 45.0000000  0  7 27  2 26  4 24  7  9                0.000000144
   1671202.207 9   1285577.17446  22814684.332    22814684.1134   22814693.6564
   -576498.855 9   -453739.67448  21615788.777    21615788.3014   21615796.1734
    113255.792 9    -40496.27746  23324964.657    23324964.8934   23324974.0664
  -4172305.851 9  -3235830.68147  22023096.123    22023096.3774   22023105.2404
  -2928518.768 8  -2015865.70645  24621975.933    24621975.7014   24621989.2514
   -323517.372 9   -257689.36048  20762070.690    20762070.3784   20762077.9864
  -3837758.518 9  -2978805.85547  22617380.270    22617380.1544   22617388.1584
 99  5 15 15 31  0.0000000  0  7 27  2 26  4 24  7  9                0.000000131
   1723892.569 9   1326634.53646  22824710.996    22824710.7324   22824720.3904
   -562463.583 9   -442803.11548  21618459.612    21618459.1124   21618467.0124
    140497.910 9    -19268.69846  23330148.658    23330148.9144   23330158.0824
  -4218553.615 9  -3271867.86847  22014295.437    22014295.6904   22014304.5584
  -2983150.591 8  -2058435.98545  24611579.900    24611579.5984   24611593.1034
   -304595.568 9   -242945.09848  20765671.391    20765671.0954   20765678.6954
  -3878175.998 9  -3010299.97347  22609689.091    22609688.9784   22609696.9844
 99  5 15 15 31 15.0000000  0  7 27  2 26  4 24  7  9                0.000000119
   1776669.980 9   1367759.71846  22834754.150    22834753.9094   22834763.6634
   -548362.176 9   -431815.02348  21621143.053    21621142.5454   21621150.4384
    167829.902 9      2028.90546  23335349.775    23335350.0044   23335359.2224
  -4264707.848 9  -3307832.17247  22005512.584    22005512.8114   22005521.6944
  -3037774.842 8  -2101000.37145  24601185.261    24601185.0344   24601198.4354
   -285578.448 9   -228126.57648  20769290.216    20769289.9304   20769297.5294
  -3918502.214 9  -3041722.99247  22602015.268    22602015.1704   22602023.1764
 99  5 15 15 31 30.0000000  0  7 27  2 26  4 24  7  9                0.000000105
   1829528.894 9   1408948.39646  22844812.833    22844812.6354   22844822.4924
   -534200.395 9   -420779.88648  21623837.977    21623837.4694   21623845.3544
    195249.402 9     23394.70346  23340567.576    23340567.8514   23340576.9904
  -4310772.815 9  -3343726.93147  21996746.689    21996746.9094   21996755.7974
  -3092392.063 8  -2143559.27245  24590791.972    24590791.7194   24590805.2014
   -266473.035 9   -213239.25348  20772925.885    20772925.5734   20772933.1364
  -3958742.214 9  -3073078.82847  22594357.859    22594357.7724   22594365.7474
 99  5 15 15 31 45.0000000  0  7 27  2 26  4 24  7  9                0.000000093
   1882470.063 9   1450201.17646  22854887.201    22854886.9814   22854896.9714
   -519975.981 9   -409695.94448  21626544.798    21626544.2754   21626552.1804
    222757.275 9     44829.35746  23345802.228    23345802.5174   23345811.6904
  -4356748.460 9  -3379552.08947  21987997.753    21987997.9864   21988006.8324
  -3147000.714 8  -2186111.51045  24580400.285    24580399.9544   24580413.3834
   -247281.731 9   -198285.00348  20776577.932    20776577.6044   20776585.1214
  -3998897.179 9  -3104368.39347  22586716.590    22586716.5314   22586724.4784
 99  5 15 15 32  0.0000000  0  7 27  2 26  4 24  7  9                0.000000087
   1935497.296 9   1491521.00246  22864978.009    22864977.8144   22864987.8204
   -505681.723 9   -398557.58448  21629264.915    21629264.3824   21629272.3064
    250361.840 9     66339.35346  23351055.188    23351055.5404   23351064.7044
  -4402626.860 9  -3415301.47047  21979267.331    21979267.5804   21979276.3754
  -3201597.791 8  -2228654.72545  24570010.843    24570010.4054   24570023.9764
   -228002.287 9   -183262.07548  20780246.759    20780246.4244   20780253.8764
  -4038961.578 9  -3135587.40547  22579092.577    22579092.5304   22579100.4494
 99  5 15 15 32 15.0000000  0  7 27  2 26  4 24  7  9                0.000000080
   1988597.342 9   1532897.58246  22875082.766    22875082.5594   22875092.5504
   -491326.893 9   -387372.02348  21631996.533    21631995.9914   21632003.9264
    278053.067 9     87916.88146  23356324.674    23356325.0134   23356334.2174
  -4448418.995 9  -3450983.63247  21970553.346    21970553.5824   21970562.3374
  -3256197.373 8  -2271199.91645  24559620.873    24559620.6294   24559633.8644
   -208647.676 9   -168180.57148  20783929.871    20783929.5254   20783936.9424
  -4078948.129 9  -3166745.74547  22571483.393    22571483.3174   22571491.2484
 99  5 15 15 32 30.0000000  0  7 27  2 26  4 24  7  9                0.000000077
   2041778.519 9   1574337.38346  22885202.982    22885202.7134   22885212.7044
   -476900.424 9   -376130.63648  21634741.832    21634741.3204   21634749.1984
    305839.606 9    109568.69646  23361612.361    23361612.6724   23361621.8884
  -4494113.554 9  -3486589.75547  21961857.954    21961858.1724   21961866.8544
  -3310789.837 8  -2313739.54245  24549232.296    24549232.0494   24549245.3044
   -189210.375 9   -153034.62748  20787628.708    20787628.3844   20787635.7484
  -4118847.388 9  -3197836.06147  22563890.809    22563890.7344   22563898.6394
 99  5 15 15 32 45.0000000  0  7 27  2 26  4 24  7  9                0.000000070
   2095026.470 9   1615829.21746  22895335.892    22895335.5984   22895345.5694
   -462415.929 9   -364844.05148  21637498.155    21637497.6424   21637505.4914
    333709.916 9    131285.75646  23366915.975    23366916.3104   23366925.4664
  -4539721.843 9  -3522128.66347  21953178.940    21953179.1804   21953187.7854
  -3365384.729 8  -2356281.03645  24538843.272    24538843.0034   24538856.1324
   -169704.715 9   -137835.42948  20791340.568    20791340.2354   20791347.5764
  -4158673.194 9  -3228869.15447  22556312.231    22556312.1604   22556320.0274
 99  5 15 15 33  0.0000000  0  7 27  2 26  4 24  7  9                0.000000066
   2148354.371 9   1657383.35046  22905484.024    22905483.7234   22905493.6634
   -447856.856 9   -353499.34148  21640268.704    21640268.1844   21640275.9884
    361680.311 9    153080.81746  23372238.579    23372238.8464   23372248.0944
  -4585226.651 9  -3557586.92747  21944519.666    21944519.9154   21944528.5024
  -3419964.848 9  -2398811.01645  24528457.040    24528456.8824   24528469.9654
   -150116.021 9   -122571.52748  20795068.233    20795067.8844   20795075.1674
  -4198408.514 9  -3259831.73347  22548750.864    22548750.7854   22548758.6314
 99  5 15 15 33 15.0000000  0  7 27  2 26  4 24  7  9                0.000000057
   2201742.876 9   1698984.71146  22915643.610    22915643.2704   22915653.2734
   -433241.487 9   -342110.77048  21643049.981    21643049.4584   21643057.2374
    389731.707 9    174939.01146  23377576.622    23377576.9204   23377586.1184
  -4630650.409 9  -3592982.03147  21935875.828    21935876.0694   21935884.6784
  -3474549.075 8  -2441344.20645  24518070.009    24518069.9224   24518082.7914
   -130461.891 9   -107256.63348  20798808.304    20798807.9454   20798815.2124
  -4238069.958 9  -3290736.74947  22541203.557    22541203.4594   22541211.3124
 99  5 15 15 33 30.0000000  0  7 27  2 26  4 24  7  9                0.000000051
   2255200.058 9   1740639.58346  22925816.189    22925815.8684   22925825.8684
   -418557.375 9   -330668.63248  21645844.314    21645843.7944   21645851.5274
    417870.693 9    196865.43546  23382931.339    23382931.6034   23382940.8214
  -4675987.334 9  -3628309.47547  21927248.561    21927248.7724   21927257.3944
  -3529129.476 8  -2483874.40745  24507683.652    24507683.7144   24507696.2554
   -110733.460 9    -91883.84148  20802562.536    20802562.1764   20802569.4184
  -4277647.236 9  -3321576.17747  22533672.262    22533672.1734   22533679.9984
 99  5 15 15 33 45.0000000  0  7 27  2 26  4 24  7  9                0.000000046
   2308720.899 9   1782344.05846  22936000.829    22936000.5274   22936010.6614
   -403810.759 9   -319177.78748  21648650.534    21648650.0114   21648657.6974
    446090.352 9    218854.73246  23388301.366    23388301.6764   23388310.8564
  -4721243.700 9  -3663574.14647  21918636.582    21918636.7744   21918645.4464
  -3583714.587 8  -2526408.27445  24497296.487    24497296.5544   24497308.8224
    -90937.167 9    -76458.17148  20806329.629    20806329.2684   20806336.5294
  -4317146.560 9  -3352354.85747  22526155.816    22526155.6974   22526163.5194
 99  5 15 15 34  0.0000000  0  7 27  2 26  4 24  7  9                0.000000048
   2362308.870 9   1824100.83646  22946198.242    22946197.9874   22946208.1634
   -389000.357 9   -307637.24648  21651468.881    21651468.3604   21651476.0264
    474392.017 9    240907.92146  23393687.002    23393687.3374   23393696.5724
  -4766418.567 9  -3698775.31147  21910040.074    21910040.2754   21910048.9944
  -3638304.941 8  -2568946.22645  24486908.292    24486908.3774   24486920.4054
    -71069.074 9    -60976.55648  20810110.411    20810110.0714   20810117.3274
  -4356560.684 9  -3383067.15947  22518655.598    22518655.4894   22518663.2864
 99  5 15 15 34 15.0000000  0  7 27  2 26  4 24  7  9                0.000000047
   2415949.652 9   1865898.78646  22956405.717    22956405.4714   22956415.7334
   -374141.584 9   -296059.00748  21654296.431    21654295.9134   21654303.5704
    502761.458 9    263013.92046  23399085.570    23399085.9194   23399095.1674
  -4811526.792 9  -3733924.54647  21901456.242    21901456.4574   21901465.2244
  -3692911.794 8  -2611497.05245  24476516.891    24476517.0014   24476528.9514
    -51141.948 9    -45448.93848  20813902.413    20813902.0754   20813909.3524
  -4395902.387 9  -3413723.02347  22511169.081    22511168.9924   22511176.7844
 99  5 15 15 34 30.0000000  0  7 27  2 26  4 24  7  9                0.000000045
   2469645.439 9   1907739.57946  22966623.727    22966623.4974   22966633.7454
   -359232.476 9   -284441.55648  21657133.586    21657133.0794   21657140.7164
    531201.632 9    285175.04046  23404497.611    23404498.0034   23404507.2234
  -4856566.395 9  -3769020.30647  21892885.491    21892885.7014   21892894.5004
  -3747528.058 8  -2654055.19745  24466123.678    24466123.6764   24466135.8034
    -31151.338 9    -29871.85448  20817706.517    20817706.1924   20817713.4784
  -4435166.293 9  -3444318.26647  22503697.436    22503697.3344   22503705.1314
 99  5 15 15 34 45.0000000  0  7 27  2 26  4 24  7  9                0.000000046
   2523399.391 9   1949625.70846  22976852.830    22976852.6254   22976862.8154
   -344271.839 9   -272783.93448  21659980.564    21659980.0484   21659987.6834
    559716.042 9    307394.00446  23409923.778    23409924.1274   23409933.3654
  -4901534.664 9  -3804060.47547  21884328.283    21884328.4754   21884337.3094
  -3802147.574 7  -2696615.84545  24455729.757    24455729.6614   24455742.1384
    -11092.444 9    -14241.55448  20821523.624    20821523.2794   20821530.6034
  -4474346.543 9  -3474848.31747  22496241.711    22496241.6164   22496249.3874
 99  5 15 15 35  0.0000000  0  7 27  2 26  4 24  7  9                0.000000044
   2577198.088 9   1991546.70446  22987090.508    22987090.2884   22987100.4384
   -329271.337 9   -261095.26348  21662835.091    21662834.5824   21662842.2244
    588289.360 9    329658.88146  23415361.189    23415361.4934   23415370.7244
  -4946444.172 9  -3839054.86447  21875782.233    21875782.4514   21875791.2614
  -3856782.171 8  -2739188.22345  24445332.865    24445333.0094   24445345.7874
      9022.156 9      1432.14348  20825351.342    20825350.9904   20825358.3264
  -4513451.665 9  -3505319.83747  22488800.264    22488800.1584   22488807.9244
 99  5 15 15 35 15.0000000  0  7 27  2 26  4 24  7  9                0.000000051
   2631058.975 9   2033516.15046  22997340.029    22997339.7634   22997349.8914
   -314213.833 9   -249362.16848  21665700.490    21665699.9784   21665707.6234
    616934.078 9    351979.39346  23420812.127    23420812.3994   23420821.6934
  -4991278.950 9  -3873991.01947  21867250.436    21867250.6674   21867259.4194
  -3911418.701 8  -2781762.12245  24434935.608    24434935.9554   24434948.7544
     29209.531 9     17162.55248  20829192.885    20829192.5504   20829199.9134
  -4552464.089 9  -3535719.11747  22481376.436    22481376.3374   22481384.1224
 99  5 15 15 35 30.0000000  0  7 27  2 26  4 24  7  9                0.000000061
   2684969.177 9   2075524.02146  23007598.970    23007598.7204   23007608.7244
   -299112.731 9   -237595.10848  21668574.141    21668573.6294   21668581.2904
    645633.935 9    374342.85546  23426273.564    23426273.8184   23426283.1474
  -5036053.555 9  -3908880.28347  21858730.110    21858730.3364   21858739.0384
  -3966072.779 7  -2824349.68645  24424535.214    24424535.6654   24424548.6504
     49456.652 9     32939.51449  20833045.804    20833045.4634   20833052.8444
  -4591395.359 9  -3566055.16247  22473968.052    22473967.9464   22473975.7574
 99  5 15 15 35 45.0000000  0  7 27  2 26  4 24  7  9                0.000000077
   2738931.798 9   2117572.74146  23017867.834    23017867.5614   23017877.4874
   -283966.325 9   -225792.73948  21671456.433    21671455.9234   21671463.5914
    674389.875 9    396750.01946  23431745.675    23431745.9594   23431755.3104
  -5080762.026 9  -3943718.01347  21850222.385    21850222.6064   21850231.2414
  -4020744.061 8  -2866950.67545  24414131.567    24414132.1074   24414145.3244
     69763.039 9     48762.65849  20836910.015    20836909.6774   20836917.0604
  -4630243.036 9  -3596326.06647  22466575.592    22466575.5034   22466583.3094
 99  5 15 15 36  0.0000000  0  7 27  2 26  4 24  7  9                0.000000150
   2792924.742 9   2159645.08146  23028142.464    23028142.1694   23028152.0314
   -268797.187 9   -213972.66048  21674343.054    21674342.5354   21674350.2324
    703177.946 9    419182.23746  23437223.935    23437224.2074   23437233.5474
  -5125423.849 9  -3978519.39347  21841723.548    21841723.7604   21841732.2964
  -4075453.084 7  -2909581.06245  24403720.813    24403721.2764   24403734.6924
     90106.045 9     64614.33649  20840781.222    20840780.8474   20840788.2194
  -4669027.289 9  -3626547.56147  22459195.230    22459195.1324   22459202.9284
 99  5 15 15 36 15.0000000  0  7 27  2 26  4 24  7  9                0.000000161
   2846960.248 9   2201750.58646  23038425.187    23038424.8604   23038434.7344
   -253584.780 9   -202118.86948  21677237.907    21677237.3714   21677245.0794
    732010.957 9    441649.44846  23442710.755    23442710.9784   23442720.2674
  -5170018.314 9  -4013268.29347  21833237.500    21833237.7244   21833246.1784
  -4130179.720 8  -2952225.19445  24393306.659    24393306.9754   24393320.6264
    110500.793 9     80506.33149  20844662.279    20844661.8614   20844669.2164
  -4707731.620 9  -3656706.77147  22451830.079    22451829.9714   22451837.7734
 99  5 15 15 36 30.0000000  0  7 27  2 26  4 24  7  9                0.000000174
   2901046.846 9   2243895.91646  23048717.581    23048717.2454   23048727.1244
   -238316.177 9   -190221.28048  21680143.435    21680142.8994   21680150.6364
    760899.432 9    464159.88246  23448208.110    23448208.3034   23448217.5774
  -5214530.616 9  -4047953.15547  21824767.055    21824767.2584   21824775.6864
  -4184912.976 8  -2994874.45645  24382891.257    24382891.6764   24382905.4384
    130956.113 9     96445.52749  20848554.856    20848554.4064   20848561.7204
  -4746349.154 9  -3686798.34647  22444481.400    22444481.2594   22444489.0834
 99  5 15 15 36 45.0000000  0  7 27  2 26  4 24  7  9                0.000000191
   2955190.791 9   2286085.91746  23059020.876    23059020.5524   23059030.4844
   -222983.751 9   -178273.95948  21683061.110    21683060.5704   21683068.3484
    789847.472 9    486716.74046  23453716.807    23453716.9994   23453726.1874
  -5258950.552 9  -4082566.05547  21816314.196    21816314.4004   21816322.8174
  -4239648.547 8  -3037525.54445  24372475.514    24372475.7564   24372489.7944
    151477.033 9    112435.84149  20852459.902    20852459.4534   20852466.7564
  -4784872.998 9  -3716816.92247  22437150.553    22437150.4044   22437158.2434
 99  5 15 15 37  0.0000000  0  7 27  2 26  4 24  7  9                0.000000200
   3009378.052 9   2328309.68146  23069332.430    23069332.1434   23069342.0944
   -207602.581 9   -166288.65648  21685988.055    21685987.5334   21685995.3334
    818839.906 9    509308.18946  23459233.974    23459234.1594   23459243.3454
  -5303289.366 9  -4117115.73447  21807876.741    21807876.9614   21807885.4034
  -4294402.576 8  -3080191.01545  24362056.316    24362056.5094   24362070.4564
    172046.587 9    128464.05449  20856374.196    20856373.7434   20856381.0334
  -4823319.089 9  -3746774.90047  22429834.494    22429834.3494   22429842.1824
 99  5 15 15 37 15.0000000  0  7 27  2 26  4 24  7  9                0.000000203
   3063617.244 9   2370573.90346  23079653.870    23079653.5984   23079663.6174
   -192164.356 9   -154258.89948  21688925.880    21688925.3694   21688933.1794
    847886.823 9    531942.09346  23464761.468    23464761.6344   23464770.8184
  -5347539.605 9  -4151596.40147  21799456.174    21799456.3814   21799464.8304
  -4349170.060 8  -3122866.96245  24351634.652    24351634.7334   24351648.4464
    192671.902 9    144535.70949  20860299.123    20860298.6464   20860305.9084
  -4861678.856 9  -3776665.62347  22422534.883    22422534.7524   22422542.5704
 99  5 15 15 37 30.0000000  0  7 27  2 26  4 24  7  9                0.000000203
   3117913.876 9   2412882.89046  23089986.285    23089986.0254   23089996.0554
   -176664.114 9   -142180.81548  21691875.495    21691874.9874   21691882.8034
    877000.189 9    554627.78946  23470301.630    23470301.8084   23470310.8954
  -5391696.621 9  -4186004.41947  21791053.330    21791053.5384   21791062.0444
  -4403943.452 8  -3165547.50945  24341211.821    24341211.8694   24341225.3814
    213358.190 9    160654.88349  20864235.655    20864235.1514   20864242.4024
  -4899950.070 9  -3806487.33947  22415252.111    22415251.9644   22415259.7884
 99  5 15 15 37 45.0000000  0  7 27  2 26  4 24  7  9                0.000000195
   3172260.238 9   2455230.63146  23100328.138    23100327.8864   23100337.9114
   -161109.171 9   -130060.11148  21694835.562    21694835.0284   21694842.8804
    906177.839 9    577363.54946  23475854.016    23475854.1654   23475863.2544
  -5435765.412 9  -4220343.69547  21782667.270    21782667.4744   21782676.0184
  -4458725.837 8  -3208235.05945  24330787.123    24330787.2064   24330800.6024
    234097.677 9    176815.50749  20868182.273    20868181.7484   20868188.9874
  -4938139.345 9  -3836245.20147  22407984.932    22407984.7754   22407992.5874
 99  5 15 15 38  0.0000000  0  7 27  2 26  4 24  7  9                0.000000178
   3226659.681 9   2497619.73446  23110680.045    23110679.7694   23110689.9134
   -145497.359 9   -117895.09148  21697806.408    21697805.8824   21697813.7474
    935425.629 9    600153.98046  23481419.764    23481419.9314   23481429.0124
  -5479741.471 9  -4254610.71647  21774298.864    21774299.0764   21774307.6664
  -4513510.108 8  -3250924.07645  24320362.006    24320362.0944   24320375.3984
    254893.419 9    193019.96849  20872139.611    20872139.0794   20872146.2934
  -4976244.861 9  -3865937.81147  22400733.701    22400733.5654   22400741.3404
 99  5 15 15 38 15.0000000  0  7 27  2 26  4 24  7  9                0.000000158
   3281119.076 9   2540055.53546  23121043.330    23121043.0854   23121053.2754
   -129821.456 9   -105680.12648  21700789.469    21700788.9464   21700796.8174
    964751.308 9    623005.07846  23487000.349    23487000.5074   23487009.5764
  -5523618.669 9  -4288800.69747  21765949.272    21765949.4974   21765958.0864
  -4568286.512 8  -3293606.96045  24309938.413    24309938.4204   24309951.5574
    275753.410 9    209274.49449  20876109.175    20876108.6514   20876115.8704
  -5014261.171 9  -3895560.89747  22393499.440    22393499.3134   22393507.0424
 99  5 15 15 38 30.0000000  0  7 27  2 26  4 24  7  9                0.000000135
   3335641.101 9   2582540.15246  23131418.576    23131418.3324   23131428.5664
   -114085.103 9    -93418.06248  21703784.018    21703783.4934   21703791.3894
    994158.454 9    645919.67746  23492596.379    23492596.5434   23492605.6844
  -5567400.080 9  -4322916.04247  21757617.911    21757618.1444   21757626.7404
  -4623054.859 8  -3336283.57645  24299516.381    24299516.3154   24299529.2914
    296678.425 9    225579.68849  20880091.098    20880090.5744   20880097.7874
  -5052191.796 9  -3925117.22347  22386281.505    22386281.3604   22386289.1014
 99  5 15 15 38 45.0000000  0  7 27  2 26  4 24  7  9                0.000000110
   3390234.442 9   2625080.33446  23141807.419    23141807.1604   23141817.3924
    -98289.211 9    -81109.59948  21706789.924    21706789.4024   21706797.3054
   1023654.916 9    668903.86146  23498209.423    23498209.5674   23498218.7754
  -5611081.695 9  -4356953.62347  21749305.598    21749305.8094   21749314.3744
  -4677810.210 8  -3378950.06445  24289096.850    24289096.6684   24289109.5654
    317676.644 9    241941.92149  20884086.958    20884086.4284   20884093.6384
  -5090030.572 9  -3954601.97347  22379081.025    22379080.8854   22379088.5894
 99  5 15 15 39  0.0000000  0  7 27  2 26  4 24  7  9                0.000000084
   3444894.846 9   2667672.77446  23152209.010    23152208.6894   23152218.9084
    -82438.842 9    -68758.68948  21709806.207    21709805.6744   21709813.5754
   1053235.823 9    691953.83546  23503838.536    23503838.7304   23503847.9524
  -5654670.009 9  -4390918.49848  21741011.022    21741011.2014   21741019.7514
  -4732555.471 8  -3421608.69145  24278679.261    24278679.1004   24278691.8844
    338743.948 9    258357.98949  20888095.926    20888095.3924   20888102.5944
  -5127778.907 9  -3984016.24647  22371897.757    22371897.5984   22371905.3224
 99  5 15 15 39 15.0000000  0  7 27  2 26  4 24  7  9                0.000000059
   3499619.953 9   2710315.62346  23162622.923    23162622.6104   23162632.7764
    -66536.342 9    -56367.15648  21712832.432    21712831.8794   21712839.7894
   1082898.744 9    715067.72346  23509483.259    23509483.4834   23509492.6854
  -5698172.001 9  -4424816.11548  21732732.837    21732733.0224   21732741.5114
  -4787294.090 8  -3464262.13645  24268262.905    24268262.6914   24268275.5144
    359878.287 9    274826.28849  20892117.668    20892117.1184   20892124.3134
  -5165439.656 9  -4013362.28247  22364731.130    22364730.9894   22364738.6884
 99  5 15 15 39 30.0000000  0  7 27  2 26  4 24  7  9                0.000000041
   3554417.319 9   2753014.78846  23173050.587    23173050.2214   23173060.2964
    -50573.397 9    -43928.52948  21715870.123    21715869.5764   21715877.4784
   1112647.465 9    738248.46646  23515144.304    23515144.5354   23515153.7914
  -5741582.155 9  -4458642.16348  21724472.128    21724472.3114   21724480.7734
  -4842018.117 8  -3506904.20645  24257849.370    24257849.0314   24257862.0314
    381087.274 9    291352.75849  20896153.636    20896153.0844   20896160.2864
  -5203009.213 9  -4042637.24847  22357581.856    22357581.7084   22357589.4374
 99  5 15 15 39 45.0000000  0  7 27  2 26  4 24  7  9                0.000000029
   3609284.357 9   2795768.24246  23183491.509    23183491.1934   23183501.1334
    -34550.116 9    -31442.88248  21718919.270    21718918.7154   21718926.6244
   1142475.887 9    761491.31846  23520820.538    23520820.7544   23520830.0424
  -5784899.221 9  -4492395.67348  21716229.132    21716229.3174   21716237.7524
  -4896725.280 8  -3549533.13245  24247438.998    24247438.5974   24247451.6554
    402371.277 9    307937.68349  20900203.858    20900203.2904   20900210.5194
  -5240486.991 9  -4071840.69247  22350450.060    22350449.9264   22350457.6554
 99  5 15 15 40  0.0000000  0  7 27  2 26  4 24  7  9                0.000000022
   3664214.738 9   2838571.05946  23193944.512    23193944.1864   23193954.0404
    -18474.124 9    -18916.16948  21721978.458    21721977.8974   21721985.7994
   1172370.650 9    784785.86046  23526509.389    23526509.6454   23526518.9564
  -5828130.868 9  -4526082.63248  21708002.393    21708002.5934   21708011.0054
  -4951424.135 8  -3592155.58345  24237030.141    24237029.7234   24237042.8434
    423723.653 9    324575.88049  20904267.084    20904266.5274   20904273.7584
  -5277878.008 9  -4100976.54747  22343334.801    22343334.6714   22343342.4004
 99  5 15 15 40 15.0000000  0  7 27  2 26  4 24  7  9                0.000000020
   3719210.936 9   2881425.16746  23204409.989    23204409.7014   23204419.5514
     -2341.716 9     -6345.48948  21725048.368    21725047.8124   21725055.7154
   1202329.329 9    808130.20346  23532210.373    23532210.6504   23532219.9854
  -5871275.093 9  -4559701.46348  21699792.238    21699792.4564   21699800.8634
  -5006115.386 8  -3634772.09645  24226622.751    24226622.3684   24226635.3694
    445147.272 9    341269.59449  20908343.854    20908343.2954   20908350.5324
  -5315180.810 9  -4130043.65047  22336236.297    22336236.1664   22336243.8874
 99  5 15 15 40 30.0000000  0  7 27  2 26  4 24  7  9                0.000000023
   3774275.393 9   2924332.46146  23214888.399    23214888.1274   23214897.9814
     13852.889 9      6273.65448  21728130.136    21728129.5794   21728137.4754
   1232354.123 9    831526.07646  23537923.955    23537924.2344   23537933.6394
  -5914325.455 9  -4593247.15848  21691599.984    21691600.2184   21691608.6094
  -5060796.537 8  -3677380.77445  24216217.279    24216216.9614   24216229.8334
    466646.149 9    358021.94849  20912434.941    20912434.3934   20912441.6314
  -5352392.070 9  -4159039.42447  22329155.222    22329155.0874   22329162.8354
 99  5 15 15 40 45.0000000  0  7 27  2 26  4 24  7  9                0.000000027
   3829395.473 9   2967283.09746  23225377.418    23225377.1164   23225387.0654
     30101.158 9     18934.61548  21731222.092    21731221.5284   21731229.4284
   1262433.222 9    854964.25546  23543647.859    23543648.0624   23543657.5754
  -5957291.760 9  -4626727.35648  21683423.737    21683423.9584   21683432.3274
  -5115478.442 8  -3719990.03745  24205811.680    24205811.3754   24205824.1494
    488209.533 9    374824.56849  20916538.343    20916537.7924   20916545.0354
  -5389519.020 9  -4187969.50447  22322090.213    22322090.0494   22322097.7984
 99  5 15 15 41  0.0000000  0  7 27  2 26  4 24  7  9                0.000000037
   3884576.142 9   3010280.93946  23235877.951    23235877.7264   23235887.7724
     46418.202 9     31649.16248  21734327.148    21734326.5994   21734334.4874
   1292573.677 9    878450.25046  23549383.434    23549383.6714   23549393.1854
  -6000164.391 9  -4660134.56748  21675265.331    21675265.5664   21675273.8854
  -5170154.446 8  -3762594.67745  24195407.115    24195406.7584   24195419.4664
    509843.144 9    391681.90549  20920655.114    20920654.5624   20920661.7864
  -5426549.984 9  -4216824.79747  22315043.429    22315043.2774   22315051.0244
 99  5 15 15 41 15.0000000  0  7 27  2 26  4 24  7  9                0.000000054
   3939809.370 9   3053319.72846  23246388.518    23246388.2404   23246398.4864
     62800.105 9     44414.25148  21737444.524    21737443.9514   21737451.9124
   1322767.059 9    901977.48846  23555129.070    23555129.3034   23555138.9034
  -6042951.286 9  -4693474.96648  21667123.252    21667123.4734   21667131.7864
  -5224832.041 8  -3805200.57645  24185002.277    24185001.8634   24185014.6694
    531534.571 9    408584.29849  20924782.889    20924782.3344   20924789.5514
  -5463493.219 9  -4245611.72847  22308013.362    22308013.2144   22308020.9654
 99  5 15 15 41 30.0000000  0  7 27  2 26  4 24  7  9                0.000000068
   3995082.646 9   3096389.73546  23256906.699    23256906.4384   23256916.8044
     79234.178 9     57219.99348  21740571.820    21740571.2364   21740579.2474
   1353000.435 9    925535.89046  23560882.303    23560882.5214   23560892.1794
  -6085663.959 9  -4726757.53248  21658995.282    21658995.4994   21659003.8014
  -5279523.200 8  -3847817.02445  24174594.830    24174594.3664   24174607.2794
    553271.243 9    425521.94749  20928919.262    20928918.7014   20928925.9144
  -5500360.911 9  -4274339.78747  22300997.624    22300997.4714   22301005.2084
 99  5 15 15 41 45.0000000  0  7 27  2 26  4 24  7  9                0.000000079
   4050397.610 9   3139492.23446  23267432.835    23267432.5124   23267443.0294
     95723.503 9     70068.79448  21743709.609    21743709.0434   21743717.0854
   1383279.971 9    949130.26246  23566644.357    23566644.5414   23566654.2534
  -6128294.260 9  -4759975.91248  21650882.974    21650883.1964   21650891.4734
  -5334221.366 8  -3890438.92845  24164186.041    24164185.7424   24164198.5774
    575057.056 9    442497.88949  20933064.984    20933064.4314   20933071.6264
  -5537147.071 9  -4303004.31747  22293997.429    22293997.2874   22294005.0094
 99  5 15 15 42  0.0000000  0  7 27  2 26  4 24  7  9                0.000000086
   4105751.960 9   3182625.41046  23277966.496    23277966.1394   23277976.7764
    112266.360 9     82959.30848  21746857.606    21746857.0344   21746865.1214
   1413607.957 9    972762.39446  23572415.652    23572415.8164   23572425.5294
  -6170843.895 9  -4793131.43648  21642785.984    21642786.2314   21642794.4674
  -5388927.741 8  -3933067.22845  24153775.741    24153775.5694   24153788.2864
    596890.657 9    459511.06249  20937219.783    20937219.2254   20937226.4004
  -5573851.570 9  -4331605.22147  22287012.777    22287012.6524   22287020.3764
 99  5 15 15 42 15.0000000  0  7 27  2 26  4 24  7  9                0.000000090
   4161152.672 9   3225794.71946  23288508.988    23288508.6604   23288519.2944
    128869.628 9     95896.89348  21750017.116    21750016.5474   21750024.6704
   1443994.096 9    996439.84346  23578197.998    23578198.1334   23578207.8444
  -6213304.128 9  -4826217.30048  21634706.081    21634706.3154   21634714.5554
  -5443637.223 8  -3975697.96845  24143364.956    24143364.7964   24143377.4344
    618777.570 9    476565.78149  20941384.720    20941384.1714   20941391.3264
  -5610470.255 9  -4360139.25247  22280044.460    22280044.3364   22280052.0784
 99  5 15 15 42 30.0000000  0  7 27  2 26  4 24  7  9                0.000000086
   4216589.970 9   3268992.52746  23299058.418    23299058.1774   23299068.7414
    145526.203 9    108876.01848  21753186.754    21753186.1834   21753194.3494
   1474434.119 9   1020159.27446  23583990.602    23583990.7434   23584000.4924
  -6255680.986 9  -4859238.19048  21626641.997    21626642.1974   21626650.4844
  -5498353.647 8  -4018334.10845  24132952.854    24132952.6844   24132965.0974
    640710.988 9    493656.73649  20945558.534    20945557.9824   20945565.1284
  -5647008.885 9  -4388610.90447  22273091.389    22273091.2604   22273099.0304
 99  5 15 15 42 45.0000000  0  7 27  2 26  4 24  7  9                0.000000085
   4272078.770 9   3312230.47946  23309617.693    23309617.4274   23309627.9714
    162248.133 9    121906.06948  21756368.816    21756368.2404   21756376.4334
   1504943.664 9   1043932.87946  23589796.458    23589796.6134   23589806.3344
  -6297961.763 9  -4892184.21648  21618596.192    21618596.3974   21618604.7034
  -5553060.578 8  -4060962.85645  24122542.539    24122542.3714   24122554.6494
    662704.233 9    510794.31049  20949743.723    20949743.1554   20949750.3004
  -5683449.758 9  -4417006.38047  22266156.937    22266156.8204   22266164.6054
 99  5 15 15 43  0.0000000  0  7 27  2 26  4 24  7  9                0.000000085
   4327608.868 9   3355500.60746  23320184.776    23320184.5024   23320194.9334
    179024.690 9    134978.68848  21759561.271    21759560.7104   21759568.9174
   1535514.330 9   1067754.10646  23595613.909    23595614.0964   23595623.7744
  -6340157.918 9  -4925064.30247  21610566.482    21610566.6864   21610575.0524
  -5607769.144 8  -4103592.86845  24112131.841    24112131.6894   24112144.0084
    684746.035 9    527969.72749  20953938.160    20953937.5714   20953944.6934
  -5719799.880 9  -4445331.14147  22259239.731    22259239.6194   22259247.4154
 99  5 15 15 43 15.0000000  0  7 27  2 26  4 24  7  9                0.000000079
   4383174.484 9   3398798.40746  23330758.643    23330758.4424   23330768.8154
    195844.657 9    148085.13348  21762762.012    21762761.4544   21762769.6864
   1566141.406 9   1091619.28646  23601442.086    23601442.2414   23601452.0044
  -6382273.965 9  -4957881.96747  21602552.012    21602552.2254   21602560.5864
  -5662482.210 8  -4146226.40145  24101720.254    24101720.0874   24101732.5134
    706830.028 9    545178.01349  20958140.631    20958140.0524   20958147.1604
  -5756066.834 9  -4473591.09747  22252338.332    22252338.2074   22252346.0354
 99  5 15 15 43 30.0000000  0  7 27  2 26  4 24  7  9                0.000000070
   4438787.866 9   3442133.43546  23341341.568    23341341.3764   23341351.6944
    212714.734 9    161230.62448  21765972.320    21765971.7614   21765979.9914
   1596832.857 9   1115534.64146  23607282.496    23607282.6684   23607292.4674
  -6424298.897 9  -4990628.63448  21594554.912    21594555.1014   21594563.4834
  -5717186.652 8  -4188853.20445  24091310.275    24091310.1134   24091322.5934
    728968.813 9    562428.99749  20962353.509    20962352.9354   20962360.0244
  -5792241.194 9  -4501778.90247  22245454.552    22245454.4624   22245462.2694
 99  5 15 15 43 45.0000000  0  7 27  2 26  4 24  7  9                0.000000061
   4494451.988 9   3485507.99546  23351934.180    23351933.8834   23351944.2134
    229641.403 9    174420.21248  21769193.410    21769192.8414   21769201.0604
   1627595.211 9   1139505.22446  23613136.401    23613136.5854   23613146.4124
  -6466225.986 9  -5023299.06048  21586576.427    21586576.6344   21586584.9764
  -5771875.718 8  -4231468.01745  24080903.158    24080903.0284   24080915.5374
    751173.780 9    579731.55449  20966579.011    20966578.4404   20966585.5524
  -5828317.299 9  -4529890.14447  22238589.471    22238589.3654   22238597.2184
 99  5 15 15 44  0.0000000  0  7 27  2 26  4 24  7  9                0.000000055
   4550172.793 8   3528926.72946  23362537.519    23362537.2924   23362547.6064
    246631.388 9    187659.13348  21772426.514    21772425.9534   21772434.1994
   1658431.062 9   1163533.09246  23619004.322    23619004.5534   23619014.3064
  -6508048.739 9  -5055888.19348  21578617.839    21578618.0344   21578626.3274
  -5826543.376 8  -4274066.17345  24070500.083    24070500.0204   24070512.6934
    773451.199 9    597090.56249  20970818.290    20970817.7254   20970824.8364
  -5864289.859 9  -4557920.70247  22231744.114    22231744.0244   22231751.8924
 99  5 15 15 44 15.0000000  0  7 27  2 26  4 24  7  9                0.000000050
   4605945.200 8   3572385.66046  23373150.666    23373150.4544   23373160.8104
    263678.308 9    200942.41848  21775670.476    21775669.9074   21775678.1464
   1689330.335 9   1187610.37046  23624884.311    23624884.5534   23624894.3064
  -6549774.991 9  -5088402.12648  21570677.601    21570677.8004   21570686.0314
  -5881197.901 8  -4316654.07545  24060099.476    24060099.4524   24060112.3654
    795792.216 9    614499.13249  20975069.662    20975069.0924   20975076.2084
  -5900163.799 9  -4585874.41747  22224917.506    22224917.4104   22224925.2954
 99  5 15 15 44 30.0000000  0  7 27  2 26  4 24  7  9                0.000000047
   4661769.378 8   3615884.93346  23383773.664    23383773.5104   23383783.8274
    280784.575 9    214271.95148  21778925.735    21778925.1744   21778933.3994
   1720290.237 9   1211734.91046  23630775.854    23630776.0544   23630785.8774
  -6591402.698 9  -5120839.27048  21562756.124    21562756.3044   21562764.5014
  -5935837.518 8  -4359230.37445  24049701.757    24049701.5494   24049714.8954
    818195.414 9    631956.15649  20979332.875    20979332.3004   20979339.4254
  -5935938.004 9  -4613750.41547  22218109.876    22218109.7834   22218117.6964
 99  5 15 15 44 45.0000000  0  7 27  2 26  4 24  7  9                0.000000047
   4717639.243 8   3659419.81146  23394405.435    23394405.2904   23394415.6394
    297945.268 9    227643.89448  21782191.346    21782190.7934   21782198.9984
   1751302.590 9   1235900.31046  23636677.376    23636677.5494   23636687.4004
  -6632938.459 9  -5153204.77348  21554852.142    21554852.3364   21554860.4934
  -5990468.205 8  -4401799.70845  24039305.814    24039305.6654   24039319.1364
    840653.168 9    649455.68948  20983606.461    20983605.8824   20983613.0344
  -5971617.217 9  -4641552.39047  22211320.369    22211320.2734   22211328.1964
 99  5 15 15 45  0.0000000  0  7 27  2 26  4 24  7  9                0.000000047
   4773552.132 8   3702988.21246  23405045.345    23405045.1644   23405055.6754
    315161.481 9    241059.09548  21785467.521    21785466.9654   21785475.1834
   1782367.015 9   1260106.28346  23642588.807    23642588.9764   23642598.8824
  -6674385.072 9  -5185500.81048  21546965.100    21546965.2864   21546973.3964
  -6045094.028 8  -4444365.27945  24028910.823    24028910.8014   24028924.0664
    863162.174 9    666995.15948  20987889.786    20987889.2064   20987896.3784
  -6007204.733 9  -4669282.91147  22204548.298    22204548.1914   22204556.1514
 99  5 15 15 45 15.0000000  0  7 27  2 26  4 24  7  9                0.000000049
   4829513.281 8   3746594.20446  23415694.478    23415694.2914   23415704.9674
    332440.885 9    254523.54248  21788755.694    21788755.1394   21788763.3544
   1813488.671 9   1284356.86346  23648511.088    23648511.2264   23648521.1824
  -6715735.056 9  -5217721.55048  21539096.451    21539096.6144   21539104.7144
  -6099707.049 8  -4486920.88945  24018518.291    24018518.3364   24018531.4374
    885729.462 9    684580.04648  20992184.219    20992183.6344   20992190.8314
  -6042697.600 9  -4696939.68647  22197794.222    22197794.1174   22197802.0914
 99  5 15 15 45 30.0000000  0  7 27  2 26  4 24  7  9                0.000000055
   4885521.755 8   3790237.07846  23426352.574    23426352.3944   23426363.1964
    349783.243 9    268037.03748  21792055.831    21792055.3044   21792063.4904
   1844661.238 9   1308647.09346  23654443.096    23654443.2304   23654453.2184
  -6756993.236 9  -5249870.75348  21531245.282    21531245.4594   21531253.5074
  -6154309.572 8  -4529468.30145  24008127.771    24008127.8494   24008141.0044
    908353.079 9    702208.82548  20996489.324    20996488.7434   20996495.9564
  -6078100.225 9  -4724526.13547  22191057.347    22191057.2604   22191065.2124
 99  5 15 15 45 45.0000000  0  7 27  2 26  4 24  7  9                0.000000060
   4941566.099 9   3833907.91046  23437017.500    23437017.3504   23437028.2164
    367181.637 9    281594.20448  21795366.674    21795366.1124   21795374.2934
   1875873.048 9   1332967.92346  23660382.544    23660382.6684   23660392.6634
  -6798171.461 9  -5281957.65948  21523409.304    21523409.4644   21523417.5294
  -6208916.714 8  -4572019.30045  23997736.370    23997736.5434   23997749.5834
    931022.174 9    719873.03948  21000803.106    21000802.5474   21000809.7504
  -6113423.778 9  -4752050.98047  22184335.503    22184335.4044   22184343.3574
 99  5 15 15 46  0.0000000  0  7 27  2 26  4 24  7  9                0.000000069
   4997654.438 9   3877613.01346  23447690.841    23447690.6614   23447701.6624
    384642.510 9    295200.05748  21798689.337    21798688.7824   21798696.9704
   1907131.248 9   1357324.89346  23666330.824    23666330.9004   23666340.9804
  -6839261.548 9  -5313975.88348  21515590.094    21515590.2574   21515598.2954
  -6263522.793 8  -4614569.47345  23987345.172    23987345.4064   23987358.2224
    953742.399 9    737577.09648  21005126.612    21005126.0544   21005133.2544
  -6148657.231 9  -4779505.60547  22177630.838    22177630.7364   22177638.6844
 99  5 15 15 46 15.0000000  0  7 27  2 26  4 24  7  9                0.000000080
   5053785.685 9   3921351.55046  23458372.393    23458372.2064   23458383.1804
    402160.361 9    308850.31048  21802022.859    21802022.3244   21802030.5394
   1938432.494 9   1381715.40746  23672287.308    23672287.3864   23672297.5264
  -6880266.567 9  -5345927.82248  21507787.064    21507787.2394   21507795.3024
  -6318131.935 8  -4657122.02745  23976953.434    23976953.6404   23976966.3424
    976505.712 9    755314.73148  21009458.356    21009457.7954   21009464.9974
  -6183803.677 9  -4806892.43047  22170942.705    22170942.5864   22170950.5304
 99  5 15 15 46 30.0000000  0  7 27  2 26  4 24  7  9                0.000000087
   5109946.468 9   3965113.11046  23469059.528    23469059.2684   23469070.2334
    419725.009 9    322537.01747  21805365.311    21805364.7804   21805373.0154
   1969769.532 9   1406133.80446  23678250.596    23678250.6784   23678260.9174
  -6921196.035 9  -5377820.88848  21499998.421    21499998.6014   21500006.6794
  -6372751.208 8  -4699682.48045  23966559.789    23966559.8964   23966572.5674
    999302.016 9    773078.06948  21013796.364    21013795.8124   21013803.0014
  -6218873.581 9  -4834219.61847  22164269.108    22164268.9764   22164276.9144
 99  5 15 15 46 45.0000000  0  7 27  2 26  4 24  7  9                0.000000092
   5166144.952 9   4008904.04746  23479753.871    23479753.5944   23479764.5094
    437345.277 9    336267.07247  21808718.378    21808717.8294   21808726.0754
   2001154.406 9   1430589.48446  23684222.981    23684223.0634   23684233.3544
  -6962039.404 9  -5409646.86648  21492226.191    21492226.3714   21492234.4614
  -6427369.231 9  -4742241.95245  23956166.396    23956166.4314   23956179.0914
   1022144.745 9    790877.58348  21018143.194    21018142.6434   21018149.8404
  -6253857.475 9  -4861479.78647  22157611.879    22157611.7554   22157619.7004
 99  5 15 15 47  0.0000000  0  7 27  2 26  4 24  7  9                0.000000095
   5222379.928 9   4052723.42546  23490455.116    23490454.8564   23490465.6924
    455017.117 9    350037.31747  21812081.204    21812080.6614   21812088.9314
   2032587.433 9   1455082.68446  23690204.552    23690204.6324   23690214.9474
  -7002799.565 9  -5441408.00748  21484469.773    21484469.9314   21484478.0974
  -6481987.844 9  -4784801.89345  23945772.892    23945772.8674   23945785.4564
   1045035.699 9    808714.68248  21022499.216    21022498.6574   21022505.8544
  -6288755.598 9  -4888673.11247  22150970.956    22150970.8324   22150978.7674
 99  5 15 15 47 15.0000000  0  7 27  2 26  4 24  7  9                0.000000096
   5278652.634 9   4096572.19246  23501163.547    23501163.2934   23501174.1004
    472738.898 9    363846.47747  21815453.515    21815452.9764   21815461.2734
   2064067.468 9   1479612.49946  23696195.066    23696195.1454   23696205.3974
  -7043473.251 9  -5473101.76948  21476729.796    21476729.9504   21476738.1654
  -6536603.345 8  -4827359.40845  23935379.928    23935379.9014   23935392.4814
   1067975.588 9    826589.90448  21026864.545    21026863.9954   21026871.1604
  -6323566.156 9  -4915798.22047  22144346.706    22144346.5884   22144354.5204
 99  5 15 15 47 30.0000000  0  7 27  2 26  4 24  7  9                0.000000093
   5334967.213 9   4140453.60046  23511879.949    23511879.7044   23511890.4504
    490510.113 9    377694.15147  21818835.282    21818834.7554   21818843.0674
   2095593.136 9   1504177.88446  23702194.282    23702194.3724   23702204.6524
  -7084054.581 9  -5504723.56148  21469007.394    21469007.5754   21469015.8134
  -6591213.338 8  -4869912.61945  23924987.954    23924987.9564   23925000.6094
   1090967.268 9    844505.48248  21031239.758    21031239.1964   21031246.3694
  -6358285.157 9  -4942851.97847  22137739.861    22137739.7524   22137747.6584
 99  5 15 15 47 45.0000000  0  7 27  2 26  4 24  7  9                0.000000085
   5391324.294 9   4184368.12046  23522604.447    23522604.2294   23522614.9324
    508330.476 9    391580.12447  21822226.372    21822225.8574   21822234.1814
   2127167.576 9   1528781.26246  23708202.743    23708202.8524   23708213.1074
  -7124538.474 9  -5536269.42448  21461303.496    21461303.6594   21461311.9874
  -6645814.351 8  -4912458.82545  23914597.605    23914597.5694   23914610.4094
   1114012.417 9    862462.72948  21035625.118    21035624.5604   21035631.7154
  -6392907.738 9  -4969830.60647  22131151.373    22131151.2634   22131159.1704
 99  5 15 15 48  0.0000000  0  7 27  2 26  4 24  7  9                0.000000075
   5447733.444 9   4228323.21246  23533338.853    23533338.6384   23533349.2604
    526210.679 9    405512.72747  21825628.875    21825628.3624   21825636.6954
   2158805.736 9   1553434.30646  23714223.327    23714223.4154   23714233.7274
  -7164908.735 9  -5567726.73948  21453621.231    21453621.4174   21453629.7734
  -6700390.895 8  -4954985.96445  23904211.936    23904211.9394   23904224.9034
   1137122.468 9    880470.54948  21040022.856    21040022.2964   21040029.4114
  -6427419.646 9  -4996722.99447  22124583.958    22124583.8594   22124591.7784
 99  5 15 15 48 15.0000000  0  7 27  2 26  4 24  7  9                0.000000056
   5504184.293 9   4272310.80846  23544081.171    23544080.9924   23544091.5484
    544141.309 9    419484.62247  21829040.960    21829040.4204   21829048.7764
   2190500.023 9   1578131.08346  23720254.567    23720254.6994   23720264.9844
  -7205172.564 9  -5599101.13248  21445959.249    21445959.4514   21445967.7924
  -6754948.207 8  -4997498.12245  23893829.991    23893829.9764   23893842.9914
   1160288.313 9    898521.84448  21044431.183    21044430.6144   21044437.7304
  -6461831.820 9  -5023537.66747  22118035.532    22118035.4524   22118043.3744
 99  5 15 15 48 30.0000000  0  7 27  2 26  4 24  7  9                0.000000038
   5560694.466 9   4316344.61246  23554834.777    23554834.6174   23554845.1474
    562146.603 9    433514.69347  21832467.290    21832466.7484   21832475.1074
   2222273.739 9   1602889.74046  23726300.971    23726301.1234   23726311.4094
  -7245308.089 9  -5630375.55148  21438321.671    21438321.8894   21438330.1774
  -6809462.003 8  -5039976.37645  23883456.317    23883456.2984   23883469.3764
   1183532.201 9    916633.95448  21048854.366    21048853.7724   21048860.8904
  -6496125.412 9  -5050259.93247  22111509.649    22111509.5614   22111517.5134
 99  5 15 15 48 45.0000000  0  7 27  2 26  4 24  7  9                0.000000022
   5617258.702 9   4360420.55646  23565598.628    23565598.4254   23565609.0494
    580221.233 9    447598.79747  21835906.781    21835906.2564   21835914.6114
   2254119.814 9   1627704.78646  23732361.151    23732361.2884   23732371.6004
  -7285322.827 9  -5661555.84548  21430707.129    21430707.3204   21430715.5574
  -6863939.166 8  -5082426.07145  23873089.660    23873089.6044   23873102.6904
   1206848.528 9    934802.50548  21053291.346    21053290.7604   21053297.8764
  -6530305.630 9  -5076893.86747  22105005.375    22105005.2834   22105013.2664
 99  5 15 15 49  0.0000000  0  7 27  2 26  4 24  7  9                0.000000006
   5673877.211 9   4404538.78646  23576372.848    23576372.7074   23576383.2614
    598360.782 9    461733.48747  21839358.709    21839358.1574   21839366.4944
   2286033.410 9   1652572.44446  23738434.220    23738434.3234   23738444.6004
  -7325219.686 9  -5692644.29248  21423115.018    21423115.2264   21423123.3754
  -6918386.549 8  -5124852.55245  23862728.728    23862728.5974   23862741.7854
   1230232.005 9    953023.38348  21057741.077    21057740.5004   21057747.6264
  -6564377.512 9  -5103443.37847  22098521.714    22098521.6024   22098529.5894
 99  5 15 15 49 15.0000000  0  7 27  2 26  4 24  7  9               -0.000000008
   5730552.111 9   4448700.96746  23587157.806    23587157.6804   23587168.2524
    616568.079 9    475920.95947  21842823.515    21842822.9684   21842831.2694
   2318014.150 9   1677492.42746  23744520.033    23744520.1204   23744530.4174
  -7364997.936 9  -5723640.32148  21415545.494    21415545.6764   21415553.7584
  -6972803.346 8  -5167255.20545  23852373.636    23852373.4754   23852386.5334
   1253678.200 9    971293.13348  21062202.755    21062202.1914   21062209.3264
  -6598341.628 9  -5129908.91847  22092058.552    22092058.4364   22092066.4264
 99  5 15 15 49 30.0000000  0  7 27  2 26  4 24  7  9               -0.000000019
   5787283.849 9   4492907.43746  23597953.578    23597953.4074   23597963.9854
    634846.894 9    490164.17047  21846301.933    21846301.3504   21846309.6744
   2350061.657 9   1702464.43346  23750618.519    23750618.6384   23750628.9434
  -7404655.505 9  -5754542.30448  21407998.951    21407999.1214   21408007.1364
  -7027188.814 8  -5209633.44645  23842024.506    23842024.3504   23842037.1634
   1277188.312 9    989612.69348  21066676.600    21066676.0344   21066683.1774
  -6632196.590 9  -5156289.39947  22085616.183    22085616.0664   22085624.0464
 99  5 15 15 49 45.0000000  0  7 27  2 26  4 24  7  9               -0.000000028
   5844064.530 9   4537152.03745  23608758.584    23608758.3774   23608769.0834
    653191.959 9    504459.00347  21849792.934    21849792.3644   21849800.6514
   2382173.004 9   1727486.18546  23756729.170    23756729.3184   23756739.5694
  -7444202.298 9  -5785357.96348  21400473.451    21400473.6014   21400481.5884
  -7081550.741 8  -5251993.34545  23831679.850    23831679.7114   23831692.2064
   1300754.638 9   1007976.05448  21071161.114    21071160.5294   21071167.7244
  -6665951.301 9  -5182591.75947  22079192.896    22079192.7634   22079200.7214
 99  5 15 15 50  0.0000000  0  7 27  2 26  4 24  7  9               -0.000000031
   5900896.417 8   4581436.54445  23619573.325    23619573.1304   23619583.9334
    671610.218 9    518810.86347  21853297.833    21853297.2574   21853305.5694
   2414351.689 9   1752560.41846  23762852.686    23762852.8394   23762863.0714
  -7483637.986 9  -5816087.05448  21392969.100    21392969.2464   21392977.2114
  -7135886.234 8  -5294332.64145  23821340.191    23821340.0504   23821352.3294
   1324381.323 9   1026386.44348  21075657.120    21075656.5274   21075663.7434
  -6699602.961 9  -5208813.82847  22072789.218    22072789.0764   22072796.9904
 99  5 15 15 50 15.0000000  0  7 27  2 26  4 24  7  9               -0.000000025
   5957774.974 8   4625757.40845  23630396.902    23630396.7964   23630407.6764
    690097.961 9    533216.86847  21856815.953    21856815.3914   21856823.7294
   2446589.973 9   1777681.08446  23768987.514    23768987.6624   23768997.8744
  -7522971.294 9  -5846736.36848  21385484.167    21385484.3074   21385492.2954
  -7190205.024 8  -5336658.91845  23811003.631    23811003.4354   23811015.7524
   1348063.487 9   1044840.06248  21080163.672    21080163.0974   21080170.3424
  -6733157.323 9  -5234960.08247  22066404.069    22066403.9274   22066411.7984
 99  5 15 15 50 30.0000000  0  7 27  2 26  4 24  7  9               -0.000000017
   6014687.997 8   4670105.13645  23641227.119    23641227.0284   23641237.9044
    708640.748 9    547665.77247  21860344.566    21860343.9784   21860352.3534
   2478870.855 9   1802834.94646  23775130.468    23775130.6394   23775140.8104
  -7562217.899 9  -5877318.11348  21378015.714    21378015.8784   21378023.8944
  -7244522.130 8  -5378983.89045  23800667.331    23800667.1824   23800679.5984
   1371789.535 9   1063327.88448  21084678.593    21084678.0214   21084685.2994
  -6766625.459 9  -5261039.14547  22060035.319    22060035.1754   22060043.0264
 99  5 15 15 50 45.0000000  0  7 27  2 26  4 24  7  9               -0.000000001
   6071638.834 8   4714482.33945  23652064.643    23652064.5064   23652075.3144
    727240.593 9    562159.13847  21863883.990    21863883.4194   21863891.8474
   2511191.998 9   1828020.17046  23781280.996    23781281.1814   23781291.4254
  -7601378.698 9  -5907832.99648  21370563.597    21370563.7774   21370571.8134
  -7298838.565 8  -5421308.32545  23790331.090    23790330.8584   23790343.5264
   1395561.097 9   1081851.17148  21089202.182    21089201.5904   21089208.9364
  -6800001.339 9  -5287046.31447  22053684.098    22053683.9624   22053691.8014
 99  5 15 15 51  0.0000000  0  7 27  2 26  4 24  7  9                0.000000012
   6128613.311 8   4758877.93145  23662906.597    23662906.4304   23662917.3764
    745883.718 9    576686.21247  21867431.668    21867431.1024   21867439.5814
   2543537.969 9   1853224.75046  23787436.254    23787436.4404   23787446.7784
  -7640466.367 9  -5938290.90248  21363125.412    21363125.5964   21363133.6694
  -7353168.732 8  -5463643.46945  23779992.228    23779991.9654   23780004.8274
   1419364.522 9   1100399.27648  21093731.798    21093731.2044   21093738.6144
  -6833298.149 9  -5312991.87947  22047347.932    22047347.7794   22047355.6194
 99  5 15 15 51 15.0000000  0  7 27  2 26  4 24  7  9                0.000000028
   6185617.148 8   4803296.39245  23673754.072    23673753.9214   23673765.0224
    764580.466 9    591255.08347  21870989.524    21870988.9494   21870997.4974
   2575916.357 9   1878454.59046  23793597.708    23793597.8954   23793608.3034
  -7679472.007 9  -5968684.88048  21355702.845    21355703.0444   21355711.1094
  -7407503.190 8  -5505981.94645  23769652.629    23769652.4624   23769665.1854
   1443209.144 9   1118979.48948  21098269.240    21098268.6434   21098276.1204
  -6866504.274 9  -5338866.77647  22041028.991    22041028.8534   22041036.7124
 99  5 15 15 51 30.0000000  0  7 27  2 26  4 24  7  9                0.000000045
   6242644.757 8   4847733.40145  23684606.234    23684605.9984   23684617.1154
    783329.995 9    605865.07647  21874557.465    21874556.8894   21874565.4844
   2608326.856 9   1903709.46146  23799765.258    23799765.4254   23799775.8664
  -7718395.877 9  -5999015.14448  21348295.876    21348296.0824   21348304.1554
  -7461841.374 8  -5548323.32945  23759312.362    23759312.1814   23759325.0094
   1467096.915 9   1137593.32648  21102814.906    21102814.3164   21102821.8424
  -6899616.247 9  -5364668.30647  22034728.000    22034727.8554   22034735.7354
 99  5 15 15 51 45.0000000  0  7 27  2 26  4 24  7  9                0.000000058
   6299690.604 8   4892184.59845  23695461.849    23695461.5434   23695472.7144
    802126.953 9    620512.02547  21878134.422    21878133.8534   21878142.4584
   2640766.700 9   1928987.19446  23805938.407    23805938.5914   23805949.0594
  -7757239.122 9  -6029282.58248  21340904.261    21340904.4394   21340912.5004
  -7516186.230 8  -5590669.90745  23748970.835    23748970.6404   23748983.5124
   1491027.691 9   1156240.67148  21107368.775    21107368.1934   21107375.7484
  -6932635.406 9  -5390397.52047  22028444.662    22028444.5154   22028452.4024
 99  5 15 15 52  0.0000000  0  7 27  2 26  4 24  7  9                0.000000070
   6356761.548 8   4936655.35245  23706322.133    23706321.8554   23706333.1204
    820975.833 9    635199.44647  21881721.262    21881720.6804   21881729.2884
   2673241.017 9   1954291.78446  23812118.074    23812118.2934   23812128.7884
  -7795994.038 9  -6059481.19548  21333529.470    21333529.6554   21333537.6704
  -7570530.144 8  -5633015.74345  23738629.496    23738629.3494   23738642.0804
   1515006.272 9   1174925.27348  21111931.753    21111931.1644   21111938.7324
  -6965553.890 9  -5416048.28347  22022180.494    22022180.3224   22022188.2334
 99  5 15 15 52 15.0000000  0  7 27  2 26  4 24  7  9                0.000000075
   6413853.702 8   4981142.65145  23717186.490    23717186.2234   23717197.4634
    839873.137 9    649924.59047  21885317.338    21885316.7514   21885325.3474
   2705742.932 9   1979617.86246  23818303.022    23818303.2414   23818313.7454
  -7834661.870 9  -6089611.94248  21326171.230    21326171.4184   21326179.4134
  -7624876.845 8  -5675363.74745  23728287.737    23728287.5684   23728300.1904
   1539029.402 9   1193644.58248  21116503.205    21116502.6294   21116510.2124
  -6998373.822 9  -5441622.24947  22015935.023    22015934.8754   22015942.7874
 99  5 15 15 52 30.0000000  0  7 27  2 26  4 24  7  9                0.000000081
   6470979.396 8   5025656.09445  23728057.203    23728057.0174   23728068.2704
    858827.826 9    664694.45147  21888924.295    21888923.7134   21888932.3164
   2738283.876 9   2004974.41346  23824495.420    23824495.6644   23824506.1634
  -7873228.959 9  -6119664.21248  21318832.181    21318832.3794   21318840.2964
  -7679211.929 8  -5717702.70145  23717948.206    23717947.9464   23717960.5414
   1563103.935 9   1212403.94448  21121084.468    21121083.8784   21121091.4604
  -7031083.946 9  -5467110.65847  22009710.505    22009710.3744   22009718.2784
 99  5 15 15 52 45.0000000  0  7 27  2 26  4 24  7  9                0.000000081
   6528130.963 8   5070189.68845  23738932.841    23738932.6694   23738944.0064
    877834.610 9    679504.90247  21892541.189    21892540.6194   21892549.2144
   2770857.422 9   2030356.31346  23830694.018    23830694.2534   23830704.7634
  -7911700.589 9  -6149642.08448  21311511.317    21311511.5074   21311519.3684
  -7733539.454 8  -5760035.75145  23707610.093    23707609.8034   23707622.3684
   1587220.854 9   1231196.33748  21125673.774    21125673.2014   21125680.7634
  -7063694.986 9  -5492521.85547  22003504.806    22003504.6904   22003512.5914
 99  5 15 15 53  0.0000000  0  7 27  2 26  4 24  7  9                0.000000082
   6585321.266 8   5114753.47545  23749815.824    23749815.6644   23749826.8964
    896908.556 9    694367.69547  21896170.862    21896170.2874   21896178.8734
   2803479.910 9   2055776.36046  23836901.982    23836902.1854   23836912.6784
  -7950060.891 9  -6179533.20948  21304211.575    21304211.7714   21304219.6264
  -7787842.816 8  -5802349.97245  23697276.550    23697276.1874   23697288.7454
   1611390.505 9   1250029.82248  21130273.134    21130272.5474   21130280.1014
  -7096197.759 9  -5517848.68947  21997319.742    21997319.6234   21997327.5514
 99  5 15 15 53 15.0000000  0  7 27  2 26  4 24  7  9                0.000000080
   6642550.611 8   5159347.67945  23760706.236    23760706.1254   23760717.3994
    916048.368 9    709281.79947  21899813.056    21899812.5054   21899821.0624
   2836153.604 9   2081236.30146  23843119.635    23843119.8024   23843130.3744
  -7988305.841 9  -6209334.45248  21296933.807    21296933.9994   21296941.8764
  -7842118.438 8  -5844642.59445  23686948.265    23686947.9374   23686960.4394
   1635612.126 9   1268903.80048  21134882.343    21134881.7564   21134889.3024
  -7128593.164 9  -5543091.85647  21991155.123    21991155.0004   21991162.9154
 99  5 15 15 53 30.0000000  0  7 27  2 26  4 24  7  9                0.000000076
   6699819.429 8   5203972.63045  23771604.158    23771604.1014   23771615.3274
    935250.335 9    724244.34047  21903467.134    21903466.5954   21903475.1184
   2868876.641 9   2106734.70346  23849346.684    23849346.8914   23849357.4954
  -8026436.234 9  -6239046.42848  21289677.788    21289678.0034   21289685.9174
  -7896368.559 9  -5886915.34945  23676624.780    23676624.4444   23676637.0144
   1659882.486 9   1287815.75848  21139500.853    21139500.2784   21139507.8054
  -7160883.803 9  -5568253.38947  21985010.410    21985010.2944   21985018.2054
 99  5 15 15 53 45.0000000  0  7 27  2 26  4 24  7  9                0.000000069
   6757131.839 8   5248631.57545  23782510.402    23782510.2914   23782521.5804
    954518.426 9    739258.40547  21907133.768    21907133.2174   21907141.7074
   2901651.122 9   2132273.16946  23855583.469    23855583.6234   23855594.3654
  -8064447.285 9  -6268665.41048  21282444.515    21282444.7204   21282452.6914
  -7950588.838 8  -5929164.85145  23666306.925    23666306.5974   23666319.2364
   1684203.165 9   1306766.92448  21144128.942    21144128.3644   21144135.8894
  -7193070.088 9  -5593333.61247  21978885.594    21978885.4544   21978893.3784
 99  5 15 15 54  0.0000000  0  7 27  2 26  4 24  7  9                0.000000067
   6814495.867 8   5293330.71445  23793426.479    23793426.3534   23793437.7014
    973857.463 9    754327.75747  21910813.914    21910813.3694   21910821.8554
   2934476.748 9   2157851.49546  23861829.987    23861830.1494   23861840.9684
  -8102338.250 9  -6298190.81148  21275234.085    21275234.2824   21275242.2924
  -8004774.560 8  -5971387.42945  23655995.612    23655995.3164   23656007.9514
   1708573.306 9   1325756.63648  21148766.421    21148765.8444   21148773.3494
  -7225150.878 9  -5618331.62347  21972780.818    21972780.6714   21972788.5914
 99  5 15 15 54 15.0000000  0  7 27  2 26  4 24  7  9                0.000000068
   6871905.559 8   5338065.43746  23804351.297    23804351.1804   23804362.5214
    993263.846 9    769449.58147  21914506.865    21914506.3234   21914514.7934
   2967346.797 9   2183464.44846  23868085.047    23868085.1984   23868096.0634
  -8140115.609 9  -6327627.69248  21268045.265    21268045.4594   21268053.4674
  -8058930.157 8  -6013586.53045  23645689.985    23645689.7304   23645702.4044
   1732988.924 9   1344781.78248  21153412.599    21153412.0284   21153419.5324
  -7257131.349 9  -5643251.47047  21966695.155    21966695.0044   21966702.9284
 99  5 15 15 54 30.0000000  0  7 27  2 26  4 24  7  9                0.000000067
   6929350.774 9   5382827.83446  23815282.868    23815282.7524   23815294.0974
   1012727.867 9    784616.31947  21918210.767    21918210.2094   21918218.6964
   3000253.351 9   2209105.82846  23874347.026    23874347.2034   23874358.0584
  -8177790.052 9  -6356984.38348  21260876.058    21260876.2524   21260884.2334
  -8113063.733 8  -6055768.47345  23635388.569    23635388.4024   23635401.0544
   1757440.400 9   1363834.86648  21158065.579    21158065.0064   21158072.4904
  -7289019.846 9  -5668099.65147  21960626.992    21960626.8444   21960634.7554
 99  5 15 15 54 45.0000000  0  7 27  2 26  4 24  7  9                0.000000066
   6986832.650 9   5427618.79346  23826221.450    23826221.3204   23826232.6004
   1032251.943 9    799829.85547  21921926.136    21921925.5964   21921934.0584
   3033200.520 9   2234778.87846  23880616.774    23880616.9824   23880627.7804
  -8215359.462 9  -6386259.23348  21253726.856    21253727.0414   21253734.9824
  -8167173.535 9  -6097931.89445  23625091.744    23625091.5104   23625104.1554
   1781933.175 9   1382920.13448  21162726.432    21162725.8504   21162733.3354
  -7320813.888 9  -5692874.22147  21954576.772    21954576.6234   21954584.5324
 99  5 15 15 55  0.0000000  0  7 27  2 26  4 24  7  9                0.000000067
   7044352.097 9   5472439.02946  23837167.154    23837167.0324   23837178.3024
   1051838.695 9    815092.22847  21925653.452    21925652.8764   21925661.3384
   3066191.320 9   2260485.90846  23886894.787    23886895.0064   23886905.7934
  -8252821.090 9  -6415450.09648  21246598.137    21246598.3064   21246606.2064
  -8221256.625 9  -6140074.49345  23614800.036    23614799.7344   23614812.3744
   1806471.886 9   1402041.19148  21167396.042    21167395.4474   21167402.9164
  -7352507.579 9  -5717570.59847  21948545.654    21948545.4984   21948553.3964
 99  5 15 15 55 15.0000000  0  7 27  2 26  4 24  7  9                0.000000069
   7101909.617 9   5517288.94046  23848120.107    23848119.9894   23848131.3214
   1071487.552 9    830402.99647  21929392.567    21929391.9684   21929400.4374
   3099224.592 9   2286226.04446  23893180.919    23893181.1044   23893191.9204
  -8290171.590 9  -6444554.35348  21239490.582    21239490.7574   21239498.5914
  -8275314.016 9  -6182197.07445  23604513.306    23604513.0254   23604525.5514
   1831057.381 9   1421198.71348  21172074.539    21172073.9384   21172081.4134
  -7384093.211 9  -5742182.77547  21942535.132    21942534.9594   21942542.8394
 99  5 15 15 55 30.0000000  0  7 27  2 26  4 24  7  9                0.000000071
   7159504.346 9   5562167.84346  23859080.167    23859080.0324   23859091.3234
   1091197.877 9    845761.65947  21933143.333    21933142.7514   21933151.2124
   3132295.419 9   2311995.43046  23899474.159    23899474.3784   23899485.1564
  -8327411.845 9  -6473572.71148  21232404.022    21232404.2124   21232411.9694
  -8329351.013 9  -6224303.75145  23594230.429    23594230.1444   23594242.5774
   1855691.802 9   1440394.35648  21176762.334    21176761.7334   21176769.2084
  -7415568.811 9  -5766709.21247  21936545.519    21936545.3464   21936553.2154
 99  5 15 15 55 45.0000000  0  7 27  2 26  4 24  7  9                0.000000075
   7217133.169 9   5607073.32146  23870046.704    23870046.6204   23870057.8534
   1110969.970 9    861168.43947  21936905.870    21936905.2664   21936913.7364
   3165401.285 9   2337792.12146  23905774.105    23905774.2774   23905785.0544
  -8364545.615 9  -6502508.09848  21225337.693    21225337.8744   21225345.5914
  -8383369.918 9  -6266396.32146  23583951.005    23583950.6814   23583963.0374
   1880374.469 9   1459627.58348  21181459.326    21181458.7114   21181466.1924
  -7446934.615 9  -5791150.09447  21930576.823    21930576.6484   21930584.4774
 99  5 15 15 56  0.0000000  0  7 27  2 26  4 24  7  9                0.000000073
   7274783.360 8   5651995.45246  23881017.236    23881017.1164   23881028.5314
   1130792.039 9    876614.18047  21940677.912    21940677.3154   21940685.8054
   3198530.766 9   2363607.22346  23912078.542    23912078.6524   23912089.4844
  -8401586.594 9  -6531371.16948  21218289.036    21218289.2244   21218296.8974
  -8437380.400 9  -6308482.34446  23573673.134    23573672.8364   23573685.1694
   1905094.824 9   1478890.18248  21186163.429    21186162.8454   21186170.3264
  -7478202.146 9  -5815514.39447  21924626.810    21924626.6174   21924634.4374
 99  5 15 15 56 15.0000000  0  7 27  2 26  4 24  7  9                0.000000074
   7332468.582 9   5696944.87346  23891994.419    23891994.2264   23892005.8634
   1150676.645 9    892108.64547  21944461.827    21944461.2264   21944469.7534
   3231700.323 9   2389453.54546  23918390.545    23918390.6824   23918401.5364
  -8438517.589 9  -6560148.54148  21211261.292    21211261.4794   21211269.1014
  -8491366.982 9  -6350549.75046  23563399.795    23563399.5384   23563411.8354
   1929871.035 9   1498196.31348  21190878.180    21190877.5914   21190885.1064
  -7509353.980 9  -5839788.55147  21918698.804    21918698.6114   21918706.3684
 99  5 15 15 56 30.0000000  0  7 27  2 26  4 24  7  9                0.000000074
   7390183.709 9   5741917.58946  23902977.301    23902977.1334   23902988.7814
   1170618.958 9    907648.08147  21948256.709    21948256.1384   21948264.6794
   3264910.246 9   2415331.32846  23924710.174    23924710.3084   23924721.2064
  -8475338.685 9  -6588840.27948  21204254.456    21204254.6204   21204262.2374
  -8545333.921 8  -6392601.85146  23553130.134    23553129.8784   23553142.2114
   1954700.143 9   1517543.65748  21195603.026    21195602.4404   21195609.9524
  -7540391.407 9  -5863973.55147  21912792.573    21912792.3994   21912800.1004
 99  5 15 15 56 45.0000000  0  7 27  2 26  4 24  7  9                0.000000075
   7447933.044 9   5786916.96746  23913966.742    23913966.5854   23913978.1824
   1190622.435 9    923235.16947  21952063.261    21952062.6734   21952071.2374
   3298164.598 9   2441243.72346  23931038.244    23931038.4264   23931049.3124
  -8512046.115 9  -6617443.45148  21197269.240    21197269.4264   21197277.0284
  -8599277.458 8  -6434635.72646  23542864.900    23542864.6944   23542877.0634
   1979583.481 9   1536933.25148  21200338.163    21200337.5724   21200345.0944
  -7571313.348 9  -5888068.56147  21906908.336    21906908.1834   21906915.8164
 99  5 15 15 57  0.0000000  0  7 27  2 26  4 24  7  9                0.000000070
   7505711.039 9   5831938.68046  23924961.701    23924961.5634   23924973.1124
   1210683.950 9    938867.49347  21955880.862    21955880.2804   21955888.8514
   3331457.280 9   2467186.00346  23937373.624    23937373.8414   23937384.7964
  -8548641.553 9  -6645959.34348  21190305.360    21190305.5374   21190313.1674
  -8653201.529 8  -6476654.44146  23532603.367    23532603.2484   23532615.5744
   2004515.284 9   1556360.62148  21205082.559    21205081.9574   21205089.4884
  -7602124.941 9  -5912077.58747  21901045.081    21901044.9424   21901052.5184
 99  5 15 15 57 15.0000000  0  7 27  2 26  4 24  7  9                0.000000068
   7563528.775 9   5876991.34845  23935964.220    23935964.0164   23935975.4384
   1230818.262 9    954556.53047  21959712.299    21959711.7184   21959720.2974
   3364798.216 9   2493165.87246  23943718.264    23943718.4584   23943729.4144
  -8585111.067 9  -6674377.12148  21183365.441    21183365.6214   21183373.2764
  -8707092.543 8  -6518647.40146  23522348.140    23522348.0784   23522360.3814
   2029507.006 9   1575834.67148  21209838.336    21209837.7254   21209845.2604
  -7632812.839 9  -5935990.23647  21895205.344    21895205.2054   21895212.7634
 99  5 15 15 57 30.0000000  0  7 27  2 26  4 24  7  9                0.000000064
   7621375.095 8   5922066.30545  23946972.177    23946971.9264   23946983.2914
   1251014.427 9    970293.77047  21963555.513    21963554.9374   21963563.5394
   3398176.888 9   2519175.14846  23950070.111    23950070.3314   23950081.2124
  -8621468.943 9  -6702707.90448  21176446.769    21176446.9414   21176454.6454
  -8760963.175 8  -6560624.47745  23512096.800    23512096.6854   23512109.1364
   2054548.487 9   1595347.50148  21214603.615    21214602.9964   21214610.5414
  -7663392.213 9  -5959818.30947  21889386.299    21889386.1734   21889393.6884
 99  5 15 15 57 45.0000000  0  7 27  2 26  4 24  7  9                0.000000066
   7679259.240 8   5967170.71845  23957987.270    23957987.0204   23957998.2894
   1271281.835 9    986086.53447  21967412.298    21967411.7274   21967420.3334
   3431604.693 9   2545222.71946  23956431.291    23956431.4584   23956442.3724
  -8657709.309 9  -6730947.11548  21169550.481    21169550.6554   21169558.3994
  -8814799.939 8  -6602575.16246  23501851.937    23501851.8574   23501864.3074
   2079650.045 9   1614907.14648  21219380.283    21219379.6594   21219387.2124
  -7693858.821 9  -5983558.51347  21883588.699    21883588.5384   21883596.0774
 99  5 15 15 58  0.0000000  0  7 27  2 26  4 24  7  9                0.000000074
   7737179.292 8   6012303.10445  23969009.092    23969008.8804   23969020.2294
   1291620.779 9   1001935.02047  21971282.690    21971282.1484   21971290.7424
   3465084.326 9   2571310.67546  23962802.351    23962802.4674   23962813.3144
  -8693830.665 9  -6759093.60348  21162676.784    21162676.9644   21162684.7444
  -8868598.524 8  -6644496.09545  23491614.398    23491614.3044   23491626.6904
   2104809.434 9   1634511.84448  21224167.964    21224167.3454   21224174.8954
  -7724213.206 9  -6007211.27547  21877812.473    21877812.2764   21877819.8364
 99  5 15 15 58 15.0000000  0  7 27  2 26  4 24  7  9                0.000000079
   7795121.243 8   6057452.55045  23980035.130    23980034.9664   23980046.1794
   1312017.417 9   1017828.47547  21975164.079    21975163.5304   21975172.0874
   3498601.572 9   2597427.94246  23969180.541    23969180.6414   23969191.4734
  -8729846.532 9  -6787157.89048  21155823.167    21155823.3584   21155831.1604
  -8922371.080 8  -6686396.75545  23481381.880    23481381.7084   23481394.1084
   2130010.586 9   1654149.08748  21228963.633    21228963.0244   21228970.5794
  -7754468.212 9  -6030786.61147  21872055.140    21872054.9514   21872062.4974
 99  5 15 15 58 30.0000000  0  7 27  2 26  4 24  7  9                0.000000079
   7853084.257 8   6102618.41545  23991065.230    23991065.0914   23991076.0294
   1332474.058 9   1033768.67947  21979056.906    21979056.3564   21979064.8614
   3532155.888 9   2623574.09246  23975565.834    23975565.9104   23975576.7844
  -8765753.323 9  -6815137.18448  21148990.310    21148990.4894   21148998.3064
  -8976116.654 8  -6728276.38845  23471154.455    23471154.2284   23471166.5174
   2155252.109 9   1673817.79648  21233766.956    21233766.3494   21233773.9064
  -7784620.558 9  -6054281.93947  21866317.342    21866317.1634   21866324.7274
 99  5 15 15 58 45.0000000  0  7 27  2 26  4 24  7  9                0.000000078
   7911072.313 8   6147803.79745  24002100.012    24002099.8134   24002110.7724
   1352996.154 9   1049759.88647  21982962.186    21982961.6224   21982970.1174
   3565750.617 9   2649751.74146  23981958.813    23981958.8954   23981969.7264
  -8801549.746 9  -6843030.47748  21142178.456    21142178.6254   21142186.4364
  -9029832.714 8  -6770133.01745  23460932.678    23460932.4744   23460944.6804
   2180534.732 9   1693518.52948  21238578.112    21238577.4994   21238585.0574
  -7814670.106 9  -6077697.16047  21860599.098    21860598.9524   21860606.5064
 99  5 15 15 59  0.0000000  0  7 27  2 26  4 24  7  9                0.000000078
   7969088.408 8   6193011.04445  24013140.108    24013139.7804   24013151.1614
   1373589.329 9   1065806.48447  21986880.980    21986880.4294   21986888.8844
   3599387.736 9   2675962.40446  23988359.834    23988359.9544   23988370.7264
  -8837232.006 9  -6870834.81248  21135388.303    21135388.4654   21135396.2664
  -9083515.316 9  -6811963.59045  23450717.235    23450717.0174   23450729.1664
   2205861.904 9   1713253.97748  21243397.732    21243397.1224   21243404.6874
  -7844615.197 9  -6101031.00147  21854900.728    21854900.5774   21854908.1534
 99  5 15 15 59 15.0000000  0  7 27  2 26  4 24  7  9                0.000000075
   8027123.702 8   6238233.24645  24024183.898    24024183.4534   24024195.1154
   1394243.564 9   1081900.65247  21990811.394    21990810.8184   21990819.2644
   3633055.866 9   2702197.23746  23994766.705    23994766.7884   23994777.5544
  -8872809.731 9  -6898557.70048  21128618.045    21128618.2224   21128625.9744
  -9137175.641 9  -6853776.80745  23440505.902    23440505.6664   23440517.8274
   2231223.657 9   1733016.36348  21248223.938    21248223.3214   21248230.8924
  -7874462.944 9  -6124288.98047  21849220.880    21849220.7494   21849228.3284
 99  5 15 15 59 30.0000000  0  7 27  2 26  4 24  7  9                0.000000075
   8085186.305 8   6283476.74845  24035232.960    24035232.5344   24035244.1664
   1414960.171 9   1098043.42547  21994753.727    21994753.1494   21994761.5604
   3666760.061 9   2728460.18146  24001180.452    24001180.5184   24001191.3094
  -8908280.489 9  -6926197.23748  21121868.153    21121868.3254   21121876.0524
  -9190808.226 8  -6895568.41845  23430299.865    23430299.6614   23430311.8134
   2256624.964 9   1752809.57348  21253057.674    21253057.0654   21253064.6464
  -7904208.673 9  -6147467.47247  21843560.448    21843560.3084   21843567.9204
 99  5 15 15 59 45.0000000  0  7 27  2 26  4 24  7  9                0.000000068
   8143266.084 8   6328733.61045  24046285.326    24046284.8234   24046296.5974
   1435723.491 9   1114222.60247  21998704.891    21998704.3144   21998712.6834
   3700486.868 9   2754740.73546  24007598.499    24007598.5754   24007609.4794
  -8943654.985 9  -6953761.75548  21115136.547    21115136.7254   21115144.4324
  -9244424.938 8  -6937347.66445  23420096.862    23420096.6644   23420108.8334
   2282050.495 9   1772621.66148  21257895.977    21257895.3854   21257902.9564
  -7933865.520 9  -6170576.69947  21837916.942    21837916.8254   21837924.4184
 99  5 15 16  0  0.0000000  0  7 27  2 26  4 24  7  9                0.000000058
   8201372.859 9   6374011.51345  24057342.827    24057342.2384   24057354.1974
   1456546.571 9   1130448.35047  22002667.447    22002666.8614   22002675.2294
   3734248.858 8   2781048.71845  24014023.262    24014023.3974   24014034.2474
  -8978916.169 9  -6981237.98148  21108426.516    21108426.6904   21108434.3994
  -9298012.651 8  -6979104.30245  23409899.358    23409899.2144   23409911.3524
   2307510.463 9   1792460.58948  21262740.877    21262740.2914   21262747.8554
  -7963417.930 9  -6193604.55147  21832293.325    21832293.1984   21832300.7454
 99  5 15 16  0 15.0000000  0  8 27  2 26  4 24  8  7  9             0.000000053
   8259519.764 9   6419320.68145  24068407.953    24068407.4184   24068419.3764
   1477441.573 9   1146730.13647  22006643.689    22006643.0984   22006651.4764
   3768057.638 8   2807393.15545  24020456.909    24020457.0244   24020467.9444
  -9014050.852 9  -7008615.63748  21101740.558    21101740.7494   21101748.4574
  -9351560.164 8  -7020829.63445  23399709.529    23399709.4194   23399721.6344
  -2899750.899 8  -2237622.50845  24766815.343    24766814.8804   24766826.2304
   2333016.424 9   1812335.35048  21267594.534    21267593.9314   21267601.5194
  -7992849.383 9  -6216538.16047  21826692.694    21826692.5554   21826700.1244
 99  5 15 16  0 30.0000000  0  8 27  2 26  4 24  8  7  9             0.000000044
   8317695.163 9   6464652.02745  24079478.478    24079477.9444   24079490.0764
   1498394.387 9   1163056.96747  22010630.925    22010630.3284   22010638.7044
   3801896.516 8   2833761.03645  24026896.261    24026896.4154   24026907.2914
  -9049071.442 9  -7035904.39348  21095076.306    21095076.5034   21095084.2444
  -9405083.114 9  -7062535.82545  23389524.386    23389524.2794   23389536.5844
  -2954420.291 8  -2280222.02445  24756412.066    24756411.6634   24756422.9594
   2358555.806 9   1832236.15048  21272454.542    21272453.9474   21272461.5114
  -8022172.589 9  -6239387.40647  21821112.691    21821112.5384   21821120.1344
 99  5 15 16  0 45.0000000  0  8 27  2 26  4 24  8  7  9             0.000000036
   8375905.281 9   6510010.44046  24090555.620    24090555.0954   24090567.2674
   1519407.069 9   1179430.45447  22014629.532    22014628.9304   22014637.3544
   3835770.564 8   2860156.31945  24033342.260    24033342.4744   24033353.3484
  -9083974.016 9  -7063101.18748  21088434.539    21088434.7604   21088442.5484
  -9458580.670 9  -7104222.21546  23379344.144    23379344.0774   23379356.2854
  -3009062.192 8  -2322800.11445  24746014.077    24746013.6314   24746024.8604
   2384134.459 9   1852167.54848  21277322.004    21277321.4074   21277328.9604
  -8051385.164 9  -6262150.45247  21815553.744    21815553.6064   21815561.1914
 99  5 15 16  1  0.0000000  0  8 27  2 26  4 24  8  7  9             0.000000033
   8434153.048 9   6555398.18146  24101639.946    24101639.5014   24101651.4704
   1540482.658 9   1195852.95947  22018640.067    22018639.4734   22018647.9624
   3869680.681 8   2886579.71345  24039795.122    24039795.3064   24039806.2774
  -9118757.944 9  -7090205.51948  21081815.341    21081815.5534   21081823.4214
  -9512050.175 9  -7145886.74646  23369169.277    23369169.1514   23369181.2964
  -3063672.518 8  -2365353.60445  24735622.122    24735621.7344   24735632.5914
   2409757.266 9   1872133.36448  21282197.897    21282197.2814   21282204.8564
  -8080484.281 9  -6284825.08747  21810016.366    21810016.2104   21810023.8564
 99  5 15 16  1 15.0000000  0  8 27  2 26  4 24  8  7  9             0.000000028
   8492429.898 9   6600808.59546  24112729.818    24112729.3844   24112741.2114
   1561613.918 9   1212318.85347  22022661.205    22022660.5994   22022669.1514
   3903617.717 8   2913024.08745  24046253.090    24046253.2454   24046264.3474
  -9153429.060 9  -7117221.94848  21075217.611    21075217.8204   21075225.7684
  -9565496.390 9  -7187533.12646  23358998.862    23358998.7214   23359010.7364
  -3118256.704 8  -2407886.71745  24725235.105    24725234.7774   24725245.4514
   2435419.237 9   1892129.69348  21287081.211    21287080.6014   21287088.1404
  -8109473.062 9  -6307413.73747  21804499.981    21804499.8384   21804507.4654
 99  5 15 16  1 30.0000000  0  8 27  2 26  4 24  8  7  9             0.000000030
   8550748.220 9   6646251.31245  24123827.506    24123827.1024   24123838.8774
   1582811.516 9   1228836.42947  22026694.969    22026694.3574   22026702.9724
   3937594.568 8   2939499.46745  24052718.644    24052718.7804   24052729.8934
  -9187973.577 9  -7144139.73548  21068643.941    21068644.1614   21068652.1574
  -9618902.197 9  -7229148.01446  23348836.134    23348835.9974   23348847.8934
  -3172800.083 8  -2450388.04345  24714855.805    24714855.3824   24714866.1504
   2461135.120 9   1912168.02348  21291974.785    21291974.1834   21291981.7024
  -8138335.681 9  -6329904.09947  21799007.615    21799007.4714   21799015.0984
 99  5 15 16  1 45.0000000  0  8 27  2 26  4 24  8  7  9             0.000000024
   8609088.548 8   6691711.17945  24134929.337    24134928.9474   24134940.6744
   1604061.853 9   1245395.10947  22030738.754    22030738.1574   22030746.8254
   3971594.917 8   2965993.18745  24059188.698    24059188.8404   24059200.0674
  -9222405.513 9  -7170969.79348  21062091.757    21062091.9674   21062099.9844
  -9672281.107 9  -7270741.93146  23338678.482    23338678.3294   23338690.1284
  -3227318.891 7  -2492870.21045  24704481.182    24704480.7244   24704491.5784
   2486890.119 9   1932236.84348  21296875.803    21296875.1904   21296882.7204
  -8167090.390 9  -6352310.36447  21793535.761    21793535.6294   21793543.2304
 99  5 15 16  2  0.0000000  0  8 27  2 26  4 24  8  7  9             0.000000027
   8667469.436 8   6737202.65045  24146038.880    24146038.4754   24146050.3074
   1625391.957 9   1262015.94247  22034797.733    22034797.1574   22034805.8674
   4005643.047 8   2992524.11345  24065667.911    24065668.0454   24065679.2684
  -9256702.422 9  -7197694.63348  21055565.273    21055565.4654   21055573.4714
  -9725612.339 9  -7312298.68846  23328529.882    23328529.7544   23328541.4944
  -3281790.997 7  -2535315.98845  24694115.359    24694114.7814   24694125.9454
   2512707.237 9   1952354.06948  21301788.647    21301788.0194   21301795.5414
  -8195714.960 9  -6374615.21947  21788088.685    21788088.5314   21788096.1664
 99  5 15 16  2 15.0000000  0  8 27  2 26  4 24  8  7  9             0.000000027
   8725868.232 8   6782708.06845  24157151.741    24157151.3724   24157163.3364
   1646779.836 9   1278681.78347  22038867.741    22038867.1504   22038875.8784
   4039715.386 8   3019073.90645  24072151.736    24072151.9054   24072163.2444
  -9290888.648 9  -7224333.24048  21049059.836    21049060.0294   21049068.0204
  -9778916.875 9  -7353834.64446  23318386.329    23318386.2274   23318397.9884
  -3336238.222 7  -2577742.35145  24683754.294    24683753.8134   24683764.9874
   2538567.420 9   1972504.83948  21306709.687    21306709.0724   21306716.5794
  -8224230.688 9  -6396835.26947  21782662.325    21782662.1874   21782669.7754
 99  5 15 16  2 30.0000000  0  8 27  2 26  4 24  8  7  9             0.000000027
   8784291.291 8   6828232.38045  24168269.239    24168268.8364   24168280.9824
   1668228.850 9   1295395.27047  22042949.352    22042948.7644   22042957.5254
   4073813.432 8   3045643.72645  24078640.388    24078640.5644   24078651.9304
  -9324962.546 9  -7250884.30548  21042575.716    21042575.9084   21042583.9014
  -9832191.591 9  -7395347.36646  23308248.446    23308248.3064   23308260.1224
  -3390656.648 7  -2620146.27745  24673398.575    24673398.3734   24673409.5024
   2564475.524 9   1992692.95448  21311639.851    21311639.2394   21311646.7484
  -8252634.207 9  -6418967.88647  21777257.284    21777257.0994   21777264.7124
 99  5 15 16  2 45.0000000  0  8 27  2 26  4 24  8  7  9             0.000000031
   8842739.770 8   6873776.53245  24179391.639    24179391.3554   24179403.4804
   1689741.306 9   1312158.19647  22047043.091    22047042.5004   22047051.2644
   4107941.073 8   3072236.61545  24085134.707    24085134.8484   24085146.2144
  -9358921.305 9  -7277345.65648  21036113.548    21036113.7524   21036121.7314
  -9885435.998 9  -7436836.45346  23298116.307    23298116.2004   23298128.0784
  -3445041.069 7  -2662523.69745  24663049.409    24663049.3964   24663060.4084
   2590433.618 9   2012920.02248  21316579.515    21316578.9194   21316586.4334
  -8280925.798 9  -6441013.27446  21771873.543    21771873.3364   21771880.9834
 99  5 15 16  3  0.0000000  0  8 27  2 26  4 24  8  7  9             0.000000035
   8901206.002 8   6919334.50445  24190517.496    24190517.1634   24190529.3864
   1711316.285 9   1328969.82747  22051148.722    22051148.1284   22051156.8874
   4142098.459 8   3098852.68445  24091634.679    24091634.8584   24091646.1884
  -9392767.596 9  -7303719.37248  21029672.815    21029673.0204   21029680.9484
  -9938649.823 9  -7478301.72546  23287990.016    23287989.9004   23288001.9224
  -3499390.479 7  -2704873.83945  24652707.102    24652707.0464   24652718.0154
   2616440.586 9   2033185.17148  21321528.510    21321527.9334   21321535.4424
  -8309109.654 9  -6462974.70946  21766510.320    21766510.1384   21766517.7394
 99  5 15 16  3 15.0000000  0  8 27  2 26  4 24  8  7  9             0.000000034
   8959685.164 8   6964902.57245  24201645.917    24201645.4894   24201657.7324
   1732952.932 9   1345829.51447  22055266.070    22055265.4974   22055274.2334
   4176283.206 8   3125490.07845  24098139.862    24098139.9954   24098151.4484
  -9426499.889 9  -7330004.25748  21023253.753    21023253.9444   21023261.8284
  -9991831.006 9  -7519741.54746  23277869.871    23277869.7764   23277881.8434
  -3553704.747 7  -2747196.61545  24642371.461    24642371.3114   24642382.3014
   2642493.633 9   2053486.23548  21326486.251    21326485.6514   21326493.1874
  -8337187.293 9  -6484853.39346  21761167.317    21761167.1574   21761174.7534
 99  5 15 16  3 30.0000000  0  8 27  2 26  4 24  8  7  9             0.000000032
   9018183.656 8   7010485.67345  24212777.955    24212777.5224   24212789.7564
   1754656.249 9   1362741.15047  22059396.126    22059395.5484   22059404.2844
   4210503.976 8   3152155.53145  24104651.900    24104652.0864   24104663.5644
  -9460110.621 9  -7356194.41548  21016857.793    21016857.9724   21016865.8214
 -10044972.705 8  -7561150.61046  23267757.285    23267757.1574   23267769.3194
  -3607978.561 7  -2789487.85145  24632043.517    24632043.2314   24632054.2924
   2668597.001 9   2073826.50248  21331453.572    21331452.9724   21331460.5324
  -8365151.816 9  -6506643.91946  21755845.876    21755845.7124   21755853.3124
 99  5 15 16  3 45.0000000  0  8 27  2 26  4 24  8  7  9             0.000000023
   9076692.946 8   7056077.18945  24223912.021    24223911.6044   24223923.9864
   1776419.370 9   1379699.39747  22063537.574    22063537.0014   22063545.7114
   4244752.609 8   3178842.68545  24111169.290    24111169.5444   24111180.9504
  -9493606.969 9  -7382295.44348  21010483.601    21010483.7854   21010491.6314
 -10098084.759 8  -7602536.56046  23257650.313    23257650.1844   23257662.4794
  -3662218.881 7  -2831753.00745  24621721.949    24621721.4794   24621732.7764
   2694741.834 9   2094199.08048  21336428.770    21336428.1684   21336435.7254
  -8393013.567 9  -6528354.36946  21750543.959    21750543.7824   21750551.4114
 99  5 15 16  4  0.0000000  0  8 27  2 26  4 24  8  7  9             0.000000015
   9135221.976 8   7101684.07945  24235049.798    24235049.5134   24235061.8844
   1798252.086 9   1396711.85447  22067692.216    22067691.6454   22067700.3564
   4279038.424 8   3205558.83345  24117693.691    24117693.9384   24117705.3924
  -9526980.419 9  -7408300.70648  21004132.765    21004132.9624   21004140.8154
 -10151163.520 9  -7643896.56546  23247549.682    23247549.5574   23247561.9344
  -3716418.512 8  -2873986.42545  24611408.120    24611407.5774   24611418.9674
   2720936.254 9   2114610.29748  21341413.376    21341412.7974   21341420.3564
  -8420763.170 9  -6549977.44346  21745263.374    21745263.1884   21745270.8554
 99  5 15 16  4 15.0000000  0  8 27  2 26  4 24  8  7  9             0.000000010
   9193774.756 9   7147309.47645  24246192.136    24246191.9304   24246204.2864
   1820154.487 9   1413778.62647  22071860.164    22071859.6004   22071868.2824
   4313362.832 8   3232305.04845  24124225.415    24124225.7154   24124237.1924
  -9560228.714 9  -7434208.44548  20997805.767    20997805.9714   20997813.8144
 -10204206.760 9  -7685228.87746  23237455.792    23237455.6444   23237468.0874
  -3770577.314 8  -2916188.06545  24601101.970    24601101.6024   24601112.8434
   2747180.193 9   2135060.10248  21346407.444    21346406.8704   21346414.4184
  -8448394.488 9  -6571508.32946  21740005.284    21740005.0974   21740012.7884
 99  5 15 16  4 30.0000000  0  8 27  2 26  4 24  8  7  9             0.000000003
   9252344.693 9   7192948.24745  24257337.759    24257337.5344   24257349.8814
   1842120.024 9   1430894.59347  22076040.129    22076039.5554   22076048.1914
   4347717.652 8   3259074.95445  24130762.956    24130763.3204   24130774.7884
  -9593358.162 9  -7460023.57548  20991501.439    20991501.6464   20991509.4864
 -10257221.729 9  -7726539.17246  23227367.312    23227367.1884   23227379.6354
  -3824702.508 8  -2958363.50245  24590802.230    24590801.8834   24590813.0374
   2773465.299 9   2155541.98048  21351409.371    21351408.7974   21351416.3194
  -8475913.512 9  -6592951.73346  21734768.587    21734768.3834   21734776.1034
 99  5 15 16  4 45.0000000  0  8 27  2 26  4 24  8  7  9            -0.000000003
   9310932.784 9   7238601.17945  24268486.914    24268486.6764   24268498.9714
   1864153.519 9   1448063.50247  22080233.040    22080232.4434   22080241.0224
   4382107.983 8   3285872.53946  24137307.310    24137307.6404   24137319.1504
  -9626365.000 9  -7485743.16848  20985220.417    20985220.6244   20985228.4584
 -10310204.627 9  -7767824.47246  23217284.971    23217284.8884   23217297.2984
  -3878793.069 8  -3000511.95945  24580509.103    24580508.7584   24580520.0404
   2799790.397 9   2176055.02448  21356418.947    21356418.3394   21356425.8564
  -8503318.091 9  -6614305.94746  21729553.665    21729553.4534   21729561.1784
 99  5 15 16  5  0.0000000  0  8 27  2 26  4 24  8  7  9            -0.000000009
   9369542.144 9   7284270.66845  24279639.998    24279639.7554   24279652.0234
   1886261.282 9   1465290.29547  22084440.018    22084439.4514   22084447.9914
   4416539.461 8   3312702.18346  24143859.512    24143859.8034   24143871.3714
  -9659240.764 9  -7511360.61648  20978964.374    20978964.5754   20978972.4184
 -10363146.641 9  -7809077.91246  23207210.477    23207210.3824   23207222.7204
  -3932842.232 8  -3042628.17245  24570223.930    24570223.5584   24570234.8194
   2826160.206 9   2196602.91248  21361437.016    21361436.3754   21361443.8474
  -8530601.677 9  -6635565.89046  21724361.816    21724361.5974   21724369.3104
 99  5 15 16  5 15.0000000  0  8 27  2 26  4 24  8  7  9            -0.000000022
   9428164.859 8   7329950.57845  24290795.643    24290795.3324   24290807.5094
   1908434.942 9   1482568.43047  22088659.580    22088659.0294   22088667.4934
   4450999.341 8   3339553.95346  24150417.103    24150417.3544   24150428.9544
  -9691993.209 9  -7536881.98548  20972731.802    20972731.9904   20972739.8494
 -10416054.228 9  -7850304.53846  23197142.585    23197142.5324   23197154.7384
  -3986862.281 8  -3084721.70345  24559944.331    24559943.9644   24559955.3424
   2852564.788 9   2217177.88848  21366461.649    21366461.0174   21366468.4474
  -8557771.004 9  -6656736.78446  21719191.679    21719191.4664   21719199.1754
 99  5 15 16  5 30.0000000  0  8 27  2 26  4 24  8  7  9            -0.000000037
   9486806.826 8   7375645.45945  24301954.872    24301954.5564   24301966.7254
   1930673.241 9   1499896.92847  22092891.431    22092890.8704   22092899.2834
   4485484.472 8   3366425.41146  24156979.492    24156979.6814   24156991.3114
  -9724624.271 9  -7562308.76648  20966522.316    20966522.5194   20966530.3524
 -10468929.580 9  -7891506.03946  23187080.790    23187080.7584   23187092.8384
  -4040856.354 8  -3126794.98445  24549669.684    24549669.2974   24549680.4554
   2879001.175 9   2237777.65448  21371492.365    21371491.7344   21371499.1554
  -8584822.237 9  -6677815.66946  21714044.004    21714043.8114   21714051.5174
 99  5 15 16  5 45.0000000  0  8 27  2 26  4 24  8  7  9            -0.000000045
   9545478.168 8   7421363.23045  24313119.732    24313119.5574   24313131.5664
   1952986.574 9   1517283.89747  22097137.557    22097137.0014   22097145.3704
   4520003.515 8   3393323.29746  24163548.364    24163548.5634   24163560.2344
  -9757126.972 9  -7587635.53748  20960337.326    20960337.5304   20960345.3244
 -10521765.660 9  -7932676.94546  23177026.396    23177026.3594   23177038.3574
  -4094814.408 8  -3168840.19445  24539401.883    24539401.5554   24539412.5904
   2905479.249 9   2258409.89648  21376530.978    21376530.3564   21376537.7914
  -8611745.315 9  -6698794.70646  21708920.731    21708920.5364   21708928.2494
 99  5 15 16  6  0.0000000  0  8 27  2 26  4 24  8  7  9            -0.000000053
   9604172.350 8   7467098.76945  24324288.981    24324288.8154   24324300.9164
   1975367.261 9   1534723.34247  22101396.479    22101395.9124   22101404.2624
   4554548.158 8   3420241.12746  24170122.077    24170122.3224   24170133.9934
  -9789506.874 9  -7612866.61848  20954175.675    20954175.8664   20954183.6304
 -10574568.723 9  -7973822.12346  23166978.264    23166978.2054   23166990.2044
  -4148742.371 8  -3210861.96645  24529139.744    24529139.5204   24529150.3784
   2931993.107 9   2279070.02048  21381576.400    21381575.7834   21381583.2274
  -8638547.830 9  -6719679.77846  21703820.389    21703820.1984   21703827.9164
 99  5 15 16  6 15.0000000  0  8 27  2 26  4 24  8  7  9            -0.000000055
   9662893.093 8   7512855.00845  24335463.324    24335463.1184   24335475.2494
   1997816.640 9   1552216.33547  22105668.474    22105667.9044   22105676.2354
   4589119.446 9   3447179.72246  24176700.867    24176701.1184   24176712.7994
  -9821764.647 9  -7638002.52448  20948037.231    20948037.4154   20948045.1754
 -10627335.224 9  -8014938.82046  23156937.030    23156936.9674   23156949.0024
  -4202637.937 8  -3252858.48445  24518883.754    24518883.5004   24518894.3884
   2958541.203 9   2299756.83348  21386628.366    21386627.7464   21386635.1984
  -8665228.466 9  -6740469.88246  21698743.231    21698743.0714   21698750.7894
 99  5 15 16  6 30.0000000  0  8 27  2 26  4 24  8  7  9            -0.000000054
   9721638.997 8   7558630.85545  24346642.542    24346642.3394   24346654.4024
   2020335.170 9   1569763.20347  22109953.588    22109953.0084   22109961.3884
   4623717.445 9   3474139.13046  24183284.740    24183284.9904   24183296.6554
  -9853900.551 9  -7663043.47548  20941921.960    20941922.1494   20941929.9154
 -10680063.269 9  -8056025.55346  23146903.117    23146903.0134   23146915.0554
  -4256496.502 8  -3294826.17645  24508634.751    24508634.4464   24508645.5304
   2985122.560 9   2320469.55848  21391686.616    21391686.0044   21391693.4574
  -8691788.232 9  -6761165.82046  21693689.058    21693688.8814   21693696.5844
 99  5 15 16  6 45.0000000  0  8 27  2 26  4 24  8  7  9             0.000000006
   9780396.261 8   7604415.55645  24357823.758    24357823.5294   24357835.8164
   2042908.144 9   1587352.49947  22114249.080    22114248.5244   22114256.9214
   4658329.848 9   3501109.75846  24189871.347    24189871.5904   24189883.2924
  -9885927.738 9  -7687999.70548  20935827.420    20935827.6184   20935835.3764
 -10732764.419 9  -8097091.31146  23136874.292    23136874.1864   23136886.2404
  -4310328.428 8  -3336773.10145  24498390.823    24498390.4984   24498401.6834
   3011726.149 9   2341199.61048  21396749.143    21396748.5394   21396756.0034
  -8718242.129 9  -6781779.24846  21688655.062    21688654.8864   21688662.5624
 99  5 15 16  7  0.0000000  0  8 27  2 26  4 24  8  7  9             0.000000001
   9839153.894 8   7650200.51545  24369004.912    24369004.6104   24369017.3704
   2065521.812 9   1604973.49647  22118552.312    22118551.7454   22118560.2134
   4692943.959 9   3528081.72046  24196458.279    24196458.5204   24196470.1874
  -9917854.967 9  -7712878.05248  20929751.870    20929752.0644   20929759.8194
 -10785448.240 9  -8138143.57746  23126848.795    23126848.6964   23126860.7244
  -4364143.399 8  -3378706.82745  24488150.156    24488149.7364   24488161.0894
   3038343.590 9   2361940.45348  21401814.281    21401813.6734   21401821.1634
  -8744601.592 9  -6802319.08346  21683639.014    21683638.8204   21683646.5104
 99  5 15 16  7 15.0000000  0  8 27  2 26  4 24  8  7  9            -0.000000003
   9897942.218 8   7696009.40645  24380191.977    24380191.6744   24380204.6264
   2088204.624 9   1622648.38347  22122868.664    22122868.1074   22122876.6724
   4727587.806 9   3555076.85046  24203050.867    24203051.1264   24203062.7944
  -9949652.270 9  -7737655.15448  20923701.041    20923701.2534   20923708.9724
 -10838086.335 9  -8179160.21846  23116832.052    23116831.9704   23116843.8954
  -4417911.232 8  -3420603.82245  24477918.477    24477918.1304   24477929.3684
   3065007.501 9   2382717.51448  21406888.213    21406887.6204   21406895.1304
  -8770835.056 9  -6822760.73846  21678646.978    21678646.7664   21678654.3964
 99  5 15 16  7 30.0000000  0  8 27  2 26  4 24  8  7  9            -0.000000007
   9956757.934 8   7741839.63845  24391384.301    24391384.0954   24391397.0264
   2110950.990 9   1640372.78747  22127197.161    22127196.6014   22127205.2554
   4762253.934 9   3582089.34246  24209647.739    24209647.9794   24209659.6164
  -9981328.399 9  -7762337.83248  20917673.284    20917673.4864   20917681.2294
 -10890684.946 9  -8220146.09446  23106822.922    23106822.8394   23106834.6354
  -4471638.547 8  -3462469.24645  24467694.485    24467693.8804   24467705.2774
   3091712.345 9   2403526.46248  21411969.974    21411969.3924   21411976.9354
  -8796949.076 9  -6843109.33246  21673677.636    21673677.4164   21673685.0524
 99  5 15 16  7 45.0000000  0  8 27  2 26  4 24  8  7  9            -0.000000009
  10015597.938 8   7787688.81645  24402581.371    24402581.2144   24402593.9344
   2133761.403 9   1658147.10347  22131537.847    22131537.2954   22131545.9714
   4796944.253 9   3609120.69146  24216249.256    24216249.4794   24216261.0704
 -10012884.157 9  -7786926.71548  20911668.409    20911668.6134   20911676.3424
 -10943244.591 9  -8261101.60546  23096821.243    23096821.1334   23096832.7824
  -4525320.802 8  -3504299.56045  24457479.053    24457478.3114   24457489.7564
   3118458.652 9   2424367.72648  21417059.682    21417059.0894   21417066.6524
  -8822944.318 9  -6863365.36846  21668730.919    21668730.7294   21668738.3994
 99  5 15 16  8  0.0000000  0  8 27  2 26  4 24  8  7  9            -0.000000004
  10074464.755 8   7833558.91245  24413783.578    24413783.3794   24413796.0444
   2156641.788 9   1675975.93747  22135891.892    22135891.3214   22135900.0454
   4831665.766 9   3636176.34046  24222856.651    24222856.8354   24222868.4264
 -10044311.291 9  -7811415.37848  20905688.032    20905688.2334   20905695.9694
 -10995756.011 9  -8302019.53546  23086828.736    23086828.5814   23086840.1464
  -4578949.628 8  -3546088.23845  24447273.876    24447272.9754   24447284.4014
   3145254.302 9   2445247.42648  21422158.744    21422158.1484   21422165.7334
  -8848817.34619  -6883526.17256         0.000           0.0005          0.0005
 99  5 15 16  8 15.0000000  0  8 27  2 26  4 24  8  7  9            -0.000000002
  10133344.506 8   7879439.09045  24424988.171    24424987.8024   24425000.7554
   2179579.976 9   1693849.81647  22140256.919    22140256.3504   22140265.0964
   4866405.010 9   3663245.81446  24229467.399    24229467.5684   24229479.1814
 -10075621.677 9  -7835813.05848  20899729.876    20899730.0784   20899737.7794
 -11048231.035 9  -8342909.11146  23076843.175    23076842.9744   23076854.4594
  -4632538.317 8  -3587845.65545  24437076.331    24437075.3944   24437086.8234
   3172084.606 9   2466154.14148  21427264.379    21427263.7944   21427271.4044
  -8874580.14319  -6903601.05556         0.000           0.0005          0.0005
 99  5 15 16  8 30.0000000  0  8 27  2 26  4 24  8  7  9            -0.000000000
  10192239.641 8   7925331.24345  24436195.593    24436195.1644   24436208.4104
   2202579.272 9   1711771.31247  22144633.584    22144633.0194   22144641.7924
   4901165.664 9   3690331.96446  24236082.217    24236082.3994   24236093.9754
 -10106811.162 9  -7860116.53348  20893794.755    20893794.9674   20893802.5974
 -11100667.186 9  -8383768.39346  23066864.939    23066864.6924   23066876.1644
  -4686083.099 8  -3629568.83545  24426887.106    24426886.3294   24426897.6234
   3198953.162 9   2487090.66148  21432377.309    21432376.7244   21432384.3644
  -8900226.91819  -6923585.57056         0.000           0.0005          0.0005
 99  5 15 16  8 45.0000000  0  8 27  2 26  4 24  8  7  9            -0.000000006
  10251141.333 8   7971228.49445  24447404.213    24447403.8744   24447417.2874
   2225631.632 9   1729734.14147  22149020.349    22149019.7734   22149028.5764
   4935937.513 9   3717426.83646  24242699.188    24242699.2884   24242710.9124
 -10137885.982 9  -7884330.67348  20887881.453    20887881.6504   20887889.2164
 -11153071.249 9  -8424602.66646  23056892.747    23056892.4764   23056903.9774
  -4739592.977 8  -3671264.82045  24416704.498    24416703.6974   24416714.9514
   3225856.061 9   2508053.92748  21437496.777    21437496.2004   21437503.8364
  -8925763.56819  -6943484.25156         0.000           0.0005          0.0005
 99  5 15 16  9  0.0000000  0  8 27  2 26  4 24  8  7  9            -0.000000008
  10310072.478 8   8017148.68645  24458618.429    24458618.2204   24458631.6334
   2248759.038 9   1747755.46147  22153421.382    22153420.7864   22153429.6244
   4970739.156 9   3744544.92246  24249321.754    24249321.8244   24249333.4834
 -10168824.557 9  -7908438.63348  20881994.077    20881994.2564   20882001.7824
 -11205419.538 9  -8465393.48246  23046931.088    23046930.8724   23046942.3564
  -4793048.897 8  -3712918.75745  24406532.183    24406531.4794   24406542.4064
   3252813.167 9   2529059.44648  21442626.568    21442625.9894   21442633.5974
  -8951167.60519  -6963279.60655         0.000           0.0005          0.0005
 99  5 15 16  9 15.0000000  0  8 27  2 26  4 24  8  7  9            -0.000000009
  10369024.080 8   8063084.83245  24469836.620    24469836.3554   24469849.6824
   2271954.450 9   1765829.76747  22157835.367    22157834.7804   22157843.6494
   5005559.537 9   3771677.61246  24255947.902    24255948.0164   24255959.7484
 -10199637.172 9  -7932448.44848  20876130.624    20876130.8154   20876138.2944
 -11257720.784 9  -8506147.65846  23036978.360    23036978.1524   23036989.7714
  -4846460.156 8  -3754537.88945  24396368.363    24396367.7364   24396378.5194
   3279811.885 9   2550097.38848  21447764.279    21447763.7024   21447771.2934
  -8976446.41619  -6982977.37155         0.000           0.0005          0.0005
 99  5 15 16  9 30.0000000  0  8 27  2 26  4 24  8  7  9            -0.000000022
  10427980.398 9   8109024.63845  24481055.770    24481055.4874   24481068.5944
   2295198.774 9   1783942.18847  22162258.642    22162258.0684   22162266.9284
   5040381.577 9   3798811.61345  24262574.411    24262574.5694   24262586.2434
 -10230342.371 9  -7956374.56248  20870287.605    20870287.7804   20870295.2704
 -11309991.685 9  -8546878.17146  23027031.381    23027031.2194   23027042.8494
  -4899842.860 8  -3796134.78345  24386209.919    24386209.3794   24386220.1574
   3306831.897 9   2571151.92148  21452906.020    21452905.4334   21452913.0144
  -9001617.11519  -7002590.90955         0.000           0.0005          0.0005
 99  5 15 16  9 45.0000000  0  8 27  2 26  4 24  8  7  9            -0.000000038
  10486953.925 9   8154977.89945  24492278.287    24492278.1074   24492290.5134
   2318507.016 9   1802104.41547  22166694.108    22166693.5374   22166702.4034
   5075221.217 9   3825959.31345  24269204.257    24269204.3494   24269215.9944
 -10260923.592 9  -7980204.06748  20864468.204    20864468.3794   20864475.8634
 -11362216.600 9  -8587572.86246  23017093.188    23017093.0194   23017104.6834
  -4953178.283 8  -3837694.83245  24376060.463    24376059.8254   24376070.6994
   3333887.448 9   2592234.14948  21458054.529    21458053.9184   21458061.4804
  -9026666.55719  -7022109.94655         0.000           0.0005          0.0005
 99  5 15 16 10  0.0000000  0  8 27  2 26  4 24  8  7  9            -0.000000052
  10545951.148 9   8200949.63245  24503505.341    24503505.0654   24503517.2404
   2341886.276 9   1820321.97247  22171143.111    22171142.5374   22171151.4134
   5110087.887 9   3853128.08245  24275839.245    24275839.3464   24275850.9804
 -10291370.711 9  -8003929.08648  20858674.284    20858674.4704   20858681.9424
 -11414388.669 9  -8628226.37946  23007165.106    23007164.8814   23007176.5654
  -5006459.345 8  -3879212.50645  24365921.359    24365920.8254   24365931.5994
   3360986.917 9   2613350.59548  21463211.344    21463210.7684   21463218.3144
  -9051586.65019  -1736455.51952         0.000           0.0005          0.0005
 99  5 15 16 10 15.0000000  0  8 27  2 26  4 24  8  7  9            -0.000000068
  10604970.481 9   8246938.54945  24514736.596    24514736.2804   24514748.4404
   2365334.038 9   1838592.91747  22175605.083    22175604.5384   22175613.3844
   5144976.886 9   3880314.24745  24282478.457    24282478.5704   24282490.2114
 -10321686.123 9  -8027551.46848  20852905.438    20852905.5944   20852913.1074
 -11466510.889 9  -8668841.04446  22997246.524    22997246.2974   22997257.9494
  -5059690.848 8  -3920691.56045  24355791.718    24355791.0274   24355802.1734
   3388125.931 9   2634497.86248  21468375.719    21468375.1434   21468382.7044
  -9076380.176 9  -1755775.54342         0.000           0.0004          0.0004
 99  5 15 16 10 30.0000000  0  8 27  2 26  4 24  8  7  9            -0.000000085
  10664013.825 9   8292946.17845  24525972.390    24525972.1514   24525984.4744
   2388850.853 9   1856917.66947  22180080.230    22180079.6904   22180088.5204
   5179887.388 9   3907517.16045  24289121.709    24289121.8504   24289133.4974
 -10351870.046 9  -8051071.39548  20847161.583    20847161.7604   20847169.2804
 -11518584.279 9  -8709417.65746  22987337.227    22987337.0184   22987348.6844
  -5112872.007 8  -3962131.40445  24345671.645    24345671.0124   24345682.1124
   3415302.530 9   2655674.41348  21473547.229    21473546.6434   21473554.2194
  -9101046.796 9  -1774996.27942         0.000           0.0004          0.0004
 99  5 15 16 10 45.0000000  0  8 27  2 26  4 24  8  7  9            -0.000000107
  10723072.215 9   8338965.49545  24537210.952    24537210.7524   24537223.3984
   2412429.098 9   1875290.28447  22184567.082    22184566.5444   22184575.3424
   5214811.896 9   3934730.99145  24295767.684    24295767.8404   24295779.4584
 -10381931.818 9  -8074496.14448  20841441.006    20841441.2004   20841448.6994
 -11570614.251 9  -8749960.44546  22977436.242    22977436.0624   22977447.6394
  -5166011.501 8  -4003538.77845  24335559.533    24335559.0534   24335569.8714
   3442509.563 9   2676874.67548  21478724.549    21478723.9794   21478731.5614
  -9125594.849 9  -1794124.62542         0.000           0.0004          0.0004
 99  5 15 16 11  0.0000000  0  8 27  2 26  4 24  8  7  9            -0.000000124
  10782152.573 9   8385001.94045  24548453.677    24548453.4294   24548466.4824
   2436078.487 9   1893718.34747  22189067.496    22189066.9294   22189075.7354
   5249760.688 8   3961963.75245  24302418.311    24302418.4464   24302430.0194
 -10411863.076 9  -8097819.19248  20835745.281    20835745.4644   20835752.9844
 -11622589.423 9  -8790460.52646  22967545.689    22967545.4694   22967557.0664
  -5219100.372 8  -4044906.70045  24325457.049    24325456.4484   24325467.2634
   3469753.567 9   2698103.75148  21483908.921    21483908.3504   21483915.9624
  -9150017.922 9  -1813155.58542         0.000           0.0004          0.0004
 99  5 15 16 11 15.0000000  0  8 27  2 26  4 24  8  7  9            -0.000000141
  10841248.943 8   8431050.88845  24559699.437    24559699.1944   24559712.3924
   2459794.393 9   1912198.21847  22193580.500    22193579.9244   22193588.7194
   5284733.265 8   3989215.04545  24309073.405    24309073.3594   24309085.0354
 -10441665.746 9  -8121042.04848  20830074.007    20830074.2104   20830081.7014
 -11674517.892 9  -8830924.21546  22957664.034    22957663.8604   22957675.4074
  -5272142.139 8  -4086237.91945  24315363.594    24315362.9444   24315373.6874
   3497030.714 9   2719358.64448  21489099.584    21489099.0164   21489106.6514
  -9174321.919 9  -1832093.75842         0.000           0.0004          0.0004
 99  5 15 16 11 30.0000000  0  8 27  2 26  4 24  8  7  9            -0.000000156
  10900356.620 8   8477108.62345  24570947.399    24570947.0874   24570960.5204
   2483573.479 9   1930727.34247  22198105.500    22198104.9214   22198113.7164
   5319729.850 8   4016485.04745  24315733.004    24315732.9684   24315744.7464
 -10471340.906 9  -8144165.53848  20824427.053    20824427.2394   20824434.7244
 -11726404.943 9  -8871355.61446  22947790.246    22947790.1064   22947801.6114
  -5325138.253 8  -4127533.54745  24305278.753    24305278.1764   24305288.9274
   3524342.002 9   2740640.14948  21494296.774    21494296.2084   21494303.8554
  -9198510.196 9  -1850941.75942         0.000           0.0004          0.0004
 99  5 15 16 11 45.0000000  0  8 27  2 26  4 24  8  7  9            -0.000000168
  10959475.838 8   8523175.39045  24582197.603    24582197.2484   24582210.7854
   2507420.504 9   1949309.40047  22202643.447    22202642.8704   22202651.6834
   5354751.538 8   4043774.59845  24322397.378    24322397.3364   24322409.1684
 -10500883.862 9  -8167186.01448  20818805.212    20818805.3914   20818812.8754
 -11778251.215 9  -8911755.24846  22937924.164    22937923.9964   22937935.5334
  -5378087.714 8  -4168792.84045  24295202.733    24295202.3514   24295212.9874
   3551692.690 9   2761952.35548  21499501.468    21499500.8954   21499508.5694
  -9222581.752 9  -1775688.81042         0.000           0.0004          0.0004
 99  5 15 16 12  0.0000000  0  8 27  2 26  4 24  8  7  9            -0.000000179
  11018597.590 8   8569244.11545  24593448.254    24593447.8604   24593461.4124
   2531333.064 9   1967942.51647  22207193.897    22207193.3004   22207202.1164
   5389790.287 8   4071077.43945  24329065.026    24329064.9294   24329076.8054
 -10530302.273 9  -8190109.44448  20813207.058    20813207.2464   20813214.7114
 -11830065.669 9  -8952130.07946  22928064.151    22928063.9924   22928075.5574
  -5430999.232 8  -4210022.56145  24285133.987    24285133.5924   24285144.3494
   3579075.569 9   2783289.64648  21504712.297    21504711.7284   21504719.4094
  -9246542.076 9  -1794359.47244         0.000           0.0004   21588131.5124
 99  5 15 16 12 15.0000000  0  8 27  2 26  4 24  8  7  9            -0.000000183
  11077731.829 8   8615322.54745  24604701.278    24604700.9294   24604714.4254
   2555318.302 9   1986632.26947  22211758.132    22211757.5404   22211766.3524
   5424854.298 8   4098399.98245  24335737.502    24335737.3794   24335749.4134
 -10559588.788 9  -8212930.09948  20807634.032    20807634.2244   20807641.6724
 -11881839.038 9  -8992472.90946  22918211.949    22918211.8124   22918223.3884
  -5483866.648 8  -4251217.92145  24275073.615    24275073.1374   24275083.9054
   3606496.061 9   2804656.24048  21509930.275    21509929.6954   21509937.3754
  -9270383.39519  -1812937.12145         0.000           0.0005   21583593.3444
 99  5 15 16 12 30.0000000  0  8 27  2 26  4 24  8  7  9            -0.000000186
  11136870.709 8   8661404.61245  24615955.168    24615954.7984   24615968.3654
   2579368.005 9   2005372.25447  22216334.643    22216334.0624   22216342.8864
   5459935.502 8   4125735.91245  24342413.275    24342413.2774   24342425.2494
 -10588750.274 9  -8235653.32648  20802084.770    20802084.9464   20802092.3944
 -11933577.846 9  -9032788.79346  22908366.354    22908366.2094   22908377.8314
  -5536696.091 8  -4292383.68645  24265020.490    24265019.8774   24265030.7894
   3633945.656 9   2826045.52448  21515153.781    21515153.1694   21515160.8594
  -9294112.458 9  -1831427.27545  21579070.772    21579067.4924   21579077.8854
 99  5 15 16 12 45.0000000  0  8 27  2 26  4 24  8  7  9            -0.000000184
  11196017.709 8   8707492.96545  24627210.578    24627210.3164   24627224.0374
   2603488.680 9   2024167.54947  22220924.618    22220924.0444   22220932.8884
   5495040.509 8   4153090.37145  24349093.542    24349093.6134   24349105.5124
 -10617779.277 9  -8258273.32248  20796560.724    20796560.9014   20796568.3364
 -11985276.364 9  -9073073.29446  22898528.375    22898528.2494   22898539.9274
  -5589481.851 8  -4333515.41945  24254975.686    24254975.0604   24254986.0524
   3661433.800 9   2847464.84048  21520384.600    21520384.0084   21520391.6854
  -9317720.725 9  -1849823.30945  21574578.269    21574577.6394   21574585.5594
 99  5 15 16 13  0.0000000  0  8 27  2 26  4 24  8  7  9            -0.000000182
  11255163.857 8   8753580.64445  24638465.864    24638465.7344   24638479.4634
   2627670.649 9   2043010.60447  22225526.305    22225525.7394   22225534.5784
   5530163.047 8   4180458.52145  24355777.173    24355777.2464   24355789.2244
 -10646683.470 9  -8280796.06448  20791060.422    20791060.5984   20791068.0224
 -12036943.326 9  -9113333.20446  22888696.370    22888696.2664   22888708.0064
  -5642231.642 8  -4374619.13345  24244937.684    24244937.1594   24244948.0074
   3688954.010 9   2868909.14148  21525621.521    21525620.9334   21525628.6394
  -9341213.674 9  -1868129.51545  21570107.669    21570107.2454   21570114.9464
 99  5 15 16 13 15.0000000  0  8 27  2 26  4 24  8  7  9            -0.000000174
  11314323.431 8   8799678.79345  24649723.721    24649723.6794   24649737.3654
   2651925.981 9   2061910.80747  22230141.945    22230141.3834   22230150.2414
   5565313.082 8   4207848.08545  24362466.091    24362466.2254   24362478.2864
 -10675446.762 9  -8303209.01548  20785586.922    20785587.1174   20785594.5244
 -12088568.532 9  -9153560.58646  22878872.360    22878872.2674   22878884.0064
  -5694933.707 8  -4415685.66345  24234908.805    24234908.3224   24234919.1184
   3716520.383 9   2890389.41348  21530867.248    21530866.6614   21530874.3934
  -9364577.889 9  -1886335.36745  21565661.536    21565661.3954   21565668.6394
 99  5 15 16 13 30.0000000  0  8 27  2 26  4 24  8  7  9             0.000000069
  11373453.345 7   8845753.84145  24660975.902    24660975.9324   24660989.5704
   2676210.395 9   2080833.69047  22234763.104    22234762.5344   22234771.3694
   5600445.244 8   4235223.73745  24369151.588    24369151.7674   24369163.8354
 -10704114.532 9  -8325547.53548  20780131.600    20780131.7844   20780139.1914
 -12140195.777 9  -9193789.56046  22869047.989    22869047.9084   22869059.6414
  -5747630.762 8  -4456748.28245  24224880.912    24224880.4044   24224891.2814
   3744087.911 9   2911870.58248  21536113.173    21536112.5904   21536120.3754
  -9387856.115 9  -1904474.27945  21561231.765    21561231.4284   21561239.0214
 99  5 15 16 13 45.0000000  0  8 27  2 26  4 24  8  7  9             0.000000040
  11432585.534 7   8891830.62345  24672228.387    24672228.2234   24672242.0514
   2700554.886 9   2099803.38847  22239395.716    22239395.1174   22239403.9984
   5635585.725 9   4262605.88045  24375838.719    24375838.8974   24375850.9314
 -10732657.172 9  -8347788.55048  20774700.097    20774700.3044   20774707.6814
 -12191790.013 9  -9233992.80746  22859229.926    22859229.8344   22859241.5224
  -5800294.338 8  -4497784.81945  24214859.399    24214858.9224   24214869.7124
   3771682.503 9   2933372.84348  21541364.269    21541363.7044   21541371.4894
  -9411016.408 9  -1922521.22445  21556824.453    21556824.0704   21556831.7834
 99  5 15 16 14  0.0000000  0  8 27  2 26  4 24  8  7  9             0.000000020
  11491748.963 7   8937931.76545  24683486.799    24683486.4604   24683500.6964
   2724988.937 9   2118842.85947  22244045.397    22244044.8184   22244053.7034
   5670763.839 9   4290017.32545  24382533.055    24382533.1444   24382545.1564
 -10761046.431 9  -8369910.05448  20769297.802    20769297.9944   20769305.3874
 -12243320.577 9  -9274146.44846  22849423.991    22849423.9034   22849435.4694
  -5852894.954 8  -4538772.29345  24204849.789    24204849.3424   24204860.1344
   3799330.609 9   2954916.80048  21546625.559    21546624.9924   21546632.7754
  -9434029.096 9  -1940453.19145  21552445.224    21552444.6244   21552452.8014
 99  5 15 16 14 15.0000000  0  8 27  2 26  4 24  8  7  9             0.000000009
  11550941.637 8   8984055.67445  24694750.724    24694750.3204   24694764.6024
   2749506.113 9   2137947.10747  22248710.862    22248710.2784   22248719.1734
   5705979.576 9   4317458.08945  24389234.469    24389234.5244   24389246.5534
 -10789286.212 9  -8391915.07648  20763923.958    20763924.1254   20763931.5644
 -12294785.730 9  -9314249.12146  22839630.500    22839630.3934   22839641.8714
  -5905432.314 8  -4579710.47345  24194852.196    24194851.7534   24194862.6274
   3827028.606 9   2976499.63348  21551896.350    21551895.7834   21551903.5704
  -9456895.808 9  -1958271.39245  21548093.821    21548093.3364   21548101.5474
 99  5 15 16 14 30.0000000  0  8 27  2 26  4 24  8  7  9             0.000000005
  11610159.868 8   9030199.51745  24706019.732    24706019.3564   24706033.6904
   2774102.334 9   2157112.95347  22253391.436    22253390.8684   22253399.7574
   5741229.295 9   4344925.32545  24395942.316    24395942.3704   24395954.4164
 -10817377.463 9  -8413804.35748  20758578.338    20758578.5154   20758585.9994
 -12346185.799 9  -9354301.07946  22829849.410    22829849.2644   22829860.6704
  -5957908.150 8  -4620600.70245  24184866.318    24184865.9854   24184876.7294
   3854776.546 9   2998121.38548  21557176.618    21557176.0384   21557183.8284
  -9479618.097 9  -1975977.08545  21543769.932    21543769.3504   21543777.6774
 99  5 15 16 14 45.0000000  0  8 27  2 26  4 24  8  7  9            -0.000000001
  11669386.606 8   9076350.04445  24717290.475    24717290.1864   24717304.2034
   2798764.697 9   2176330.34347  22258084.591    22258084.0094   22258092.8964
   5776496.812 9   4372406.43345  24402653.533    24402653.6444   24402665.6824
 -10845336.062 9  -8435590.27249  20753257.973    20753258.1784   20753265.6964
 -12397533.511 9  -9394312.23246  22820078.288    22820078.1594   22820089.4454
  -6010336.687 8  -4661454.08845  24174889.477    24174889.1234   24174899.8894
   3882562.519 9   3019772.78048  21562464.142    21562463.5574   21562471.3504
  -9502207.611 9  -1993579.31645  21539471.317    21539470.6454   21539479.0544
 99  5 15 16 15  0.0000000  0  8 27  2 26  4 24  8  7  9            -0.000000005
  11728627.582 8   9122511.68845  24728563.936    24728563.6004   24728577.4454
   2823496.722 9   2195601.99347  22262790.985    22262790.4114   22262799.3014
   5811787.012 9   4399905.22145  24409369.063    24409369.2154   24409381.2744
 -10873158.980 9  -8457270.47849  20747963.444    20747963.6444   20747971.1914
 -12448820.452 9  -9434276.04146  22810318.678    22810318.5354   22810329.7604
  -6062712.893 8  -4702266.69845  24164922.660    24164922.2624   24164933.0964
   3910389.292 9   3041455.94748  21567759.377    21567758.8014   21567766.5984
  -9524661.862 9  -2011076.13745  21535198.416    21535197.8414   21535206.2484
 99  5 15 16 15 15.0000000  0  8 27  2 26  4 24  8  7  9            -0.000000005
  11787885.948 8   9168686.86645  24739840.785    24739840.5134   24739854.3424
   2848300.695 9   2214929.71647  22267511.097    22267510.5034   22267519.4174
   5847099.908 9   4427421.69645  24416088.945    24416089.1034   24416101.1474
 -10900844.697 9  -8478843.76049  20742695.036    20742695.2314   20742702.8154
 -12500042.711 9  -9474189.42646  22800571.342    22800571.2234   22800582.3984
  -6115035.174 8  -4743037.29445  24154966.071    24154965.7054   24154976.5284
   3938254.042 9   3063168.72448  21573061.855    21573061.2904   21573069.0844
  -9546982.776 9  -2028469.03145  21530950.842    21530950.2544   21530958.8634
 99  5 15 16 15 30.0000000  0  8 27  2 26  4 24  8  7  9            -0.000000011
  11847140.709 8   9214859.22545  24751116.920    24751116.6084   24751130.6174
   2873159.485 9   2234300.16347  22272241.631    22272241.0284   22272249.9184
   5882413.691 9   4454938.86245  24422808.958    24422809.1514   24422821.2324
 -10928414.541 9  -8500326.76149  20737448.681    20737448.8734   20737456.4774
 -12551221.056 9  -9514068.59946  22790832.377    22790832.2754   22790843.3924
  -6167322.911 8  -4783780.96745  24145016.048    24145015.7044   24145026.4534
   3966134.334 9   3084893.60548  21578367.330    21578366.7684   21578374.5584
  -9569193.468 9  -2045776.06845  21526724.272    21526723.6784   21526732.4204
 99  5 15 16 15 45.0000000  0  8 27  2 26  4 24  8  7  9            -0.000000007
  11906412.727 8   9261045.02845  24762396.197    24762395.7994   24762410.0284
   2898096.387 9   2253731.47647  22276987.017    22276986.4334   22276995.2964
   5917748.689 9   4482472.55545  24429532.969    24429533.2264   24429545.3204
 -10955849.593 9  -8521704.72749  20732227.902    20732228.0874   20732235.7354
 -12602331.954 9  -9553895.21146  22781106.225    22781106.1194   22781117.2704
  -6219552.774 8  -4824479.54445  24135077.050    24135076.6944   24135087.2884
   3994051.056 9   3106646.87448  21583679.719    21583679.1504   21583686.9054
  -9591273.734 9  -2062981.47345  21522522.581    21522521.9994   21522530.5974
 99  5 15 16 16  0.0000000  0  8 27  2 26  4 24  8  7  9            -0.000000003
  11965684.458 8   9307230.57745  24773675.310    24773674.8524   24773689.3974
   2923096.135 9   2273211.75347  22281744.377    22281743.8004   22281752.6544
   5953087.688 9   4510009.36245  24436257.830    24436258.0114   24436270.2624
 -10983165.700 9  -8542990.00149  20727029.803    20727030.0164   20727037.6804
 -12653392.890 9  -9593682.90146  22771389.590    22771389.5054   22771400.5754
  -6271741.451 8  -4865146.02445  24125145.888    24125145.5004   24125156.1274
   4021990.010 9   3128417.47348  21588996.368    21588995.7794   21589003.5334
  -9613240.173 9  -2080098.18245  21518342.550    21518341.9914   21518350.5444
 99  5 15 16 16 15.0000000  0  8 27  2 26  4 24  8  7  9            -0.000000001
  12024951.771 8   9353412.68945  24784953.532    24784953.0844   24784967.9914
   2948154.931 9   2292738.04447  22286512.974    22286512.3884   22286521.2564
   5988428.577 8   4537547.64145  24442983.024    24442983.1654   24442995.5794
 -11010368.064 9  -8564186.65649  20721853.314    20721853.5494   20721861.2224
 -12704406.923 9  -9633434.03646  22761681.954    22761681.8754   22761692.9304
  -6323890.110 8  -4905781.31945  24115222.278    24115221.8394   24115232.5014
   4049950.132 9   3150204.55948  21594317.060    21594316.4764   21594324.1904
  -9635095.989 9  -2097128.67045  21514183.577    21514182.9414   21514191.5064
 99  5 15 16 16 30.0000000  0  8 27  2 26  4 24  8  7  9             0.000000006
  12084225.305 8   9399599.68945  24796232.964    24796232.5354   24796247.5934
   2973281.790 9   2312317.37747  22291294.507    22291293.9384   22291302.7964
   6023776.695 9   4565091.55645  24449709.592    24449709.7484   24449722.1784
 -11037447.362 9  -8585287.40649  20716700.301    20716700.5274   20716708.2054
 -12755362.902 9  -9673139.93646  22751985.318    22751985.2194   22751996.2374
  -6375989.543 8  -4946378.27245  24105308.037    24105307.6044   24105318.2384
   4077940.458 9   3172015.19048  21599643.459    21599642.8494   21599650.5704
  -9656832.724 9  -2114066.39145  21510047.266    21510046.6834   21510055.2064
 99  5 15 16 16 45.0000000  0  8 27  2 26  4 24  8  7  9             0.000000012
  12143498.613 8   9445786.47945  24807512.460    24807512.0164   24807527.0564
   2998471.885 9   2331945.96847  22296088.069    22296087.5104   22296096.3944
   6059124.277 9   4592635.06045  24456436.056    24456436.2214   24456448.5784
 -11064409.586 9  -8606296.94049  20711569.557    20711569.7894   20711577.4414
 -12806269.175 9  -9712807.12546  22742298.140    22742298.0244   22742309.0124
  -6428046.883 8  -4986942.41345  24095401.779    24095401.3114   24095411.9494
   4105953.203 9   3193843.27748  21604974.125    21604973.5184   21604981.2454
  -9678458.252 9  -2130917.44445  21505932.074    21505931.5734   21505940.1574
 99  5 15 16 17  0.0000000  0  8 27  2 26  4 24  8  7  9             0.000000011
  12202761.482 8   9491965.14445  24818790.041    24818789.6084   24818804.5434
   3023714.766 9   2351615.70047  22300891.692    22300891.1244   22300900.0224
   6094460.901 9   4620170.01246  24463160.431    24463160.6264   24463172.9774
 -11091264.417 9  -8627222.78349  20706459.246    20706459.4764   20706467.1074
 -12857138.094 9  -9752445.19146  22732618.060    22732617.9174   22732628.9184
  -6480073.424 8  -5027482.56545  24085501.387    24085501.0044   24085511.5624
   4133974.554 9   3215678.07848  21610306.447    21610305.8674   21610313.5654
  -9699985.011 9  -2147691.53945  21501835.682    21501835.0484   21501843.8454
 99  5 15 16 17 15.0000000  0  8 27  2 26  4 24  8  7  9             0.000000011
  12262030.148 8   9538148.36445  24830068.685    24830068.2304   24830083.0124
   3049025.632 9   2371338.41147  22305708.235    22305707.6504   22305716.6284
   6129799.498 9   4647706.50845  24469885.238    24469885.3914   24469897.7874
 -11117993.499 9  -8648050.64449  20701372.890    20701373.1184   20701380.7204
 -12907958.647 9  -9792045.58046  22722947.154    22722947.0214   22722958.0284
  -6532054.151 8  -5067987.01545  24075609.725    24075609.3434   24075620.0724
   4162017.003 9   3237529.31948  21615642.771    21615642.1724   21615649.8934
  -9721398.879 8  -2164377.68545  21497760.762    21497760.3004   21497768.9294
 99  5 15 16 17 30.0000000  0  8 27  2 26  4 24  8  7  9             0.000000008
  12321297.890 8   9584330.85945  24841347.108    24841346.7524   24841361.1614
   3074400.743 9   2391111.18847  22310536.954    22310536.3774   22310545.4144
   6165132.867 9   4675238.93945  24476609.065    24476609.2054   24476621.6184
 -11144600.012 9  -8668782.99449  20696309.870    20696310.0934   20696317.6764
 -12958740.587 9  -9831615.86646  22713283.614    22713283.4714   22713294.4914
  -6583993.564 8  -5108459.26045  24065725.936    24065725.4854   24065736.3634
   4190080.789 9   3259397.18948  21620983.156    21620982.5554   21620990.2864
  -9742702.731 8  -2180978.08145  21493706.778    21493706.3674   21493714.7204
 99  5 15 16 17 45.0000000  0  8 27  2 26  4 24  8  7  9             0.000000008
  12380575.913 8   9630521.35245  24852627.397    24852627.2734   24852641.5694
   3099849.787 9   2410941.56147  22315379.781    22315379.2054   22315388.2674
   6200473.836 9   4702777.27745  24483334.361    24483334.5194   24483346.9074
 -11171071.764 9  -8689410.33849  20691272.500    20691272.7104   20691280.2874
 -13009468.375 9  -9871143.97647  22703630.369    22703630.2244   22703641.2764
  -6635877.299 8  -5148888.12045  24055852.749    24055852.2804   24055863.1844
   4218180.980 9   3281293.41848  21626330.424    21626329.8334   21626337.5674
  -9763881.000 8  -2197480.60045  21489676.714    21489676.1964   21489684.7994
 99  5 15 16 18  0.0000000  0  8 27  2 26  4 24  8  7  9             0.000000004
  12439853.068 8   9676711.15945  24863907.491    24863907.4444   24863921.9184
   3125361.102 9   2430820.47047  22320234.424    22320233.8534   22320242.9714
   6235812.948 8   4730314.16645  24490059.293    24490059.4254   24490071.8714
 -11197415.523 9  -8709937.94349  20686259.456    20686259.6704   20686267.2124
 -13060150.277 9  -9910636.31447  22693985.871    22693985.7614   22693996.8424
  -6687714.996 8  -5189281.11645  24045988.354    24045987.9184   24045998.8414
   4246307.883 9   3303210.46748  21631682.813    21631682.2284   21631689.9284
  -9784940.809 8  -2213890.86345  21485669.189    21485668.6624   21485677.2464
 99  5 15 16 18 15.0000000  0  8 27  2 26  4 24  8  7  9            -0.000000003
  12499136.679 8   9722905.97945  24875188.757    24875188.7064   24875203.2634
   3150937.527 9   2450750.11247  22325101.500    22325100.9344   22325110.0694
   6271157.607 8   4757855.38345  24496785.202    24496785.2784   24496797.7654
 -11223623.347 9  -8730359.63349  20681272.277    20681272.4934   20681280.0204
 -13110781.430 9  -9950089.11147  22684351.063    22684350.9814   22684362.0434
  -6739497.520 8  -5229631.12345  24036134.476    24036134.1704   24036144.9464
   4274467.273 9   3325152.82648  21637041.400    21637040.7894   21637048.5174
  -9805872.965 8  -2230201.62745  21481685.976    21481685.4794   21481693.8574
 99  5 15 16 18 30.0000000  0  9 27  2 26  4 24  8  7  9 16         -0.000000013
  12558424.737 8   9769104.30745  24886470.957    24886470.7544   24886485.2724
   3176575.680 9   2470727.85447  22329980.304    22329979.7364   22329988.9094
   6306504.859 9   4785398.59845  24503511.595    24503511.6814   24503524.0994
 -11249695.411 9  -8750675.52149  20676310.938    20676311.1584   20676318.6954
 -13161362.720 9  -9989503.05247  22674725.750    22674725.6344   22674736.7124
  -6791225.633 8  -5269938.71145  24026290.937    24026290.6654   24026301.4004
   4302655.601 9   3347117.74448  21642405.465    21642404.8454   21642412.5944
  -9826678.312 8  -2246413.57345  21477726.824    21477726.0804   21477734.8134
  -2872553.064 9  -2114851.85745  25085888.707    25085887.8814   25085900.4244
 99  5 15 16 18 45.0000000  0  9 27  2 26  4 24  8  7  9 16         -0.000000021
  12617729.264 8   9815315.47345  24897756.408    24897756.1024   24897770.6784
   3202289.459 9   2490764.51647  22334873.502    22334872.9194   22334882.1564
   6341868.350 8   4812954.48045  24510241.076    24510241.2234   24510253.5704
 -11275614.295 9  -8770872.06149  20671378.782    20671378.9924   20671386.5274
 -13211881.937 9 -10028868.63047  22665112.254    22665112.1494   22665123.2164
  -6842886.785 8  -5310194.12745  24016460.199    24016459.8614   24016470.5994
   4330887.844 9   3369116.86948  21647777.836    21647777.2464   21647785.0244
  -9847343.052 8  -2262515.96545  21473794.419    21473793.7424   21473802.5204
  -2896557.749 9  -2133556.75145  25081320.771    25081320.0834   25081332.5014
 99  5 15 16 19  0.0000000  0  8  2 26  4 24  8  7  9 16            -0.000000036
   3228062.714 9   2510847.52747  22339777.975    22339777.4044   22339786.6814
   6377234.673 8   4840512.57945  24516971.100    24516971.2944   24516983.6034
 -11301395.241 9  -8790961.11449  20666472.831    20666473.0384   20666480.5934
 -13262356.209 9 -10068199.18447  22655507.321    22655507.2094   22655518.2594
  -6894496.788 8  -5350409.70645  24006639.178    24006638.8394   24006649.5394
   4359148.244 9   3391137.93648  21653155.626    21653155.0334   21653162.8414
  -9867882.615 8  -2278520.84045  21469885.820    21469885.1484   21469893.8374
  -2920498.500 9  -2152211.84845  25076764.980    25076764.3074   25076776.5664
 99  5 15 16 19 15.0000000  0  8  2 26  4 24  8  7  9 16            -0.000000058
   3253897.543 9   2530978.52247  22344694.141    22344693.5714   22344702.9124
   6412604.570 8   4868073.47945  24523701.896    24523702.0644   24523714.3014
 -11327033.616 9  -8810939.06049  20661594.050    20661594.2564   20661601.8324
 -13312782.152 9 -10107492.08047  22645911.548    22645911.4224   22645922.4744
  -6946053.213 8  -5390583.51445  23996828.325    23996828.0524   23996838.6514
   4387440.303 9   3413183.67848  21658539.427    21658538.8364   21658546.6684
  -9888293.695 8  -2294425.57045  21466001.714    21466001.2374   21466009.4624
  -2944371.175 9  -2170813.90245  25072222.130    25072221.5134   25072233.6484
 99  5 15 16 19 30.0000000  0  8  2 26  4 24  8  7  9 16            -0.000000074
   3279811.009 9   2551170.78647  22349625.292    22349624.6974   22349634.0814
   6447994.567 8   4895650.02545  24530436.449    24530436.5424   24530448.9144
 -11352514.271 9  -8830794.11749  20656745.259    20656745.4634   20656753.0574
 -13363140.476 9 -10146732.28247  22636328.597    22636328.4564   22636339.5124
  -6997537.577 8  -5430701.19245  23987031.177    23987030.8444   23987041.5534
   4415782.743 9   3435268.67548  21663932.842    21663932.2524   21663940.1184
  -9908560.535 8  -2310217.92345  21462145.096    21462144.6964   21462152.5864
  -2968157.099 9  -2189348.36045  25067695.821    25067695.2064   25067707.0394
 99  5 15 16 19 45.0000000  0  8  2 26  4 24  8  7  9 16            -0.000000080
   3305806.651 9   2571427.08747  22354572.110    22354571.5434   22354580.8954
   6483410.113 8   4923246.47445  24537175.804    24537175.8964   24537188.2924
 -11377836.814 9  -8850525.95949  20651926.558    20651926.7594   20651934.3474
 -13413423.274 9 -10185913.63347  22626760.045    22626759.9014   22626770.9244
  -7048945.107 8  -5470758.99945  23977248.656    23977248.2374   23977258.9424
   4444179.172 9   3457395.74648  21669336.530    21669335.9514   21669343.8444
  -9928678.805 8  -2325894.47145  21458316.670    21458315.6184   21458325.6704
  -2991851.362 9  -2207811.36845  25063186.921    25063186.3574   25063198.1244
 99  5 15 16 20  0.0000000  0  8  2 26  4 24  8  7  9 16            -0.000000088
   3331866.507 9   2591733.42847  22359531.167    22359530.6194   22359539.9534
   6518833.088 8   4950848.71145  24543916.539    24543916.7294   24543929.0524
 -11403018.303 9  -8870147.89549  20647134.714    20647134.9064   20647142.4894
 -13463647.071 9 -10225049.01047  22617202.690    22617202.5774   22617213.5504
  -7100294.318 8  -5510771.35445  23967477.245    23967476.7914   23967487.4814
   4472606.394 9   3479546.80948  21674746.098    21674745.5164   21674753.4274
  -9948667.032 8  -2341469.71145  21454512.965    21454512.2704   21454522.0074
  -3015470.972 9  -2226216.20645  25058692.308    25058691.8184   25058703.5014
 99  5 15 16 20 15.0000000  0  8  2 26  4 24  8  7  9 16            -0.000000085
   3358008.465 9   2612103.72947  22364505.877    22364505.3154   22364514.6224
   6554283.068 8   4978472.00945  24550662.438    24550662.6204   24550674.8954
 -11428038.741 9  -8889644.33749  20642373.482    20642373.6524   20642381.2664
 -13513796.464 9 -10264126.41647  22607659.507    22607659.4134   22607670.3594
  -7151564.901 8  -5550722.44145  23957720.784    23957720.2364   23957730.9404
   4501083.906 9   3501737.06048  21680165.253    21680164.6544   21680172.5534
  -9968508.014 8  -2356930.22845  21450737.403    21450736.2054   21450745.2394
  -3038996.121 9  -2244547.43045  25054215.623    25054215.2784   25054226.7304
 99  5 15 16 20 30.0000000  0  8  2 26  4 24  8  7  9 16            -0.000000078
   3384222.635 9   2632530.30047  22369494.281    22369493.7514   22369502.9764
   6589750.818 8   5006109.13945  24557411.663    24557411.8984   24557424.1664
 -11452908.414 9  -8909023.30849  20637640.930    20637641.1284   20637648.6934
 -13563878.773 9 -10303151.54847  22598129.105    22598129.0014   22598139.9744
  -7202765.394 8  -5590618.91045  23947977.632    23947977.0814   23947987.7314
   4529603.177 9   3523959.83948  21685592.296    21685591.7074   21685599.5954
  -9988209.837 8  -2372282.33945  21446988.248    21446986.7204   21446995.6674
  -3062435.786 9  -2262812.06145  25049755.201    25049754.8454   25049766.1874
 99  5 15 16 20 45.0000000  0  8  2 26  4 24  8  7  9 16            -0.000000072
   3410498.578 9   2653005.00747  22374494.492    22374493.9704   22374503.0954
   6625224.414 8   5033750.81645  24564162.090    24564162.3044   24564174.6724
 -11477639.519 9  -8928294.29449  20632934.787    20632934.9764   20632942.5344
 -13613904.379 9 -10342132.48347  22588609.503    22588609.4014   22588620.4114
  -7253910.496 8  -5630472.23045  23938245.057    23938244.4984   23938255.0434
   4558152.511 9   3546206.05848  21691025.083    21691024.5064   21691032.3734
 -10007786.254 7  -2387536.68645  21443262.940    21443261.4594   21443270.8204
  -3085804.209 9  -2281021.17345  25045308.362    25045308.0144   25045319.3544
 99  5 15 16 21  0.0000000  0  8  2 26  4 24  8  7  9 16            -0.000000064
   3436842.413 9   2673532.62947  22379507.670    22379507.1594   22379516.1744
   6660710.105 8   5061401.92845  24570914.867    24570915.1494   24570927.4364
 -11502228.498 9  -8947454.52749  20628255.657    20628255.8364   20628263.3994
 -13663869.568 9 -10381066.34747  22579101.417    22579101.3144   22579112.3314
  -7304993.161 8  -5670276.89145  23928524.368    23928523.8474   23928534.2764
   4586737.213 9   3568479.83548  21696464.559    21696463.9804   21696471.8334
 -10027231.874 7  -2402689.13145  21439562.601    21439561.3304   21439570.0134
  -3109094.675 9  -2299169.54145  25040876.306    25040876.0024   25040887.2684
 99  5 15 16 21 15.0000000  0  8  2 26  4 24  8  7  9 16            -0.000000060
   3463246.034 9   2694106.83347  22384532.186    22384531.6714   22384540.6324
   6696194.975 8   5089052.40045  24577667.435    24577667.7354   24577680.0394
 -11526687.823 9  -8966513.73249  20623601.202    20623601.3884   20623608.9064
 -13713782.969 9 -10419959.85447  22569603.196    22569603.0794   22569614.1374
  -7356022.035 8  -5710039.63445  23918813.864    23918813.3604   23918823.8194
   4615346.671 9   3590772.90448  21701908.756    21701908.1624   21701916.0184
 -10046554.120 7  -2417745.42545  21435885.652    21435884.4454   21435893.0954
  -3132315.300 9  -2317263.49345  25036457.538    25036457.2524   25036468.5814
 99  5 15 16 21 30.0000000  0  8  2 26  4 24  8  7  9 16            -0.000000056
   3489714.469 9   2714731.53047  22389569.078    22389568.5644   22389577.4464
   6731681.047 8   5116703.80445  24584420.286    24584420.5404   24584432.9394
 -11551014.880 9  -8985469.88349  20618971.937    20618972.1034   20618979.5884
 -13763641.812 9 -10458810.85747  22560115.363    22560115.2674   22560126.3364
  -7406993.288 8  -5749757.47445  23909114.357    23909113.8954   23909124.3754
   4643984.739 9   3613088.25848  21707358.408    21707357.8094   21707365.6524
 -10065748.200 7  -2432701.83945  21432233.060    21432231.9154   21432241.0204
  -3155462.617 9  -2335300.30945  25032052.672    25032052.3714   25032063.7384
 99  5 15 16 21 45.0000000  0  8  2 26  4 24  8  7  9 16            -0.000000050
   3516251.880 9   2735409.97047  22394619.081    22394618.5484   22394627.3884
   6767172.845 8   5144359.67945  24591174.238    24591174.4334   24591186.9204
 -11575210.818 9  -9004323.86149  20614367.607    20614367.7604   20614375.2474
 -13813443.268 9 -10497617.14147  22550638.473    22550638.3684   22550649.4634
  -7457900.863 8  -5789425.68945  23899426.945    23899426.4924   23899436.9834
   4672655.745 9   3635429.27848  21712814.299    21712813.7224   21712821.5564
 -10084809.108 7  -2447554.50145  21428605.817    21428605.0234   21428614.1304
  -3178536.306 9  -2353279.75845  25027661.821    25027661.5104   25027672.9564
 99  5 15 16 22  0.0000000  0  8  2 26  4 24  8  7  9 16            -0.000000041
   3542859.035 9   2756142.76647  22399682.344    22399681.8024   22399690.6154
   6802672.843 8   5172021.94245  24597929.745    24597929.9074   24597942.3554
 -11599272.954 9  -9023073.57649  20609788.730    20609788.8904   20609796.3764
 -13863186.683 9 -10536378.19747  22541172.586    22541172.4714   22541183.5384
  -7508744.127 8  -5829043.79845  23889751.755    23889751.2804   23889761.8104
   4701359.927 9   3657796.15248  21718276.553    21718275.9804   21718283.8114
 -10103733.096 7  -2462300.47945  21425004.744    21425004.1784   21425013.0134
  -3201533.334 9  -2371199.47045  25023285.559    25023285.2614   25023296.7804
 99  5 15 16 22 15.0000000  0  8  2 26  4 24  8  7  9 16            -0.000000036
   3569526.402 9   2776922.48547  22404757.051    22404756.4904   22404765.3064
   6838170.446 8   5199682.33245  24604684.838    24604684.9214   24604697.3984
 -11623209.353 9  -9041725.30949  20605233.755    20605233.9334   20605241.4084
 -13912884.889 9 -10575104.02947  22531715.341    22531715.2084   22531726.2274
  -7559532.133 8  -5868618.84845  23880087.120    23880086.5704   23880097.1064
   4730088.401 9   3680181.95848  21723743.470    21723742.8664   21723750.7194
 -10122530.51117  -2476947.81145  21421427.666    21421427.2335   21421435.7974
  -3224462.953 9  -2389066.66145  25018922.165    25018921.7414   25018933.4964
 99  5 15 16 22 30.0000000  0  8  2 26  4 24  8  7  9 16            -0.000000033
   3596260.098 9   2797753.88547  22409844.337    22409843.8084   22409852.5924
   6873669.081 8   5227343.54945  24611440.042    24611440.1144   24611452.7024
 -11647017.123 9  -9060276.81349  20600703.288    20600703.4604   20600710.9334
 -13962532.477 9 -10613790.41447  22522267.721    22522267.5794   22522278.5294
  -7610262.639 8  -5908149.09845  23870433.476    23870432.8934   23870443.4044
   4758845.526 9   3702590.08448  21729215.811    21729215.1874   21729223.0684
 -10141195.77117  -2491492.21044  21417875.757    21417875.6235   21417883.8714
  -3247322.729 9  -2406879.41145  25014572.021    25014571.6034   25014583.5034
 99  5 15 16 22 45.0000000  0  8  2 26  4 24  8  7  9 16            -0.000000030
   3623065.470 9   2818641.13147  22414945.291    22414944.7274   22414953.5804
   6909166.708 8   5255003.97345  24618195.110    24618195.2674   24618207.7714
 -11670694.820 9  -9078726.96749  20596197.586    20596197.7394   20596205.2304
 -14012125.337 9 -10652434.16247  22512830.437    22512830.2824   22512841.1994
  -7660939.349 8  -5947637.41945  23860789.998    23860789.4694   23860799.8934
   4787629.128 9   3725018.84048  21734693.148    21734692.5254   21734700.4194
 -10159731.433 7  -2505935.56744  21414348.462    21414348.3664   21414356.2444
  -3270114.469 9  -2424639.15545  25010234.832    25010234.3654   25010246.4804
 99  5 15 16 23  0.0000000  0  8  2 26  4 24  8  7  9 16            -0.000000027
   3649944.697 9   2839585.93547  22420060.280    22420059.6864   22420068.6294
   6944661.031 8   5282661.81445  24624949.563    24624949.8014   24624962.3074
 -11694244.723 9  -9097077.53349  20591716.204    20591716.3614   20591723.8604
 -14061666.127 9 -10691037.34247  22503403.052    22503402.9384   22503413.7864
  -7711562.991 8  -5987084.40145  23851156.650    23851156.1184   23851166.5174
   4816436.672 9   3747466.26148  21740175.065    21740174.4414   21740182.3444
 -10178141.63616  -2520281.17544  21410844.911    21410845.0305   21410852.7594
  -3292837.168 9  -2442345.09545  25005910.745    25005910.2394   25005922.4554
 99  5 15 16 23 15.0000000  0  9  2 26  4 24  8  7  5  9 16         -0.000000027
   3676891.419 9   2860583.33147  22425188.092    22425187.4764   22425196.4824
   6980143.418 8   5310310.34945  24631701.678    24631701.9274   24631714.4564
 -11717673.460 9  -9115333.68749  20587257.847    20587257.9984   20587265.5054
 -14111160.434 9 -10729604.29147  22493984.543    22493984.4294   22493995.2824
  -7762141.592 8  -6026496.28345  23841531.836    23841531.2824   23841541.7624
   4845260.394 9   3769926.27948  21745660.021    21745659.4234   21745667.3454
  -1070529.275 8   -816492.11052         0.000           0.0004          0.0005
 -10196433.72016  -2534534.70954  21407363.701    21407364.2615          0.0005
  -3315497.069 9  -2460002.11545  25001598.623    25001598.1544   25001610.2864
 99  5 15 16 23 30.0000000  0  8  2 26  4 24  8  7  5 16             0.000000009
   3703906.979 9   2881634.36247  22430328.954    22430328.3574   22430337.4144
   7015618.528 9   5337953.20645  24638452.459    24638452.6644   24638465.3354
 -11740973.850 9  -9133489.83349  20582823.922    20582824.0674   20582831.6054
 -14160601.818 9 -10768130.01247  22484576.116    22484575.9624   22484586.8234
  -7812672.184 8  -6065870.75345  23831916.142    23831915.5894   23831926.1344
   4874103.520 9   3792401.42248  21751148.718    21751148.1034   21751156.0604
  -1112518.221 8   -849210.85543         0.000           0.0004   23971260.7204
  -3338092.788 9  -2477609.10945  24997298.739    24997298.3014   24997310.3594
 99  5 15 16 23 45.0000000  0  8  2 26  4 24  8  7  5 16             0.000000016
   3730986.012 9   2902734.86947  22435481.957    22435481.3504   22435490.4644
   7051088.166 9   5365591.80745  24645202.177    24645202.3314   24645215.1314
 -11764145.957 9  -9151546.00849  20578414.397    20578414.5504   20578422.1074
 -14209989.747 9 -10806614.06147  22475177.861    22475177.7094   22475188.6094
  -7863154.526 8  -6105207.62245  23822309.646    23822309.0694   23822319.6764
   4902962.048 9   3814888.56948  21756640.335    21756639.7124   21756647.7054
  -1154523.47818   -881942.23044         0.000           0.0005   23963264.0864
  -3360626.752 9  -2495168.01345  24993010.608    24993010.1204   24993022.1634
 99  5 15 16 24  0.0000000  0  8  2 26  4 24  8  7  5 16             0.000000018
   3758125.055 9   2923882.12447  22440646.340    22440645.7154   22440654.9494
   7086553.299 9   5393226.91645  24651951.056    24651951.1294   24651963.9004
 -11787186.366 9  -9169499.57049  20574029.946    20574030.0954   20574037.6724
 -14259320.989 9 -10845053.96547  22465790.428    22465790.3174   22465801.1864
  -7913587.302 8  -6144505.87945  23812712.571    23812711.9834   23812722.5514
   4931834.336 9   3837386.43448  21762134.580    21762133.9684   21762141.9624
  -1196542.587 8   -914684.36545  23955259.554    23955258.1204   23955268.5164
  -3383095.300 9  -2512675.92545  24988734.968    24988734.4704   24988746.5364
 99  5 15 16 24 15.0000000  0  8  2 26  4 24  8  7  5 16             0.000000019
   3785334.978 9   2945084.60147  22445824.222    22445823.6104   22445832.9554
   7122023.964 9   5420866.31445  24658700.953    24658701.0764   24658713.8394
 -11810079.128 9  -9187338.08049  20569673.607    20569673.7614   20569681.3494
 -14308582.438 9 -10883439.46647  22456416.285    22456416.1774   22456426.9994
  -7963960.211 8  -6183757.49145  23803126.875    23803126.2694   23803136.9504
   4960731.374 9   3859903.58448  21767633.504    21767632.8814   21767640.8974
  -1238561.604 8   -947426.42845  23947263.562    23947262.4454   23947273.9334
  -3405485.179 9  -2530122.54645  24984474.274    24984473.7294   24984485.7224
 99  5 15 16 24 30.0000000  0  8  2 26  4 24  8  7  5 16             0.000000006
   3812597.215 9   2966327.85747  22451012.004    22451011.3694   22451020.8344
   7157481.657 9   5448495.60545  24665448.425    24665448.5954   24665461.2754
 -11832841.449 9  -9205074.93649  20565342.080    20565342.2104   20565349.8164
 -14357790.434 9 -10921783.31547  22447052.337    22447052.2194   22447062.9934
  -8014289.287 8  -6222974.93345  23793549.530    23793548.9094   23793559.6334
   4989637.560 9   3882427.87448  21773134.157    21773133.5434   21773141.5344
  -1280596.505 8   -980180.85345  23939264.621    23939262.9034   23939274.1144
  -3427816.225 9  -2547523.33445  24980224.808    24980224.2904   24980236.2334
 99  5 15 16 24 45.0000000  0  8  2 26  4 24  8  7  5 16            -0.000000004
   3839934.660 9   2987629.71847  22456214.142    22456213.5274   22456223.0614
   7192948.457 9   5476131.98745  24672197.615    24672197.7824   24672210.4394
 -11855449.980 9  -9222691.97649  20561039.839    20561039.9784   20561047.5704
 -14406918.729 9 -10960065.07047  22437703.537    22437703.4314   22437714.2004
  -8064549.480 8  -6262138.70145  23783985.367    23783984.7404   23783995.4044
   5018578.674 9   3904979.36848  21778641.499    21778640.8714   21778648.8814
  -1322623.933 8  -1012929.47145  23931267.100    23931266.5694   23931276.1194
  -3450063.970 9  -2564859.20945  24975991.238    24975990.7614   24976002.6034
 99  5 15 16 25  0.0000000  0  8  2 26  4 24  8  7  5 16            -0.000000019
   3867332.697 9   3008978.78247  22461427.891    22461427.2774   22461436.8724
   7228413.469 9   5503766.98245  24678946.483    24678946.6804   24678959.2354
 -11877919.433 9  -9240200.62949  20556764.025    20556764.1584   20556771.7674
 -14455981.792 9 -10998295.98547  22428367.161    22428367.0254   22428377.8004
  -8114748.143 8  -6301254.53445  23774432.925    23774432.3134   23774442.9994
   5047544.804 9   3927550.36348  21784153.576    21784152.9254   21784160.9444
  -1364656.069 8  -1045681.76345  23923268.664    23923268.3064   23923277.7504
  -3472235.760 9  -2582135.91145  24971772.118    24971771.5734   24971783.4974
 99  5 15 16 25 15.0000000  0  8  2 26  4 24  8  7  5 16            -0.000000034
   3894799.660 9   3030381.56447  22466654.700    22466654.0594   22466663.7184
   7263888.550 9   5531409.82845  24685697.230    24685697.4374   24685710.0294
 -11900238.632 9  -9257592.20149  20552516.804    20552516.9394   20552524.5574
 -14504971.163 9 -11036469.47947  22419044.780    22419044.6484   22419055.4524
  -8164870.975 8  -6340311.27045  23764894.896    23764894.3264   23764904.9234
   5076548.769 9   3950150.84048  21789672.822    21789672.1844   21789680.2094
  -1406684.280 8  -1078430.96945  23915270.994    23915270.0834   23915280.3714
  -3494319.126 9  -2599343.69845  24967569.819    24967569.1814   24967581.1434
 99  5 15 16 25 30.0000000  0  8  2 26  4 24  8  7  5 16            -0.000000048
   3922335.115 9   3051837.69747  22471894.559    22471893.9214   22471903.6244
   7299378.181 9   5559064.01345  24692450.777    24692450.9124   24692463.6244
 -11922402.493 9  -9274862.73949  20548299.147    20548299.2884   20548306.9154
 -14553882.212 9 -11074581.95547  22409737.295    22409737.1724   22409747.9884
  -8214914.685 8  -6379306.35245  23755371.912    23755371.3094   23755381.8854
   5105591.906 9   3972781.83148  21795199.546    21795198.9084   21795206.9474
  -1448701.672 8  -1111171.75945  23907275.246    23907274.3794   23907284.6464
  -3516311.960 9  -2616480.95345  24963384.756    24963384.1494   24963396.0644
 99  5 15 16 25 45.0000000  0  8  2 26  4 24  8  7  5 16            -0.000000063
   3949936.536 9   3073345.24947  22477146.985    22477146.3854   22477156.0974
   7334877.869 9   5586726.03145  24699206.242    24699206.3154   24699219.1084
 -11944415.961 9  -9292016.07549  20544110.086    20544110.2284   20544117.8454
 -14602721.429 9 -11112638.44947  22400443.480    22400443.3564   22400454.1784
  -8264881.721 8  -6418241.68345  23745863.491    23745862.8814   23745873.3714
   5134670.299 9   3995440.30148  21800733.006    21800732.3774   21800740.3974
  -1490711.281 8  -1143906.48945  23899280.995    23899279.9624   23899290.5284
  -3538216.350 8  -2633549.28245  24959216.492    24959215.8744   24959227.8164
 99  5 15 16 26  0.0000000  0  8  2 26  4 24  8  7  5 16            -0.000000079
   3977602.778 9   3094903.30447  22482411.802    22482411.1804   22482420.8414
   7370379.227 9   5614389.35045  24705962.005    24705962.0884   24705974.8664
 -11966285.849 9  -9309057.54249  20539948.398    20539948.5404   20539956.1314
 -14651495.838 9 -11150644.45647  22391161.941    22391161.8124   22391172.6504
  -8314777.429 8  -6457121.44645  23736368.659    23736368.1144   23736378.5294
   5163779.906 9   4018123.08948  21806272.396    21806271.7724   21806279.8004
  -1532718.481 8  -1176639.34245  23891287.212    23891286.2474   23891296.8814
  -3560037.398 9  -2650552.67445  24955064.076    24955063.5104   24955075.3464
 99  5 15 16 26 15.0000000  0  8  2 26  4 24  8  7  5 16            -0.000000089
   4005346.715 9   3116521.90447  22487691.397    22487690.7554   22487700.3904
   7405886.671 9   5642057.42946  24712718.943    24712718.9514   24712731.7244
 -11988005.423 9  -9325981.87549  20535815.283    20535815.4314   20535823.0234
 -14700199.372 9 -11188595.22747  22381893.920    22381893.7584   22381904.6684
  -8364595.605 8  -6495940.78345  23726888.566    23726888.0084   23726898.3874
   5192930.647 9   4040837.93048  21811819.617    21811819.0124   21811827.0004
  -1574717.917 8  -1209366.14045  23883295.002    23883294.1894   23883304.8864
  -3581766.993 8  -2667484.79445  24950929.053    24950928.5134   24950940.2354
 99  5 15 16 26 30.0000000  0  8  2 26  4 24  8  7  5 16            -0.000000098
   4033162.567 9   3138196.53347  22492984.647    22492984.0214   22492993.5944
   7441391.065 9   5669723.12246  24719475.265    24719475.2434   24719488.0644
 -12009583.037 9  -9342795.59649  20531709.161    20531709.3134   20531716.8724
 -14748840.444 9 -11226497.33047  22372637.752    22372637.6064   22372648.5104
  -8414346.206 8  -6534707.47645  23717421.294    23717420.7214   23717431.1324
   5222114.463 9   4063578.53848  21817373.141    21817372.5174   21817380.4684
  -1616718.002 8  -1242093.44445  23875302.700    23875301.9724   23875312.4964
  -3603414.721 9  -2684353.13545  24946809.631    24946808.9344   24946820.8084
 99  5 15 16 26 45.0000000  0  8  2 26  4 24  8  7  5 16            -0.000000101
   4061054.029 9   3159930.07347  22498292.301    22498291.6674   22498301.2214
   7476896.213 9   5697389.39946  24726231.720    24726231.7354   24726244.6054
 -12031018.355 9  -9359498.43249  20527630.147    20527630.3074   20527637.8784
 -14797415.827 9 -11264348.24047  22363394.117    22363393.9644   22363404.8504
  -8464024.874 8  -6573418.11445  23707967.695    23707967.1264   23707977.5774
   5251332.378 9   4086345.71948  21822933.156    21822932.5384   21822940.4744
  -1658718.031 8  -1274820.70145  23867310.342    23867309.7554   23867320.0994
  -3624975.468 9  -2701153.70445  24942706.768    24942705.9944   24942717.9294
 99  5 15 16 27  0.0000000  0  8  2 26  4 24  8  7  5 16            -0.000000100
   4089015.592 9   3181718.23847  22503613.286    22503612.6634   22503622.1584
   7512396.590 9   5725051.95046  24732987.284    24732987.2894   24733000.1934
 -12052317.349 9  -9376095.04549  20523577.050    20523577.2234   20523584.7724
 -14845932.350 9 -11302153.30247  22354161.708    22354161.5364   22354172.3614
  -8513635.037 8  -6612075.37945  23698527.148    23698526.6214   23698537.1044
   5280574.053 9   4109131.41648  21828497.707    21828497.0764   21828505.0254
  -1700723.336 8  -1307552.06645  23859317.012    23859316.4984   23859326.8814
  -3646449.505 9  -2717886.70645  24938620.422    24938619.6824   24938631.5934
 99  5 15 16 27 15.0000000  0  8  2 26  4 24  8  7  5 16            -0.000000097
   4117047.671 9   3203561.36847  22508947.674    22508947.0604   22508956.4824
   7547892.445 9   5752710.98946  24739741.976    24739741.9434   24739754.9364
 -12073477.049 9  -9392583.11149  20519550.501    20519550.6514   20519558.1964
 -14894389.882 9 -11339912.38647  22344940.521    22344940.3504   22344951.1374
  -8563179.620 8  -6650681.53645  23689099.107    23689098.6484   23689109.0304
   5309834.428 9   4131931.68948  21834065.784    21834065.1614   21834073.0864
  -1742735.678 8  -1340288.90845  23851322.263    23851321.8144   23851332.3344
  -3667837.629 8  -2734552.76745  24934550.356    24934549.6314   24934561.6074
 99  5 15 16 27 30.0000000  0  8  2 26  4 24  8  7  5 16            -0.000000093
   4145151.059 9   3225460.03947  22514295.592    22514294.9884   22514304.3694
   7583383.638 9   5780366.39546  24746495.812    24746495.7774   24746508.6944
 -12094494.575 9  -9408960.40149  20515551.014    20515551.1604   20515558.6764
 -14942783.568 9 -11377621.71547  22335731.529    22335731.3554   22335742.1014
  -8612659.080 8  -6689236.95245  23679683.442    23679682.9574   23679693.4124
   5339114.666 9   4154747.43848  21839637.640    21839637.0244   21839644.9714
  -1784753.422 8  -1373029.97745  23843326.497    23843325.9304   23843336.7224
  -3689141.246 8  -2751152.96645  24930496.352    24930495.6674   24930507.6284
 99  5 15 16 27 45.0000000  0  8  2 26  4 24  8  7  5 16            -0.000000082
   4173334.527 9   3247421.12747  22519658.790    22519658.1654   22519667.5214
   7618876.860 9   5808023.36946  24753250.025    24753249.9614   24753262.9094
 -12115363.900 9  -9425222.20349  20511579.662    20511579.8094   20511587.3244
 -14991106.854 9 -11415276.19347  22326535.915    22326535.7614   22326546.4654
  -8662065.527 8  -6727735.46845  23670281.689    23670281.1554   23670291.7014
   5368424.447 9   4177586.20848  21845215.159    21845214.5424   21845222.4744
  -1826770.440 8  -1405770.49145  23835330.904    23835330.3644   23835341.2634
  -3710353.079 8  -2767681.64945  24926459.778    24926458.9924   24926471.1144
 99  5 15 16 28  0.0000000  0  8  2 26  4 24  8  7  5 16            -0.000000074
   4201582.847 9   3269432.73447  22525034.311    22525033.6844   22525043.0254
   7654355.836 9   5835669.24046  24760001.512    24760001.4974   24760014.3924
 -12136101.160 9  -9441381.10449  20507633.474    20507633.6414   20507641.1464
 -15039373.132 9 -11452886.25147  22317351.170    22317351.0194   22317361.7104
  -8711413.408 8  -6766188.35745  23660891.093    23660890.5564   23660901.1144
   5397750.653 9   4200437.77148  21850795.788    21850795.1494   21850803.0994
  -1868804.204 8  -1438524.04245  23827332.170    23827331.7414   23827342.5144
  -3731487.854 8  -2784150.28945  24922437.878    24922437.1474   24922449.2384
 99  5 15 16 28 15.0000000  0  8  2 26  4 24  8  7  5 16            -0.000000069
   4229894.259 9   3291493.53347  22530421.816    22530421.1944   22530430.5044
   7689822.325 9   5863305.38345  24766750.632    24766750.5954   24766763.5524
 -12156703.712 9  -9457435.02949  20503712.925    20503713.0954   20503720.6144
 -15087578.113 9 -11490448.53547  22308178.068    22308177.8904   22308188.5854
  -8760701.103 8  -6804594.35145  23651511.996    23651511.4794   23651522.0084
   5427092.895 9   4223301.83348  21856379.461    21856378.8244   21856386.7864
  -1910852.231 8  -1471288.70145  23819330.681    23819330.3014   23819341.2004
  -3752543.555 8  -2800557.31445  24918431.031    24918430.2904   24918442.4934
 99  5 15 16 28 30.0000000  0  8  2 26  4 24  8  7  5 16            -0.000000065
   4258272.398 9   3313606.29347  22535822.006    22535821.3664   22535830.7274
   7725284.971 9   5890938.52445  24773498.996    24773498.9044   24773511.8894
 -12177165.265 9  -9473379.09449  20499819.221    20499819.3804   20499826.9174
 -15135713.211 9 -11527956.37647  22299018.232    22299018.0414   22299028.7634
  -8809920.132 8  -6842946.83945  23642145.927    23642145.3844   23642155.9434
   5456455.973 9   4246182.13248  21861967.099    21861966.4554   21861974.4464
  -1952905.718 8  -1504057.62045  23811328.140    23811327.8304   23811338.8074
  -3773512.319 8  -2816896.58645  24914440.772    24914440.1024   24914452.3084
 99  5 15 16 28 45.0000000  0  8  2 26  4 24  8  7  5 16            -0.000000060
   4286716.133 9   3335770.18447  22541234.685    22541234.0484   22541243.3944
   7760746.780 9   5918571.01145  24780247.246    24780247.1424   24780260.0434
 -12197484.321 9  -9489212.11549  20495952.603    20495952.7574   20495960.2974
 -15183778.273 9 -11565409.63447  22289871.733    22289871.5534   22289882.2764
  -8859067.409 8  -6881243.41345  23632793.514    23632792.8984   23632803.4854
   5485841.109 9   4269079.61548  21867558.944    21867558.3044   21867566.3044
  -1994961.467 8  -1536828.30545  23803325.168    23803324.8124   23803335.7234
  -3794393.650 8  -2833167.74045  24910467.123    24910466.4634   24910478.7234
 99  5 15 16 29  0.0000000  0  8  2 26  4 24  8  7  5 16            -0.000000056
   4315223.525 9   3357983.68047  22546659.518    22546658.8624   22546668.2184
   7796204.907 9   5946200.63645  24786994.753    24786994.6304   24787007.5054
 -12217664.672 9  -9504937.05549  20492112.439    20492112.5964   20492120.1394
 -15231775.372 9 -11602809.94547  22280738.201    22280737.9964   22280748.7164
  -8908143.399 8  -6919484.43845  23623454.692    23623454.0434   23623464.6774
   5515245.713 9   4291992.27448  21873154.480    21873153.8314   21873161.8444
  -2037022.042 8  -1569602.74245  23795321.283    23795320.8134   23795331.8764
  -3815188.686 8  -2849371.65545  24906509.846    24906509.2034   24906521.5684
 99  5 15 16 29 15.0000000  0  8  2 26  4 24  8  7  5 16            -0.000000056
   4343788.729 9   3380242.23247  22552095.341    22552094.6804   22552104.0524
   7831651.917 9   5973821.59745  24793740.109    24793740.0704   24793752.9704
 -12237711.072 9  -9520557.61849  20488297.720    20488297.8774   20488305.4174
 -15279708.500 9 -11640160.40247  22271616.870    22271616.6514   22271627.3324
  -8957156.387 8  -6957676.37845  23614127.845    23614127.1804   23614137.7934
   5544665.552 9   4314916.79948  21878752.868    21878752.2254   21878760.2434
  -2079092.180 8  -1602384.63245  23787315.578    23787315.0644   23787326.1654
  -3835908.822 8  -2865517.18445  24902566.849    24902566.1724   24902578.5664
 99  5 15 16 29 30.0000000  0  8  2 26  4 24  8  7  5 16            -0.000000054
   4372425.959 9   3402556.90447  22557544.867    22557544.2074   22557553.6224
   7867100.370 9   6001443.66845  24800485.826    24800485.6714   24800498.6314
 -12257610.442 9  -9536063.61449  20484510.996    20484511.1584   20484518.7024
 -15327562.565 9 -11677449.26047  22262510.519    22262510.2754   22262520.9324
  -9006095.240 8  -6995810.53345  23604815.066    23604814.4074   23604825.0064
   5574117.223 9   4337866.13448  21884357.340    21884356.7254   21884364.7474
  -2121157.303 8  -1635162.62945  23779310.827    23779310.3174   23779321.4084
  -3856545.814 8  -2881597.93445  24898639.656    24898638.9524   24898651.4214
 99  5 15 16 29 45.0000000  0  8  2 26  4 24  8  7  5 16            -0.000000055
   4401124.012 9   3424918.95047  22563005.884    22563005.2564   22563014.7334
   7902541.171 8   6029059.79645  24807230.093    24807229.9024   24807242.8574
 -12277372.067 9  -9551462.27649  20480750.497    20480750.6414   20480758.1914
 -15375347.584 9 -11714684.32647  22253417.292    22253417.0604   22253427.6674
  -9054966.685 8  -7033892.16845  23595515.126    23595514.4454   23595525.0464
   5603591.463 9   4360833.04948  21889966.126    21889965.5224   21889973.5234
  -2163224.873 8  -1667942.52245  23771305.635    23771305.0584   23771316.2734
  -3877109.661 8  -2897621.68045  24894726.413    24894725.7404   24894738.1754
 99  5 15 16 30  0.0000000  0  8  2 26  4 24  8  7  5 16            -0.000000058
   4429886.078 9   3447330.89047  22568479.128    22568478.5074   22568488.0704
   7937977.770 8   6056672.62245  24813973.536    24813973.3824   24813986.3054
 -12296989.817 9  -9566748.82349  20477017.354    20477017.4964   20477025.0634
 -15423061.367 9 -11751863.87047  22244337.630    22244337.4164   22244347.9874
  -9103766.129 8  -7071917.69745  23586228.876    23586228.2044   23586238.8134
   5633088.549 9   4383817.77648  21895579.265    21895578.6664   21895586.6684
  -2205291.108 8  -1700721.36945  23763300.698    23763300.1394   23763311.3604
  -3897597.164 8  -2913585.94445  24890827.654    24890827.0694   24890839.5644
 99  5 15 16 30 15.0000000  0  8  2 26  4 24  8  7  5 16            -0.000000063
   4458712.526 9   3469792.99947  22573964.603    22573963.9804   22573973.5894
   7973410.501 8   6084282.45745  24820716.162    24820716.1164   24820729.0934
 -12316461.557 9  -9581921.59849  20473311.976    20473312.1214   20473319.7024
 -15470701.416 9 -11788985.96747  22235271.997    22235271.7624   22235282.3514
  -9152494.384 8  -7109887.75545  23576956.128    23576955.4634   23576966.1454
   5662605.397 9   4406817.89648  21901196.174    21901195.5784   21901203.5794
  -2247354.548 8  -1733498.05545  23755296.257    23755295.6914   23755306.9414
  -3918007.109 8  -2929489.77945  24886943.721    24886943.1974   24886955.7394
 99  5 15 16 30 30.0000000  0  8  2 26  4 24  8  7  5 16            -0.000000004
   4487591.100 9   3492295.73247  22579460.046    22579459.4254   22579469.0584
   8008823.615 8   6111876.99145  24827455.064    24827455.0904   24827467.9394
 -12335800.339 9  -9596990.77449  20469631.928    20469632.0694   20469639.6484
 -15518284.575 9 -11826063.73647  22226217.211    22226217.0004   22226227.5474
  -9201164.952 8  -7147812.87445  23567694.395    23567693.7854   23567704.4554
   5692127.366 9   4429822.00248  21906814.063    21906813.4684   21906821.4554
  -2289428.143 8  -1766282.63745  23747289.845    23747289.3044   23747300.5624
  -3938352.240 8  -2945343.10145  24883072.208    24883071.6484   24883084.2244
 99  5 15 16 30 45.0000000  0  8  2 26  4 24  8  7  5 16            -0.000000014
   4516542.440 9   3514855.15747  22584969.320    22584968.6714   22584978.4104
   8044235.068 8   6139470.26245  24834193.663    24834193.6954   24834206.5254
 -12354987.987 9  -9611942.18149  20465980.651    20465980.8064   20465988.3434
 -15565794.135 9 -11863084.14647  22217176.459    22217176.2594   22217186.7634
  -9249760.067 8  -7185679.18545  23558447.016    23558446.4474   23558457.0994
   5721674.637 9   4452845.82848  21912436.748    21912436.1364   21912444.1354
  -2331492.729 8  -1799060.20545  23739285.147    23739284.6064   23739295.9514
  -3958616.363 8  -2961133.29245  24879216.142    24879215.5784   24879228.1284
 99  5 15 16 31  0.0000000  0  8  2 26  4 24  8  7  5 16            -0.000000020
   4545572.495 9   3537475.91647  22590493.572    22590492.9574   22590502.7554
   8079649.531 8   6167065.84845  24840932.855    24840932.9894   24840945.7024
 -12374017.799 9  -9626770.59449  20462359.426    20462359.5734   20462367.0884
 -15613223.682 9 -11900042.21947  22208150.962    22208150.7474   22208161.1864
  -9298275.037 8  -7223483.05445  23549214.940    23549214.2884   23549224.9784
   5751252.877 9   4475893.78648  21918065.330    21918064.6904   21918072.7284
  -2373545.097 8  -1831828.24545  23731282.796    23731282.1964   23731293.4964
  -3978792.226 8  -2976854.69745  24875376.811    24875376.0964   24875388.8414
 99  5 15 16 31 15.0000000  0  8  2 26  4 24  8  7  5 16            -0.000000025
   4574676.270 9   3560154.12247  22596031.871    22596031.2734   22596041.0974
   8115060.257 8   6194658.53745  24847671.377    24847671.5754   24847684.2814
 -12392893.093 9  -9641478.61249  20458767.604    20458767.7404   20458775.2274
 -15660577.650 9 -11936941.39847  22199139.884    22199139.6254   22199150.0124
  -9346716.032 8  -7261229.27645  23539996.902    23539996.2704   23540006.9484
   5780856.226 9   4498961.30648  21923698.645    21923698.0204   21923706.0804
  -2415591.046 8  -1864591.29045  23723281.656    23723280.9254   23723292.2944
  -3998886.035 8  -2992512.17445  24871553.055    24871552.2934   24871565.0834
 99  5 15 16 31 30.0000000  0  8  2 26  4 24  8  7  5 16            -0.000000030
   4603858.298 9   3582893.29947  22601585.133    22601584.5284   22601594.3664
   8150470.058 8   6222250.49745  24854409.687    24854409.7904   24854422.5384
 -12411607.665 9  -9656061.38749  20455206.330    20455206.4454   20455213.9294
 -15707854.854 9 -11973780.75747  22190143.324    22190143.0644   22190153.4624
  -9395081.250 8  -7298916.44845  23530793.343    23530792.6714   23530803.3904
   5810488.779 9   4522051.58148  21929337.531    21929336.9264   21929345.0024
  -2457626.102 8  -1897345.85845  23715282.600    23715281.8824   23715293.1764
  -4018893.666 8  -3008102.49945  24867745.706    24867745.0874   24867757.7514
 99  5 15 16 31 45.0000000  0  8  2 26  4 24  8  7  5 16            -0.000000038
   4633113.290 9   3605689.34547  22607152.276    22607151.6544   22607161.4964
   8185872.594 8   6249836.79445  24861146.542    24861146.7664   24861159.5304
 -12430166.152 9  -9670522.53349  20451674.740    20451674.8704   20451682.3284
 -15755063.397 9 -12010566.61347  22181159.826    22181159.5534   22181169.9854
  -9443373.755 9  -7336546.96746  23521603.563    23521602.9034   23521613.6444
   5840143.674 9   4545159.26648  21934980.695    21934980.0894   21934988.1804
  -2499657.021 8  -1930097.20445  23707284.402    23707283.6894   23707294.8914
  -4038815.320 8  -3023625.85045  24863954.808    24863954.2924   24863966.6414
 99  5 15 16 32  0.0000000  0  8  2 26  4 24  8  7  5 16            -0.000000044
   4662452.401 9   3628550.93447  22612735.346    22612734.7394   22612744.5754
   8221277.425 8   6277424.87745  24867883.843    24867884.1424   24867896.9724
 -12448561.816 9  -9684856.80649  20448174.188    20448174.3334   20448181.7494
 -15802196.311 9 -12047293.54047  22172190.675    22172190.4124   22172200.8774
  -9491585.262 9  -7374114.36146  23512429.192    23512428.6444   23512439.2604
   5869830.685 9   4568291.97948  21940629.983    21940629.3684   21940637.4594
  -2541675.586 8  -1962838.90845  23699288.549    23699287.6154   23699298.9304
  -4058639.044 8  -3039072.87045  24860182.587    24860182.0044   24860194.1434
 99  5 15 16 32 15.0000000  0  9  2 26  4 24  8  7  5  9 16          0.000000048
   4691872.171 9   3651475.37347  22618333.800    22618333.2044   22618343.1144
   8256677.120 8   6305008.97445  24874620.213    24874620.4894   24874633.5464
 -12466806.106 9  -9699073.12749  20444702.432    20444702.5574   20444709.9524
 -15849258.636 9 -12083965.45447  22163234.905    22163234.6624   22163245.2084
  -9539724.958 8  -7411625.80546  23503268.534    23503267.9664   23503278.5964
   5899544.505 9   4591445.58148  21946284.378    21946283.7634   21946291.8144
  -2583689.939 8  -1995577.32545  23691293.486    23691292.5694   23691303.8374
  -1108811.507 8   -858571.67042         0.000           0.0004          0.0004
  -4078369.406 8  -3054447.15545  24856428.141    24856427.5234   24856439.4794
 99  5 15 16 32 30.0000000  0  9  2 26  4 24  8  7  5  9 16          0.000000061
   4721369.060 9   3674459.89347  22623946.922    22623946.3184   22623956.3074
   8292067.175 8   6332585.56145  24881354.726    24881354.9374   24881368.1294
 -12484905.688 9  -9713176.68749  20441258.185    20441258.3114   20441265.6794
 -15896253.145 9 -12120584.52747  22154292.050    22154291.8134   22154302.4604
  -9587795.209 9  -7449083.14246  23494121.111    23494120.5594   23494131.1674
   5929284.248 9   4614619.38148  21951943.695    21951943.0664   21951951.0774
  -2625702.213 8  -2028314.12545  23683298.796    23683297.8644   23683309.1714
  -1122167.431 9   -868978.87842         0.000           0.0004          0.0004
  -4098008.136 8  -3069750.02445  24852691.089    24852690.4904   24852702.2404
 99  5 15 16 32 45.0000000  0  9  2 26  4 24  8  7  5  9 16          0.000000077
   4750945.264 9   3697506.22946  22629575.128    22629574.5114   22629584.5664
   8327451.872 8   6360157.97645  24888088.264    24888088.4644   24888101.7504
 -12502858.377 9  -9727165.78249  20437841.885    20437842.0164   20437849.3594
 -15943175.647 9 -12157147.48147  22145362.907    22145362.6954   22145373.3624
  -9635791.133 9  -7486482.56046  23484987.798    23484987.1924   23484997.7814
   5959055.346 9   4637817.62748  21957608.974    21957608.3344   21957616.2974
  -2667709.518 9  -2061047.05145  23675305.100    23675304.2174   23675315.4414
  -1135380.931 9   -879275.16952         0.000           0.0004          0.0005
  -4117551.201 8  -3084978.34745  24848972.224    24848971.6444   24848983.1074
 99  5 15 16 33  0.0000000  0  9  2 26  4 24  8  7  5  9 16          0.000000087
   4780594.918 9   3720609.79646  22635217.306    22635216.7054   22635226.7624
   8362826.552 8   6387722.56945  24894819.887    24894820.0644   24894833.3944
 -12520670.372 9  -9741045.25149  20434452.370    20434452.5134   20434459.8344
 -15990033.148 9 -12193659.80047  22136446.190    22136445.9984   22136456.6424
  -9683717.954 9  -7523828.13146  23475867.651    23475867.0054   23475877.5894
   5988853.111 9   4661036.63848  21963279.302    21963278.6594   21963286.5844
  -2709721.367 9  -2093783.51945  23667310.522    23667309.7024   23667320.8074
  -1148455.766 9   -889463.37345         0.000           0.0004   21291161.3924
  -4137003.645 8  -3100136.06245  24845270.589    24845270.0974   24845281.4014
 99  5 15 16 33 15.0000000  0  9  2 26  4 24  8  7  5  9 16          0.000000093
   4810313.305 9   3743766.92446  22640872.530    22640871.9404   22640882.0154
   8398186.193 9   6415275.47145  24901548.685    24901548.8774   24901562.1014
 -12538345.487 9  -9754818.05849  20431088.924    20431089.0514   20431096.3794
 -16036827.169 9 -12230122.65047  22127541.576    22127541.3924   22127551.9894
  -9731576.675 9  -7561120.63846  23466760.494    23466759.8404   23466770.3754
   6018675.564 9   4684274.88948  21968954.336    21968953.7004   21968961.6424
  -2751741.709 9  -2126526.60445  23659314.335    23659313.5484   23659324.5314
  -1161394.45919   -899545.47646  21288693.026    21288692.7955   21288700.2194
  -4156366.968 8  -3115224.34545  24841585.877    24841585.3284   24841596.6814
 99  5 15 16 33 30.0000000  0  9  2 26  4 24  8  7  5  9 16          0.000000101
   4840108.790 9   3766984.13046  22646542.439    22646541.8454   22646551.9154
   8433539.559 9   6442823.48545  24908276.267    24908276.2894   24908289.6124
 -12555874.626 9  -9768477.12049  20427753.248    20427753.3714   20427760.6814
 -16083548.080 9 -12266528.53047  22118650.883    22118650.6874   22118661.2554
  -9779357.004 9  -7598352.05646  23457668.211    23457667.5754   23457678.0604
   6048533.394 9   4707540.71448  21974636.124    21974635.4664   21974643.4524
  -2793759.395 9  -2159267.62145  23651318.601    23651317.8434   23651328.7404
  -1174189.691 9   -909515.78246  21286257.765    21286257.9104   21286265.6854
  -4175632.389 8  -3130236.33645  24837919.742    24837919.2664   24837930.6334
 99  5 15 16 33 45.0000000  0  9  2 26  4 24  8  7  5  9 16          0.000000097
   4869967.440 9   3790250.55046  22652224.403    22652223.7914   22652233.8864
   8468873.569 9   6470356.39845  24915000.197    24915000.2944   24915013.5524
 -12573271.625 9  -9782033.21949  20424442.708    20424442.8324   20424450.1254
 -16130205.478 9 -12302884.93147  22109772.268    22109772.0734   22109782.6144
  -9827069.382 9  -7635530.53046  23448588.852    23448588.2214   23448598.7554
   6078413.976 9   4730824.25148  21980322.226    21980321.5504   21980329.5544
  -2835787.817 9  -2192017.00645  23643320.860    23643320.1104   23643330.9644
  -1186850.973 9   -919381.72346  21283850.464    21283848.8984   21283856.4214
  -4194810.446 8  -3145180.25045  24834270.235    24834269.7934   24834281.0334
 99  5 15 16 34  0.0000000  0  9  2 26  4 24  8  7  5  9 16          0.000000084
   4899875.130 9   3813555.17246  22657915.713    22657915.0924   22657925.1594
   8504178.115 9   6497866.36045  24921718.495    24921718.5624   24921731.8064
 -12590551.678 9  -9795498.18149  20421154.410    20421154.5294   20421161.8284
 -16176806.805 9 -12339197.62747  22100904.297    22100904.1234   22100914.6464
  -9874722.681 8  -7672662.96146  23439520.652    23439519.9984   23439530.6124
   6108305.689 9   4754116.47648  21986010.451    21986009.7824   21986017.8124
  -2877839.900 9  -2224784.83745  23635318.588    23635317.9594   23635328.7894
  -1199389.991 9   -929152.39446  21281464.478    21281462.8204   21281470.3574
  -4213915.174 8  -3160067.01545  24830634.689    24830634.0804   24830645.3984
 99  5 15 16 34 15.0000000  0  9  2 26  4 24  8  7  5  9 16          0.000000072
   4929847.964 9   3836910.56446  22663619.401    22663618.7634   22663628.7764
   8539467.784 9   6525364.71145  24928433.982    24928434.1734   24928447.2034
 -12607699.023 9  -9808859.73649  20417891.376    20417891.4884   20417898.7904
 -16223334.107 9 -12375452.64247  22092050.426    22092050.2424   22092060.7804
  -9922300.217 8  -7709736.35446  23430466.896    23430466.3064   23430476.9164
   6138223.703 9   4777429.19147  21991703.648    21991702.9614   21991710.9944
  -2919898.718 9  -2257557.91045  23627315.013    23627314.4814   23627325.3154
  -1211793.359 9   -938817.35646  21279103.800    21279102.3544   21279110.0494
  -4232931.770 8  -3174885.11345  24827015.932    24827015.2554   24827026.7264
 99  5 15 16 34 30.0000000  0  9  2 26  4 24  8  7  5  9 16          0.000000056
   4959877.288 9   3860309.97046  22669333.807    22669333.1774   22669343.0824
   8574733.925 9   6552844.74045  24935145.011    24935145.1874   24935158.1784
 -12624713.794 9  -9822117.99649  20414653.591    20414653.7194   20414661.0074
 -16269790.317 9 -12411652.26347  22083210.098    22083209.8924   22083220.4684
  -9969804.179 9  -7746752.41246  23421427.144    23421426.5644   23421437.2034
   6168159.666 9   4800755.88447  21997400.298    21997399.6274   21997407.6454
  -2961968.366 9  -2290339.41445  23619309.358    23619308.8634   23619319.6994
  -1224069.504 9   -948383.18646  21276767.342    21276766.2914   21276773.9854
  -4251866.282 8  -3189639.25145  24823412.813    24823412.1404   24823423.6974
 99  5 15 16 34 45.0000000  0  9  2 26  4 24  8  7  5  9 16          0.000000043
   4989975.117 9   3883762.76846  22675061.260    22675060.6024   22675070.4634
   8609989.524 9   6580316.52645  24941854.073    24941854.2434   24941867.0704
 -12641577.720 9  -9835258.70349  20411444.473    20411444.5914   20411451.8774
 -16316162.641 9 -12447786.51347  22074385.691    22074385.4914   22074396.1154
 -10017220.127 9  -7783699.90246  23412404.180    23412403.6204   23412414.2274
   6198124.808 9   4824105.33347  22003102.499    22003101.8304   22003109.8454
  -3004033.006 9  -2323117.02945  23611304.667    23611304.1554   23611315.1304
  -1236201.812 9   -957836.93746  21274458.445    21274457.7194   21274465.3104
  -4270705.380 8  -3204319.05645  24819827.788    24819827.0324   24819838.6924
 99  5 15 16 35  0.0000000  0  9  2 26  4 24  8  7  5  9 16          0.000000029
   5020139.944 9   3907267.77146  22680801.463    22680800.7684   22680810.5674
   8645229.191 9   6607775.94245  24948560.050    24948560.2304   24948572.9204
 -12658293.840 9  -9848284.23749  20408263.518    20408263.6434   20408270.9234
 -16362455.555 9 -12483858.88447  22065576.380    22065576.1904   22065586.8274
 -10064554.876 9  -7820584.11646  23403396.658    23403396.1364   23403406.7234
   6228111.008 9   4847471.18047  22008808.728    22008808.0794   22008816.0454
  -3046097.195 9  -2355894.29345  23603300.090    23603299.5164   23603310.6214
  -1248194.548 9   -967181.92947  21272176.256    21272175.6194   21272183.1794
  -4289454.155 8  -3218928.46345  24816259.869    24816259.2114   24816270.7794
 99  5 15 16 35 15.0000000  0  9  2 26  4 24  8  7  5  9 16          0.000000018
   5050372.312 9   3930825.40546  22686554.523    22686553.8454   22686563.6354
   8680451.407 9   6635221.73945  24955262.675    24955262.8494   24955275.5554
 -12674859.746 9  -9861192.72749  20405111.102    20405111.2264   20405118.5114
 -16408665.306 9 -12519866.45947  22056782.934    22056782.7474   22056793.3884
 -10111807.940 9  -7857404.66746  23394404.672    23394404.1614   23394414.7624
   6258117.942 9   4870853.18647  22014518.915    22014518.2564   22014526.2114
  -3088158.621 9  -2388669.40845  23595296.072    23595295.4774   23595306.5784
  -1260050.082 9   -976420.01647  21269920.154    21269919.5414   21269927.1014
  -4308110.575 8  -3233465.89445  24812709.512    24812708.9594   24812720.6224
 99  5 15 16 35 30.0000000  0  9  2 26  4 24  8  7  5  9 16          0.000000012
   5080671.717 9   3954435.26846  22692320.346    22692319.6444   22692329.5044
   8715653.541 9   6662651.90645  24961961.496    24961961.7534   24961974.2484
 -12691275.745 9  -9873984.40449  20401987.229    20401987.3584   20401994.6564
 -16454789.070 9 -12555807.02647  22048005.827    22048005.6444   22048016.2904
 -10158980.713 9  -7894162.66646  23385427.991    23385427.4954   23385438.0664
   6288140.408 9   4894247.29247  22020232.026    22020231.3714   22020239.3164
  -3130215.310 9  -2421440.81545  23587292.950    23587292.3374   23587303.3564
  -1271773.167 9   -985554.89047  21267689.295    21267688.7454   21267696.2654
  -4326677.183 8  -3247933.34045  24809176.360    24809175.9654   24809187.5414
 99  5 15 16 35 45.0000000  0  9  2 26  4 24  8  7  5  9 16          0.000000011
   5111039.946 9   3978098.74946  22698099.222    22698098.5434   22698108.4494
   8750835.696 9   6690066.48845  24968656.504    24968656.6194   24968669.2764
 -12707545.333 9  -9886662.00049  20398891.221    20398891.3514   20398898.6494
 -16500829.758 9 -12591682.86047  22039244.566    22039244.4194   22039255.0204
 -10206075.909 9  -7930860.21346  23376466.102    23376465.6194   23376476.1514
   6318171.861 9   4917648.40047  22025946.834    22025946.1854   22025954.1064
  -3172270.118 9  -2454210.76345  23579290.199    23579289.6374   23579300.6014
  -1283363.894 9   -994586.63047  21265483.578    21265483.1024   21265490.6054
  -4345156.680 8  -3262332.91345  24805659.803    24805659.5084   24805671.0374
 99  5 15 16 36  0.0000000  0  9  2 26  4 24  8  7  5  9 16          0.000000012
   5141473.596 9   4001813.21846  22703890.576    22703889.9344   22703899.8174
   8785995.034 9   6717463.30245  24975347.150    24975347.2274   24975360.0684
 -12723674.333 9  -9899230.04549  20395821.928    20395822.0664   20395829.3754
 -16546791.397 9 -12627497.09547  22030498.382    22030498.2334   22030508.7574
 -10253098.622 9  -7967501.27646  23367518.022    23367517.4744   23367528.0534
   6348207.221 9   4941052.55847  22031662.354    22031661.6884   22031669.6594
  -3214327.294 9  -2486982.56145  23571286.947    23571286.3984   23571297.3134
  -1294826.586 9  -1003518.60647  21263302.303    21263301.8724   21263309.3704
  -4363550.932 8  -3276666.09745  24802159.511    24802159.1634   24802170.7724
 99  5 15 16 36 15.0000000  0  9  2 26  4 24  8  7  5  9 16          0.000000019
   5171977.981 9   4025582.81046  22709695.392    22709694.7654   22709704.6704
   8821134.018 9   6744844.26145  24982033.928    24982034.0374   24982046.9684
 -12739658.966 9  -9911685.59449  20392780.120    20392780.2624   20392787.5914
 -16592675.039 9 -12663250.55447  22021767.120    22021766.9584   22021777.3714
 -10300047.871 9  -8004085.09946  23358583.880    23358583.3294   23358593.8444
   6378251.335 9   4964463.53247  22037379.535    22037378.8904   22037386.8764
  -3256381.035 9  -2519751.68945  23563284.405    23563283.8284   23563294.7304
  -1306160.748 9  -1012350.42647  21261145.451    21261145.0364   21261152.5144
  -4381855.238 8  -3290929.18345  24798676.291    24798675.8754   24798687.5144
 99  5 15 16 36 30.0000000  0  9  2 26  4 24  8  7  5  9 16          0.000000023
   5202544.378 9   4049400.71846  22715512.013    22715511.4184   22715521.3104
   8856243.707 9   6772202.39345  24988715.155    24988715.2434   24988728.2964
 -12755503.439 9  -9924031.92949  20389765.012    20389765.1694   20389772.5074
 -16638488.882 9 -12698949.62247  22013049.103    22013048.9134   22013059.2644
 -10346932.164 9  -8040618.29846  23349662.098    23349661.5854   23349672.0734
   6408296.118 9   4987875.02747  22043096.857    22043096.2324   22043104.2084
  -3298436.800 9  -2552522.38245  23555281.430    23555280.7994   23555291.6984
  -1317372.082 9  -1021086.54047  21259011.960    21259011.5934   21259019.0764
  -4400073.296 8  -3305125.06845  24795209.475    24795208.9244   24795220.7604
 99  5 15 16 36 45.0000000  0  9  2 26  4 24  8  7  5  9 16          0.000000028
   5233181.925 9   4073274.06446  22721342.229    22721341.6024   22721351.5364
   8891336.803 9   6799547.57145  24995393.217    24995393.3684   24995406.4134
 -12771197.644 9  -9936261.17949  20386778.478    20386778.6374   20386785.9544
 -16684223.906 9 -12734587.27747  22004346.014    22004345.8384   22004356.1354
 -10393741.961 9  -8077093.46346  23340754.509    23340753.9724   23340764.4914
   6438353.080 9   5011296.01147  22048816.525    22048815.9024   22048823.8784
  -3340486.397 9  -2585288.26845  23547279.654    23547278.9784   23547289.8574
  -1328447.029 9  -1029716.37347  21256904.451    21256904.1314   21256911.5724
  -4418193.831 8  -3319244.93845  24791761.248    24791760.6424   24791772.6834
 99  5 15 16 37  0.0000000  0  9  2 26  4 24  8  7  5  9 16          0.000000035
   5263895.171 9   4097206.39246  22727186.846    22727186.2564   22727196.2224
   8926417.818 9   6826883.36245  25002068.995    25002069.0684   25002082.2754
 -12786743.958 9  -9948375.17949  20383820.127    20383820.2654   20383827.5974
 -16729879.297 9 -12770162.87147  21995658.095    21995657.9134   21995668.2124
 -10440475.272 9  -8113509.03246  23331861.509    23331860.9584   23331871.4684
   6468427.310 9   5034730.45647  22054539.493    22054538.8604   22054546.8154
  -3382531.334 9  -2618050.52445  23539278.711    23539278.0874   23539288.9294
  -1339380.487 9  -1038235.96147  21254823.896    21254823.5724   21254831.0034
  -4436213.890 8  -3333286.51345  24788332.091    24788331.4354   24788343.5834
 99  5 15 16 37 15.0000000  0  9  2 26  4 24  8  7  5  9 16          0.000000038
   5294672.666 9   4121188.79346  22733043.702    22733043.1414   22733053.1624
   8961474.981 9   6854200.56045  25008740.210    25008740.2994   25008753.6424
 -12802153.317 9  -9960382.46749  20380887.818    20380887.9454   20380895.2834
 -16775465.878 9 -12805684.85147  21986983.205    21986983.0184   21986993.3624
 -10487139.852 9  -8149871.03746  23322981.497    23322980.9864   23322991.4434
   6498512.134 9   5058173.15547  22060264.514    22060263.8574   22060271.8014
  -3424584.475 9  -2650819.18445  23531276.206    23531275.6174   23531286.4194
  -1350184.152 9  -1046654.41247  21252767.993    21252767.7054   21252775.1424
  -4454146.077 8  -3347259.61345  24784919.692    24784919.1674   24784931.2664
 99  5 15 16 37 30.0000000  0  9  2 26  4 24  8  7  5  9 16          0.000000042
   5325524.378 9   4145229.02247  22738914.708    22738914.1174   22738924.1454
   8996523.556 9   6881511.05045  25015409.799    25015410.0114   25015423.3924
 -12817413.154 9  -9972273.24349  20377983.942    20377984.0754   20377991.4224
 -16820968.609 9 -12841141.48447  21978324.214    21978324.0234   21978334.4504
 -10533717.711 9  -8186165.46546  23314118.022    23314117.5724   23314128.0074
   6528625.053 9   5081637.73847  22065994.824    22065994.1704   22066002.1054
  -3466631.921 9  -2683583.39645  23523274.785    23523274.1774   23523285.0184
  -1360841.715 9  -1054959.00847  21250739.919    21250739.6694   21250747.1234
  -4471978.357 8  -3361154.87045  24781526.317    24781525.8364   24781537.8864
 99  5 15 16 37 45.0000000  0  9  2 26  4 24  8  7  5  9 16          0.000000043
   5356442.312 9   4169320.85647  22744798.261    22744797.6544   22744807.7404
   9031557.034 9   6908809.81045  25022076.527    25022076.6774   25022090.0944
 -12832533.488 9  -9984055.31349  20375106.625    20375106.7674   20375114.1314
 -16866397.122 9 -12876540.29147  21969679.336    21969679.1584   21969689.6834
 -10580216.277 9  -8222398.11746  23305269.586    23305269.1284   23305279.6484
   6558758.861 9   5105118.61147  22071729.122    22071728.4704   22071736.3624
  -3508682.020 9  -2716349.68145  23515272.883    23515272.2754   23515283.1404
  -1371356.829 9  -1063152.61347  21248738.919    21248738.6944   21248746.1474
  -4489720.030 8  -3374979.55145  24778150.148    24778149.7044   24778161.8484
 99  5 15 16 38  0.0000000  0  9  2 26  4 24  8  7  5  9 16          0.000000036
   5387422.151 9   4193460.92247  22750693.588    22750692.9534   22750703.1374
   9066573.188 9   6936095.04345  25028739.944    25028739.9344   25028753.4214
 -12847513.487 9  -9995728.03749  20372255.990    20372256.1314   20372263.4814
 -16911753.486 9 -12911882.87547  21961048.243    21961048.0934   21961058.6654
 -10626639.215 9  -8258571.83246  23296435.581    23296435.0844   23296445.6874
   6588916.938 9   5128618.38447  22077468.021    22077467.3774   22077475.2524
  -3550734.397 9  -2749117.73445  23507270.543    23507269.9264   23507280.7994
  -1381728.956 9  -1071234.79847  21246765.088    21246764.9014   21246772.4094
  -4507369.879 8  -3388732.66145  24774791.500    24774791.0694   24774803.1964
 99  5 15 16 38 15.0000000  0  9  2 26  4 24  8  7  5  9 16          0.000000028
   5418474.967 9   4217657.84447  22756602.817    22756602.1924   22756612.4104
   9101581.438 9   6963374.14345  25035401.863    25035401.9014   25035415.3864
 -12862336.444 9 -10007278.39449  20369435.288    20369435.4234   20369442.7654
 -16957024.657 9 -12947159.08547  21952433.364    21952433.2274   21952443.7974
 -10672971.663 9  -8294675.03946  23287618.808    23287618.3174   23287628.9524
   6619114.737 9   5152149.11047  22083214.461    22083213.8204   22083221.7094
  -3592775.107 9  -2781876.70845  23499270.442    23499269.8744   23499280.7114
  -1391948.501 9  -1079198.08747  21244820.336    21244820.1274   21244827.6694
  -4524914.973 8  -3402404.13645  24771452.827    24771452.4004   24771464.3334
 99  5 15 16 38 30.0000000  0  9  2 26  4 24  8  7  5  9 16          0.000000018
   5449597.332 9   4241908.97347  22762525.268    22762524.6724   22762534.8874
   9136576.261 9   6990642.76945  25042061.270    25042061.3124   25042074.8574
 -12877006.004 9 -10018709.21649  20366643.757    20366643.8764   20366651.2224
 -17002213.242 9 -12982370.93447  21943834.245    21943834.1204   21943844.6244
 -10719214.693 9  -8330708.57546  23278819.059    23278818.5294   23278829.1814
   6649345.651 9   5175705.63447  22088967.180    22088966.5774   22088974.4584
  -3634809.760 9  -2814630.94145  23491271.485    23491270.8524   23491281.7494
  -1402020.175 9  -1087046.15047  21242903.714    21242903.5144   21242911.0874
  -4542362.554 8  -3415999.63945  24768132.689    24768132.1604   24768144.2484
 99  5 15 16 38 45.0000000  0  9  2 26  4 24  8  7  5  9 16          0.000000012
   5480795.575 9   4266219.23147  22768462.184    22768461.5424   22768471.8164
   9171565.307 9   7017906.87045  25048719.539    25048719.3034   25048732.9194
 -12891516.008 9 -10030015.70549  20363882.570    20363882.7074   20363890.0604
 -17047310.120 9 -13017511.32347  21935252.618    21935252.5014   21935262.9194
 -10765358.859 9  -8366665.07246  23270038.142    23270037.6084   23270048.2424
   6679615.082 9   5199292.18147  22094727.269    22094726.6794   22094734.5694
  -3676833.754 9  -2847376.87646  23483274.606    23483273.9474   23483284.8984
  -1411936.177 9  -1094772.91147  21241016.738    21241016.5704   21241024.1914
  -4559707.566 8  -3429515.21845  24764832.118    24764831.6634   24764843.6404
 99  5 15 16 39  0.0000000  0  9  2 26  4 24  8  7  5  9 16          0.000000003
   5512060.977 9   4290581.80647  22774411.811    22774411.1544   22774421.5024
   9206538.022 9   7045158.29445  25055374.722    25055374.5444   25055388.2304
 -12905880.259 9 -10041208.62549  20361149.132    20361149.2904   20361156.6224
 -17092327.701 9 -13052589.91947  21926686.082    21926685.9514   21926696.2864
 -10811414.340 9  -8402552.46346  23261274.100    23261273.5654   23261284.1384
   6709912.486 9   5222900.52547  22100492.705    22100492.1084   22100500.0154
  -3718859.004 9  -2880123.78946  23475277.511    23475276.9144   23475287.7964
  -1421710.445 9  -1102389.23347  21239156.731    21239156.5484   21239164.2074
  -4576964.010 8  -3442961.79645  24761548.333    24761547.8674   24761559.7484
 99  5 15 16 39 15.0000000  0  9  2 26  4 24  8  7  5  9 16         -0.000000005
   5543394.230 9   4314997.26247  22780374.326    22780373.7554   22780384.1014
   9241494.022 9   7072396.67145  25062026.680    25062026.6304   25062040.3464
 -12920095.870 9 -10052285.71249  20358443.988    20358444.1524   20358451.4964
 -17137263.269 9 -13087604.60447  21918135.156    21918135.0014   21918145.2744
 -10857382.693 9  -8438371.95846  23252526.638    23252526.0614   23252536.5494
   6740239.105 9   5246531.63447  22106263.693    22106263.0834   22106270.9894
  -3760879.105 9  -2912866.68346  23467281.313    23467280.6904   23467291.6204
  -1431345.373 9  -1109896.97847  21237323.238    21237323.0574   21237330.7824
  -4594133.164 8  -3456340.33445  24758281.130    24758280.6694   24758292.5234
 99  5 15 16 39 30.0000000  0  9  2 26  4 24  8  7  5  9 16         -0.000000008
   5574800.575 9   4339469.67046  22786350.802    22786350.1984   22786360.6034
   9276440.042 9   7099627.26045  25068676.785    25068676.7454   25068690.3984
 -12934153.154 9 -10063239.43549  20355768.973    20355769.1344   20355776.4584
 -17182106.799 9 -13122547.58047  21909601.687    21909601.5094   21909611.7544
 -10903257.059 9  -8474118.21846  23243797.047    23243796.4344   23243806.8264
   6770600.610 9   5270189.92247  22112041.321    22112040.7134   22112048.6004
  -3802884.631 9  -2945598.22046  23459287.924    23459287.2934   23459298.2114
  -1440837.818 9  -1117293.69047  21235516.882    21235516.7284   21235524.4734
  -4611206.030 8  -3469643.83845  24755032.263    24755031.7384   24755043.6704
 99  5 15 16 39 45.0000000  0  9  2 26  4 24  8  7  5  9 16         -0.000000010
   5606272.434 9   4363993.12246  22792339.708    22792339.1324   22792349.5184
   9311367.244 9   7126843.20445  25075323.309    25075323.1064   25075336.7854
 -12948059.668 9 -10074075.67349  20353122.653    20353122.8064   20353130.1234
 -17226868.975 9 -13157427.15947  21901083.697    21901083.5554   21901093.7634
 -10949049.826 9  -8509800.89446  23235082.971    23235082.3374   23235092.7364
   6800982.810 9   5293864.34547  22117822.911    22117822.2904   22117830.1914
  -3844882.221 9  -2978323.58446  23451296.023    23451295.4064   23451306.3384
  -1450199.855 9  -1124588.79547  21233735.375    21233735.1814   21233742.9584
  -4628186.847 8  -3482875.62045  24751800.909    24751800.3854   24751812.2404
 99  5 15 16 40  0.0000000  0  9  2 26  4 24  8  7  5  9 16         -0.000000015
   5637806.781 9   4388565.27246  22798340.541    22798339.9784   22798350.4104
   9346266.634 9   7154037.50345  25081964.492    25081964.3084   25081977.9634
 -12961818.061 9 -10084796.49649  20350504.509    20350504.6794   20350511.9684
 -17271557.922 9 -13192249.68347  21892579.631    21892579.4834   21892589.6954
 -10994768.999 9  -8545426.21946  23226382.852    23226382.3404   23226392.6574
   6831377.546 9   5317548.52647  22123606.834    22123606.1964   22123614.1124
  -3886878.006 9  -3011047.53346  23443304.455    23443303.8184   23443314.7364
  -1459440.342 9  -1131789.18347  21231976.952    21231976.7784   21231984.5884
  -4645078.734 8  -3496038.10445  24748586.430    24748585.9904   24748597.6764
 99  5 15 16 40 15.0000000  0  9  2 26  4 24  8  7  5  9 16         -0.000000020
   5669408.996 9   4413190.29846  22804354.303    22804353.6644   22804364.1524
   9381141.364 9   7181212.56145  25088600.975    25088600.8344   25088614.6594
 -12975422.134 9 -10095397.06149  20347915.744    20347915.9114   20347923.1934
 -17316168.466 9 -13227011.10147  21884090.489    21884090.3204   21884100.5764
 -11040407.951 9  -8580989.03746  23217698.031    23217697.6124   23217707.8114
   6861789.696 9   5341246.28047  22129394.076    22129393.4504   22129401.3874
  -3928866.818 9  -3043766.04146  23435314.209    23435313.6004   23435324.5144
  -1468555.348 9  -1138891.79047  21230242.390    21230242.2494   21230250.1074
  -4661875.804 8  -3509126.68645  24745389.988    24745389.6534   24745401.1824
 99  5 15 16 40 30.0000000  0  9  2 26  4 24  8  7  5  9 16         -0.000000026
   5701078.429 9   4437867.71446  22810380.882    22810380.2624   22810390.7044
   9415993.138 9   7208369.72345  25095233.058    25095233.0104   25095246.7244
 -12988875.052 9 -10105879.84449  20345355.747    20345355.9134   20345363.1864
 -17360701.068 9 -13261711.78648  21875616.160    21875615.9774   21875626.3054
 -11085966.334 9  -8616489.06946  23209028.573    23209028.1844   23209038.3674
   6892215.132 9   5364954.39547  22135183.850    22135183.2314   22135191.1964
  -3970853.104 9  -3076482.60446  23427324.437    23427323.9014   23427334.7404
  -1477544.187 9  -1145896.08847  21228531.867    21228531.6944   21228539.6024
  -4678580.294 8  -3522143.12145  24742211.178    24742210.8654   24742222.5214
 99  5 15 16 40 45.0000000  0  9  2 26  4 24  8  7  5  9 16         -0.000000030
   5732819.997 9   4462601.32446  22816421.169    22816420.5304   22816430.9444
   9450829.300 8   7235514.73245  25101862.176    25101862.1534   25101875.9194
 -13002171.785 9 -10116240.92949  20342825.477    20342825.6354   20342832.8994
 -17405150.808 9 -13296347.91248  21867157.571    21867157.3924   21867167.8144
 -11131440.979 9  -8651923.85846  23200375.060    23200374.6054   23200384.7494
   6922660.802 9   5388678.26447  22140977.456    22140976.8504   22140984.8224
  -4012831.231 9  -3109192.79146  23419336.270    23419335.6824   23419346.5374
  -1486398.226 9  -1152795.34847  21226846.952    21226846.8004   21226854.7144
  -4695186.099 8  -3535082.67545  24739051.155    24739050.7324   24739062.5484
 99  5 15 16 41  0.0000000  0  9  2 26  4 24  8  7  5  9 16         -0.000000038
   5764629.154 9   4487387.61446  22822474.347    22822473.7104   22822484.0644
   9485645.309 8   7262644.02545  25108487.422    25108487.3374   25108501.3644
 -13015313.537 9 -10126481.25149  20340324.704    20340324.8564   20340332.1324
 -17449519.964 9 -13330921.24747  21858714.312    21858714.1274   21858724.6544
 -11176837.560 9  -8687297.81746  23191736.400    23191735.8854   23191746.0624
   6953123.819 9   5412415.65747  22146774.383    22146773.7874   22146781.7524
  -4054801.280 9  -3141896.68546  23411349.610    23411348.9914   23411359.8364
  -1495118.268 9  -1159590.20047  21225187.611    21225187.4884   21225195.3794
  -4711696.679 8  -3547948.04145  24735909.280    24735908.7574   24735920.6054
 99  5 15 16 41 15.0000000  0  9  2 26  4 24  8  7  5  9 16         -0.000000043
   5796516.084 9   4512234.51246  22828542.331    22828541.6594   22828552.0074
   9520448.316 8   7289763.16745  25115110.224    25115110.1414   25115124.0734
 -13028288.104 9 -10136591.28949  20337855.736    20337855.8954   20337863.1584
 -17493796.387 9 -13365422.30847  21850288.756    21850288.5804   21850299.1614
 -11222146.835 9  -8722603.73346  23183114.347    23183113.8444   23183124.0714
   6983612.138 9   5436172.77247  22152576.116    22152575.5214   22152583.5134
  -4096751.493 9  -3174585.11846  23403366.729    23403366.0574   23403376.9664
  -1503692.215 9  -1166271.19747  21223556.056    21223555.8884   21223563.7954
  -4728101.329 8  -3560730.85145  24732787.562    24732787.0884   24732798.7884
 99  5 15 16 41 30.0000000  0  9  2 26  4 24  8  7  5  9 16         -0.000000049
   5828474.106 9   4537136.78546  22834623.801    22834623.1194   22834633.4334
   9555228.872 8   7316864.81145  25121728.778    25121728.7394   25121742.6554
 -13041100.808 9 -10146575.21549  20335417.566    20335417.7234   20335424.9704
 -17537983.952 9 -13399854.14547  21841880.128    21841879.9414   21841890.5344
 -11267371.146 9  -8757843.46146  23174508.428    23174507.9024   23174518.1884
   7014118.663 9   5459944.06447  22158381.376    22158380.7724   22158388.7444
  -4138690.147 9  -3207264.55846  23395386.037    23395385.3724   23395396.2834
  -1512125.276 9  -1172842.43647  21221951.251    21221951.1094   21221959.0334
  -4744403.595 8  -3573433.87745  24729685.306    24729684.8554   24729696.5664
 99  5 15 16 41 45.0000000  0  9  2 26  4 24  8  7  5  9 16         -0.000000057
   5860500.921 9   4562092.66246  22840718.316    22840717.6504   22840727.9874
   9589983.231 8   7343946.07245  25128342.346    25128342.2514   25128356.1244
 -13053758.055 9 -10156438.00249  20333009.016    20333009.1714   20333016.4154
 -17582086.519 9 -13434219.74947  21833487.731    21833487.5414   21833498.0304
 -11312509.582 9  -8793016.27446  23165918.812    23165918.3684   23165928.5944
   7044637.270 9   5483724.76947  22164188.912    22164188.2814   22164196.2734
  -4180622.550 9  -3239939.12046  23387406.557    23387405.8964   23387416.7724
  -1520417.977 9  -1179304.29047  21220373.249    21220373.1014   21220381.0254
  -4760603.740 8  -3586057.33545  24726602.459    24726602.1294   24726613.8054
 99  5 15 16 42  0.0000000  0  9  2 26  4 24  8  7  5  9 16         -0.000000064
   5892600.896 9   4587105.56546  22846826.786    22846826.1314   22846836.4844
   9624714.876 8   7371009.60545  25134951.601    25134951.5154   25134965.4604
 -13066259.191 9 -10166179.13649  20330630.136    20330630.2584   20330637.5414
 -17626099.321 9 -13468515.39547  21825112.402    21825112.1794   21825122.5954
 -11357557.891 9  -8828118.85346  23157346.383    23157345.9334   23157356.2194
   7075174.048 9   5507519.64147  22169999.898    22169999.2394   22170007.2494
  -4222543.571 9  -3272604.81246  23379429.224    23379428.5384   23379439.3984
  -1528561.540 9  -1185649.93147  21218823.578    21218823.4044   21218831.3264
  -4776701.751 8  -3598601.21745  24723539.057    24723538.7414   24723550.4404
 99  5 15 16 42 15.0000000  0  9  2 26  4 24  8  7  5  9 16         -0.000000064
   5924783.059 9   4612182.49746  22852950.919    22852950.3114   22852960.6004
   9659432.919 8   7398062.54245  25141558.249    25141558.2214   25141572.1344
 -13078597.647 9 -10175793.50849  20328282.217    20328282.3434   20328289.6464
 -17670010.665 9 -13502731.98747  21816756.306    21816756.0844   21816766.4444
 -11402504.910 9  -8863142.51146  23148793.253    23148792.7944   23148803.0974
   7105739.586 9   5531336.92247  22175816.323    22175815.6724   22175823.7254
  -4264445.897 9  -3305255.94846  23371455.471    23371454.8194   23371465.6544
  -1536543.461 9  -1191869.61647  21217304.663    21217304.5264   21217312.4574
  -4792692.310 8  -3611061.37445  24720496.148    24720495.6774   24720507.5684
 99  5 15 16 42 30.0000000  0  9  2 26  4 24  8  7  5  9 16         -0.000000064
   5957034.280 9   4637313.24346  22859088.189    22859087.6124   22859097.8864
   9694127.587 8   7425097.26145  25148160.422    25148160.4214   25148174.3264
 -13090788.687 9 -10185293.01749  20325962.349    20325962.4694   20325969.7994
 -17713832.091 9 -13536878.51447  21808417.292    21808417.0874   21808427.4084
 -11447361.897 9  -8898096.01246  23140257.238    23140256.7944   23140267.1574
   7136319.522 9   5555165.41947  22181635.528    22181634.8744   22181642.9544
  -4306342.353 9  -3337902.50446  23363482.803    23363482.1384   23363492.9384
  -1544376.318 9  -1197973.15647  21215814.132    21215813.9484   21215821.8934
  -4808587.848 8  -3623447.48445  24717471.314    24717470.8114   24717482.6764
 99  5 15 16 42 45.0000000  0  9  2 26  4 24  8  7  5  9 16         -0.000000062
   5989354.633 9   4662497.86746  22865238.635    22865238.0454   22865248.2934
   9728797.376 8   7452112.63845  25154757.892    25154757.8844   25154772.0434
 -13102835.098 9 -10194679.81849  20323669.990    20323670.1064   20323677.4474
 -17757564.795 9 -13570955.88847  21800095.160    21800094.9594   21800105.2764
 -11492129.409 9  -8932979.78246  23131738.264    23131737.7914   23131748.2114
   7166910.562 9   5579002.57347  22187456.833    22187456.1644   22187464.2754
  -4348232.322 9  -3370544.00346  23355511.398    23355510.7274   23355521.5164
  -1552061.429 9  -1203961.56147  21214351.720    21214351.5204   21214359.5164
  -4824389.683 8  -3635760.56145  24714464.345    24714463.8734   24714475.4864
 99  5 15 16 43  0.0000000  0  9  2 26  4 24  8  7  5  9 16         -0.000000057
   6021742.671 9   4687735.21546  22871401.933    22871401.3384   22871411.6344
   9763436.398 8   7479104.03145  25161349.399    25161349.5494   25161363.7494
 -13114739.736 9 -10203956.16349  20321404.572    20321404.6844   20321412.0294
 -17801211.360 9 -13604966.17347  21791789.466    21791789.2684   21791799.5564
 -11536807.493 9  -8967793.87746  23123236.318    23123235.8274   23123246.2424
   7197510.343 9   5602846.51747  22193279.773    22193279.1124   22193287.2414
  -4390113.473 9  -3403178.64746  23347541.634    23347540.9734   23347551.8094
  -1559602.350 9  -1209837.61947  21212916.736    21212916.5634   21212924.5494
  -4840099.774 8  -3648002.16345  24711474.844    24711474.2924   24711485.7244
 99  5 15 16 43 15.0000000  0  9  2 26  4 24  8  7  5  9 16         -0.000000049
   6054196.383 9   4713023.74846  22877577.716    22877577.0934   22877587.4584
   9798042.727 8   7506069.91945  25167934.723    25167934.9614   25167949.2344
 -13126505.958 9 -10213124.64649  20319165.502    20319165.6344   20319172.9844
 -17844774.350 9 -13638911.32547  21783499.685    21783499.5074   21783509.7294
 -11581395.674 9  -9002537.90846  23114751.523    23114751.0214   23114761.4094
   7228115.579 9   5626694.73147  22199103.770    22199103.1014   22199111.2474
  -4431988.062 9  -3435808.17146  23339573.124    23339572.4514   23339583.2354
  -1567003.322 9  -1215604.61547  21211508.383    21211508.1984   21211516.2034
  -4855717.666 8  -3660171.91545  24708502.876    24708502.3394   24708513.7884
 99  5 15 16 43 30.0000000  0  9  2 26  4 24  8  7  5  9 16         -0.000000037
   6086716.091 9   4738363.70246  22883766.057    22883765.4294   22883775.8744
   9832618.553 8   7533012.02145  25174514.268    25174514.5264   25174528.7404
 -13138136.678 9 -10222187.53749  20316952.229    20316952.3674   20316959.7364
 -17888256.713 9 -13672793.65847  21775225.296    21775225.0964   21775235.2934
 -11625892.280 9  -9037210.59146  23106284.129    23106283.5934   23106293.9404
   7258731.090 9   5650550.94547  22204929.714    22204929.0674   22204937.1694
  -4473859.959 9  -3468435.59346  23331605.152    23331604.4964   23331615.2614
  -1574267.736 9  -1221265.20847  21210126.022    21210125.8354   21210133.8434
  -4871237.867 8  -3672265.54245  24705549.464    24705548.8854   24705560.4154
 99  5 15 16 43 45.0000000  0  9  2 26  4 24  8  7  5  9 16         -0.000000024
   6119297.123 9   4763751.44946  22889966.071    22889965.4374   22889975.9964
   9867162.580 8   7559929.36045  25181087.789    25181088.0554   25181102.3964
 -13149638.027 9 -10231149.62449  20314763.581    20314763.7324   20314771.1104
 -17931663.790 9 -13706617.31947  21766965.227    21766965.0044   21766975.2254
 -11670303.523 9  -9071816.74946  23097832.938    23097832.4034   23097842.7384
   7289354.092 9   5674413.00347  22210757.094    22210756.4534   22210764.5464
  -4515733.238 9  -3501064.08946  23323636.911    23323636.3034   23323646.9854
  -1581400.864 9  -1226823.49647  21208768.665    21208768.4954   21208776.4504
  -4886663.660 8  -3684285.59245  24702613.984    24702613.4474   24702624.9834
 99  5 15 16 44  0.0000000  0  9  2 26  4 24  8  7  5  9 16         -0.000000011
   6151941.366 9   4789188.44546  22896178.119    22896177.4854   22896188.0944
   9901678.095 8   7586824.47845  25187655.890    25187656.2284   25187670.4654
 -13161008.075 9 -10240009.39949  20312599.911    20312600.0704   20312607.4454
 -17974994.147 9 -13740381.20347  21758719.741    21758719.5024   21758729.7494
 -11714632.179 9  -9106358.55446  23089397.522    23089396.9734   23089407.3454
   7319987.353 9   5698283.05347  22216586.438    22216585.7684   22216593.8274
  -4557604.611 9  -3533691.10146  23315669.061    23315668.4394   23315679.1264
  -1588400.975 9  -1232278.14347  21207436.602    21207436.4174   21207444.3914
  -4901995.724 8  -3696232.61545  24699696.399    24699695.8074   24699707.3334
 99  5 15 16 44 15.0000000  0  9  2 26  4 24  8  7  5  9 16         -0.000000004
   6184643.484 9   4814670.53746  22902401.192    22902400.5284   22902411.2044
   9936159.066 8   7613692.70245  25194217.445    25194217.8264   25194231.9734
 -13172248.658 9 -10248768.29349  20310460.899    20310461.0504   20310468.4294
 -18018253.026 9 -13774089.39347  21750487.802    21750487.5614   21750497.8154
 -11758885.148 9  -9140841.38646  23080976.468    23080975.8934   23080986.2684
   7350626.946 9   5722158.03947  22222416.988    22222416.2824   22222424.3754
  -4599481.417 9  -3566322.35646  23307700.154    23307699.5364   23307710.1714
  -1595274.162 9  -1237633.88147  21206128.687    21206128.5134   21206136.5114
  -4917239.134 8  -3708110.55845  24696795.686    24696795.0954   24696806.5404
 99  5 15 16 44 30.0000000  0  9  2 26  4 24  8  7  5  9 16          0.000000005
   6217413.111 9   4840205.23646  22908637.046    22908636.3914   22908647.1684
   9970613.886 8   7640540.54945  25200773.990    25200774.3864   25200788.5514
 -13183349.347 9 -10257418.17749  20308348.502    20308348.6634   20308356.0124
 -18061431.185 9 -13807734.67747  21742271.227    21742270.9894   21742281.2924
 -11803053.152 9  -9175258.00346  23072571.562    23072570.9924   23072581.3694
   7381280.273 9   5746043.72847  22228250.118    22228249.4134   22228257.5154
  -4641354.345 9  -3598950.57546  23299732.037    23299731.4114   23299741.9634
  -1602015.491 9  -1242886.87147  21204845.909    21204845.7114   21204853.7024
  -4932380.498 8  -3719909.00045  24693914.322    24693913.8694   24693925.3504
 99  5 15 16 44 45.0000000  0  9  2 26  4 24  8  7  5  9 16          0.000000010
   6250244.896 9   4865788.36546  22914884.748    22914884.0954   22914894.9174
  10005039.463 8   7667365.59045  25207324.984    25207325.5514   25207339.5144
 -13194313.669 9 -10265961.80049  20306262.030    20306262.1974   20306269.5194
 -18104533.669 9 -13841320.99647  21734069.041    21734068.7984   21734079.1684
 -11847141.508 9  -9209612.56846  23064181.834    23064181.2404   23064191.6574
   7411946.498 9   5769939.46147  22234085.676    22234084.9744   22234093.1354
  -4683227.770 9  -3631579.18946  23291763.764    23291763.1184   23291773.6554
  -1608627.831 9  -1248039.35547  21203587.640    21203587.4324   21203595.4234
  -4947422.211 8  -3731629.77445  24691051.937    24691051.5114   24691062.9984
 99  5 15 16 45  0.0000000  0  9  2 26  4 24  8  7  5  9 16          0.000000015
   6283146.316 9   4891425.75946  22921145.763    22921145.1314   22921155.9714
  10039442.868 8   7694173.35545  25213871.788    25213872.3494   25213886.3904
 -13205130.636 9 -10274390.60049  20304203.639    20304203.8124   20304211.1334
 -18147550.943 9 -13874840.92147  21725883.072    21725882.8454   21725893.2414
 -11891142.967 9  -9243899.41746  23055808.631    23055808.0664   23055818.5094
   7442637.863 9   5793854.78647  22239926.019    22239925.3204   22239933.5284
  -4725094.371 9  -3664202.49446  23283796.731    23283796.1144   23283806.6544
  -1615102.804 9  -1253084.79347  21202355.440    21202355.2654   21202363.2644
  -4962356.423 8  -3743266.79545  24688210.074    24688209.6284   24688221.0894
 99  5 15 16 45 15.0000000  0  9  2 26  4 24  8  7  5  9 16          0.000000011
   6316107.277 9   4917109.53846  22927418.124    22927417.4894   22927428.3084
  10073815.345 8   7720957.02345  25220412.780    25220413.2414   25220427.4004
 -13215807.181 9 -10282709.98549  20302171.967    20302172.1394   20302179.4334
 -18190492.323 9 -13908301.70947  21717711.547    21717711.3224   21717721.7184
 -11935067.524 9  -9278126.34246  23047450.042    23047449.4134   23047459.8964
   7473346.254 9   5817783.37247  22245769.641    22245768.9644   22245777.2054
  -4766967.809 9  -3696831.11746  23275828.439    23275827.8604   23275838.3784
  -1621450.356 9  -1258030.94847  21201147.531    21201147.3514   21201155.3834
  -4977191.746 8  -3754826.76945  24685387.030    24685386.5634   24685397.9264
 99  5 15 16 45 30.0000000  0  9  2 26  4 24  8  7  5  9 16          0.000000013
   6349154.147 9   4942860.27446  22933706.869    22933706.2454   22933717.0474
  10108183.640 8   7747737.43645  25226952.930    25226953.3134   25226967.5404
 -13226318.123 9 -10290900.32149  20300171.835    20300171.9934   20300179.2684
 -18233330.420 9 -13941682.01347  21709559.674    21709559.4554   21709569.8434
 -11978889.086 9  -9312273.01446  23039111.032    23039110.4164   23039120.8634
   7504095.957 9   5841744.15847  22251621.133    22251620.4434   22251628.7114
  -4808826.855 9  -3729448.52446  23267862.915    23267862.3444   23267872.9084
  -1627643.634 9  -1262856.88047  21199969.022    21199968.8474   21199976.8624
  -4991900.878 8  -3766288.40545  24682587.882    24682587.3314   24682598.8264
 99  5 15 16 45 45.0000000  0  9  2 26  4 24  8  7  5  9 16          0.000000008
   6382266.304 9   4968661.87146  22940007.987    22940007.3634   22940018.1764
  10142522.780 8   7774495.16245  25233487.551    25233487.9104   25233502.0694
 -13236683.272 9 -10298977.05549  20298199.424    20298199.5694   20298206.8364
 -18276083.345 9 -13974995.95047  21701423.990    21701423.7874   21701434.1514
 -12022629.254 9  -9346356.25446  23030787.544    23030786.9784   23030797.3794
   7534862.887 9   5865718.36947  22257475.942    22257475.2504   22257483.5214
  -4850692.118 9  -3762070.78946  23259896.211    23259895.6794   23259906.1394
  -1633702.713 9  -1267578.25147  21198816.019    21198815.8054   21198823.8404
  -5006509.347 8  -3777671.58445  24679807.874    24679807.5244   24679818.9474
 99  5 15 16 46  0.0000000  0  9  2 26  4 24  8  7  5  9 16         -0.000000006
   6415438.775 9   4994510.46346  22946320.582    22946319.9734   22946330.7694
  10176825.689 8   7801224.63945  25240015.244    25240015.5614   25240029.6954
 -13246904.575 9 -10306941.69849  20296254.366    20296254.5154   20296261.7524
 -18318753.180 9 -14008245.14047  21693304.165    21693303.9884   21693314.2854
 -12066291.964 9  -9380379.14046  23022478.800    23022478.2304   23022488.6154
   7565637.221 9   5889698.34847  22263332.191    22263331.5064   22263339.7534
  -4892565.674 9  -3794699.50746  23251927.953    23251927.3754   23251937.8374
  -1639627.668 9  -1272195.10647  21197688.557    21197688.3264   21197696.3694
  -5021024.935 8  -3788982.39845  24677045.617    24677045.2774   24677056.6894
 99  5 15 16 46 15.0000000  0  9  2 26  4 24  8  7  5  9 16         -0.000000021
   6448685.311 9   5020416.77246  22952647.317    22952646.6934   22952657.4934
  10211105.759 8   7827936.30845  25246538.537    25246538.8354   25246553.1594
 -13256967.005 9 -10314782.55449  20294339.565    20294339.7314   20294346.9534
 -18361326.690 9 -14041419.27947  21685202.723    21685202.5364   21685212.7504
 -12109861.115 9  -9414329.12746  23014187.896    23014187.3594   23014197.6754
   7596430.696 9   5913693.23847  22269192.044    22269191.3404   22269199.5764
  -4934432.208 9  -3827322.76546  23243960.991    23243960.4214   23243970.8084
  -1645403.283 9  -1276695.60247  21196589.479    21196589.2864   21196597.3284
  -5035433.762 8  -3800210.03345  24674303.730    24674303.2664   24674314.6894
 99  5 15 16 46 30.0000000  0  9  2 26  4 24  8  7  5  9 16         -0.000000036
   6482007.067 9   5046381.68847  22958988.345    22958987.7034   22958998.4784
  10245365.469 8   7854632.12345  25253058.018    25253058.1924   25253072.6224
 -13266868.231 9 -10322497.79249  20292455.424    20292455.5854   20292462.8104
 -18403803.710 9 -14074518.22747  21677119.617    21677119.4224   21677129.5494
 -12153332.542 9  -9448202.96946  23005915.527    23005914.9964   23005925.3664
   7627242.850 9   5937702.68547  22275055.388    22275054.6814   22275062.9384
  -4976289.873 9  -3859939.10346  23235995.704    23235995.1464   23236005.5514
  -1651028.869 9  -1281079.18947  21195518.970    21195518.7684   21195526.8244
  -5049732.266 8  -3811351.70145  24671582.816    24671582.2204   24671593.7864
 99  5 15 16 46 45.0000000  0  9  2 26  4 24  8  7  5  9 16         -0.000000053
   6515398.987 9   5072401.28547  22965342.727    22965342.0844   22965352.7724
  10279601.420 8   7881309.42545  25259573.001    25259573.1714   25259587.5704
 -13276613.976 9 -10330091.86749  20290600.892    20290601.0494   20290608.2634
 -18446188.663 9 -14107545.42748  21669054.058    21669053.8564   21669063.9124
 -12196707.537 9  -9482001.65746  22997661.561    22997661.0104   22997671.3534
   7658068.451 9   5961722.61947  22280921.306    22280920.6294   22280928.9144
  -5018142.676 9  -3892551.64346  23228031.327    23228030.7684   23228041.1424
  -1656507.533 9  -1285348.28347  21194476.403    21194476.1804   21194484.2424
  -5063926.696 8  -3822412.25345  24668881.667    24668881.0194   24668892.6574
 99  5 15 16 47  0.0000000  0  9  2 26  4 24  8  7  5  9 16         -0.000000070
   6548861.342 9   5098475.75547  22971710.514    22971709.8564   22971720.5704
  10313814.202 9   7907968.66545  25266083.571    25266083.7444   25266098.1434
 -13286202.319 9 -10337563.30349  20288776.291    20288776.4424   20288783.6704
 -18488478.194 9 -14140498.28548  21661006.662    21661006.4374   21661016.4844
 -12239981.920 9  -9515721.95146  22989426.745    22989426.1714   22989436.5354
   7688907.856 9   5985753.29147  22286789.849    22286789.1674   22286797.5054
  -5059988.480 9  -3925158.73646  23220068.296    23220067.7514   23220078.1144
  -1661837.892 9  -1289501.82347  21193462.062    21193461.8514   21193469.9324
  -5078017.002 8  -3833391.68145  24666200.360    24666199.7454   24666211.1954
 99  5 15 16 47 15.0000000  0  9  2 26  4 24  8  7  5  9 16         -0.000000076
   6582407.257 9   5124615.34446  22978094.158    22978093.5174   22978104.2044
  10348012.286 9   7934616.45645  25272591.335    25272591.4994   25272605.8804
 -13295619.487 9 -10344901.35249  20286984.241    20286984.4034   20286991.6494
 -18530658.738 9 -14173366.20348  21652980.006    21652979.7644   21652989.8074
 -12283137.768 9  -9549349.87946  22981214.485    22981213.9074   22981224.2734
   7719770.556 9   6009802.12347  22292662.833    22292662.1614   22292670.5514
  -5101813.075 9  -3957749.30346  23212109.327    23212108.7624   23212119.1164
  -1667009.397 9  -1293531.57647  21192477.990    21192477.7534   21192485.8404
  -5091988.673 8  -3844278.67745  24663541.625    24663541.1354   24663552.3924
 99  5 15 16 47 30.0000000  0  9  2 26  4 24  8  7  5  9 16         -0.000000083
   6616016.156 9   5150804.00946  22984489.774    22984489.1394   22984499.8134
  10382173.233 9   7961235.33245  25279091.976    25279092.1084   25279106.4104
 -13304887.266 9 -10352122.99549  20285220.650    20285220.8244   20285228.0604
 -18572749.606 9 -14206164.25048  21644970.353    21644970.1094   21644980.1774
 -12326193.756 9  -9582899.99146  22973021.229    22973020.6684   22973031.0094
   7750634.884 9   6033852.22347  22298536.139    22298535.4754   22298543.8704
  -5143632.975 9  -3990336.19346  23204151.235    23204150.6614   23204161.0154
  -1672041.598 9  -1297452.78347  21191520.393    21191520.1864   21191528.2654
  -5105859.501 8  -3855087.08645  24660902.070    24660901.5634   24660912.7604
 99  5 15 16 47 45.0000000  0  9  2 26  4 24  8  7  5  9 16         -0.000000088
   6649689.695 9   5177043.04846  22990897.746    22990897.0934   22990907.7584
  10416298.916 9   7987826.71745  25285585.895    25285586.1324   25285600.3744
 -13314000.843 9 -10359224.48149  20283486.406    20283486.5744   20283493.8124
 -18614746.646 9 -14238889.19248  21636978.528    21636978.2924   21636988.3774
 -12369144.856 9  -9616368.37646  22964847.912    22964847.3674   22964857.6954
   7781504.849 9   6057906.71447  22304410.525    22304409.8594   22304418.2994
  -5185441.285 9  -4022914.07246  23196195.362    23196194.7884   23196205.1574
  -1676932.039 9  -1301263.52847  21190589.771    21190589.5704   21190597.6524
  -5119627.270 8  -3865815.18945  24658282.119    24658281.6674   24658292.7204
 99  5 15 16 48  0.0000000  0  9  2 26  4 24  8  7  5  9 16         -0.000000088
   6683435.576 9   5203338.45346  22997319.459    22997318.8374   22997329.4134
  10450397.513 9   8014396.99145  25292074.705    25292074.8914   25292089.2384
 -13322950.422 9 -10366198.17549  20281783.361    20281783.5134   20281790.7844
 -18656644.784 9 -14271537.05348  21629005.526    21629005.3114   21629015.4104
 -12411985.198 9  -9649750.45646  22956695.676    22956695.1414   22956705.4744
   7812389.213 9   6081972.42047  22310287.628    22310286.9704   22310295.4064
  -5227227.508 9  -4055474.72046  23188243.652    23188243.0444   23188253.4724
  -1681674.087 9  -1304958.64847  21189687.411    21189687.2054   21189695.2824
  -5133286.117 8  -3876458.41345  24655682.954    24655682.4264   24655693.4574
 99  5 15 16 48 15.0000000  0  9  2 26  4 24  8  7  5  9 16         -0.000000091
   6717239.431 9   5229679.03646  23003752.159    23003751.5644   23003762.1604
  10484456.649 9   8040936.51845  25298556.015    25298556.1844   25298570.6314
 -13331750.658 9 -10373055.49949  20280108.717    20280108.8734   20280116.1484
 -18698460.405 9 -14304120.62448  21621048.236    21621048.0204   21621058.1424
 -12454730.281 9  -9683058.30946  22948561.557    22948561.0024   22948571.3254
   7843276.276 9   6106040.23847  22316165.256    22316164.6214   22316173.0714
  -5269004.314 9  -4088028.03346  23180293.776    23180293.1764   23180303.5904
  -1686282.430 9  -1308549.57247  21188810.502    21188810.3214   21188818.3844
  -5146845.325 8  -3887024.00445  24653102.685    24653102.2434   24653112.9324
 99  5 15 16 48 30.0000000  0  9  2 26  4 24  8  7  5  9 16         -0.000000093
   6751111.332 9   5256072.64046  23010197.799    23010197.2024   23010207.7984
  10518487.060 9   8067453.65845  25305031.875    25305031.9714   25305046.4304
 -13340390.818 9 -10379788.08949  20278464.540    20278464.7114   20278471.9834
 -18740183.974 9 -14336632.47248  21613108.462    21613108.2474   21613118.3664
 -12497366.650 9  -9716281.45346  22940448.142    22940447.5694   22940457.9154
   7874179.992 9   6130121.03747  22322046.043    22322045.4094   22322053.8644
  -5310762.771 9  -4120567.05646  23172347.393    23172346.7984   23172357.2344
  -1690751.346 9  -1312031.85347  21187960.112    21187959.9114   21187967.9804
  -5160292.055 8  -3897501.94845  24650543.776    24650543.2854   24650554.2184
 99  5 15 16 48 45.0000000  0  9  2 26  4 24  8  7  5  9 16         -0.000000086
   6785058.624 9   5282524.98446  23016657.771    23016657.1704   23016667.8244
  10552491.288 9   8093950.40045  25311502.699    25311502.7714   25311517.1344
 -13348865.428 9 -10386391.68449  20276851.860    20276852.0374   20276859.3174
 -18781806.034 9 -14369065.22148  21605188.014    21605187.8004   21605197.8904
 -12539887.543 9  -9749414.61446  22932356.690    22932356.0704   22932366.4704
   7905106.506 9   6154219.58347  22327931.208    22327930.5654   22327939.0074
  -5352500.118 9  -4153089.63546  23164404.996    23164404.4174   23164414.8894
  -1695074.600 9  -1315400.63847  21187137.467    21187137.2504   21187145.3164
  -5173621.062 9  -3907888.16145  24648007.335    24648006.8004   24648017.9224
 99  5 15 16 49  0.0000000  0  9  2 26  4 24  8  7  5  9 16         -0.000000080
   6819071.015 9   5309028.06246  23023130.158    23023129.5294   23023140.2394
  10586454.961 9   8120415.54745  25317965.798    25317965.9264   25317980.2194
 -13357185.219 9 -10392874.63449  20275268.685    20275268.8534   20275276.1284
 -18823337.231 9 -14401427.15947  21597284.871    21597284.6614   21597294.7494
 -12582304.230 9  -9782466.57546  22924285.041    22924284.4084   22924294.8514
   7936047.352 9   6178329.30747  22333819.082    22333818.4294   22333826.8494
  -5394225.007 9  -4185602.50746  23156464.980    23156464.4334   23156474.8554
  -1699261.688 9  -1318663.31647  21186340.699    21186340.4914   21186348.5564
  -5186841.823 8  -3918190.03345  24645491.478    24645490.9424   24645501.9374
 99  5 15 16 49 15.0000000  0  9  2 26  4 24  8  7  5  9 16         -0.000000073
   6853151.861 9   5335584.48546  23029615.561    23029614.9594   23029625.6424
  10620378.800 9   8146849.66345  25324421.407    25324421.6684   25324435.6944
 -13365345.785 9 -10399233.51549  20273715.797    20273715.9394   20273723.2034
 -18864777.218 9 -14433718.02347  21589399.078    21589398.8604   21589408.9754
 -12624616.323 9  -9815437.03046  22916233.261    22916232.6924   22916243.1424
   7967006.053 9   6202452.94747  22339710.341    22339709.7014   22339718.0934
  -5435934.850 9  -4218103.65146  23148527.867    23148527.3174   23148537.6784
  -1703310.931 9  -1321818.58047  21185570.170    21185569.9654   21185578.0104
  -5199951.182 8  -3928405.10945  24642996.847    24642996.2884   24643007.2634
 99  5 15 16 49 30.0000000  0  8  2  4 24  8  7  5  9 16            -0.000000065
   6887306.662 9   5362198.53746  23036115.027    23036114.4394   23036125.1634
 -13373345.285 9 -10405466.89249  20272193.521    20272193.6724   20272200.9364
 -18906124.596 9 -14465936.73547  21581530.912    21581530.6874   21581540.7964
 -12666824.455 9  -9848326.47746  22908201.250    22908200.7434   22908211.1424
   7997985.177 9   6226592.50547  22345605.504    22345604.8804   22345613.2514
  -5477629.001 9  -4250592.57646  23140593.751    23140593.2114   23140603.5344
  -1707216.423 9  -1324861.83347  21184826.999    21184826.7704   21184834.8444
  -5212946.511 8  -3938531.31545  24640523.836    24640523.2624   24640534.0894
 99  5 15 16 49 45.0000000  0  8  2  4 24  8  7  5  9 16            -0.000000053
   6921539.926 9   5388873.73246  23042629.457    23042628.8704   23042639.6684
 -13381183.379 9 -10411574.49749  20270701.976    20270702.1254   20270709.4004
 -18947375.602 9 -14498080.34947  21573681.071    21573680.8424   21573690.9234
 -12708929.829 9  -9881135.85046  22900188.879    22900188.3994   22900198.7484
   8028986.616 9   6250749.44447  22351504.902    22351504.2754   22351512.6464
  -5519304.457 9  -4283066.90446  23132663.162    23132662.5914   23132672.8814
  -1710974.381 9  -1327790.12147  21184111.907    21184111.6754   21184119.7534
  -5225826.595 8  -3948567.71545  24638072.810    24638072.2284   24638082.9814
 99  5 15 16 50  0.0000000  0  8  2  4 24  8  7  5  9 16            -0.000000044
   6955843.804 9   5415603.93446  23049157.304    23049156.7514   23049167.6124
 -13388871.217 9 -10417565.03449  20269239.048    20269239.1884   20269246.4604
 -18988539.012 9 -14530155.72447  21565847.916    21565847.6854   21565857.7284
 -12750944.525 9  -9913874.57146  22892193.774    22892193.2844   22892203.6024
   8059999.960 9   6274915.64947  22357406.609    22357405.9804   22357414.3214
  -5560972.537 9  -4315535.51346  23124733.983    23124733.4404   23124743.6964
  -1714592.812 9  -1330609.70247  21183423.329    21183423.0914   21183431.1544
  -5238603.466 8  -3958523.70945  24635641.436    24635640.8714   24635651.6554
 99  5 15 16 50 15.0000000  0  8  2  4 24  8  7  5  9 16            -0.000000035
   6990221.221 9   5442391.45746  23055699.145    23055698.5624   23055709.5174
 -13396409.906 9 -10423439.33849  20267804.475    20267804.6314   20267811.8994
 -19029612.293 9 -14562160.85048  21558031.906    21558031.6754   21558041.7344
 -12792866.776 9  -9946541.25746  22884216.246    22884215.7374   22884226.0274
   8091027.104 9   6299092.62147  22363310.908    22363310.2824   22363318.6214
  -5602632.267 9  -4347997.60546  23116806.367    23116805.7684   23116816.0794
  -1718068.811 9  -1333318.28747  21182761.834    21182761.5994   21182769.6864
  -5251273.462 8  -3968396.41045  24633230.419    24633229.7904   24633240.6634
 99  5 15 16 50 30.0000000  0  8  2  4 24  8  7  5  9 16            -0.000000018
   7024681.699 9   5469243.70146  23062256.829    23062256.2324   23062267.2304
 -13403791.155 9 -10429190.95749  20266399.850    20266400.0034   20266407.2704
 -19070582.165 9 -14594085.38648  21550235.540    21550235.3234   21550245.3804
 -12834683.049 9  -9979125.35846  22876258.870    22876258.4064   22876268.6094
   8122081.046 9   6323290.47947  22369220.285    22369219.6514   22369228.0034
  -5644276.718 9  -4380447.77846  23108881.641    23108881.0454   23108891.4194
  -1721393.331 9  -1335908.82947  21182129.173    21182128.9574   21182137.0524
  -5263825.031 8  -3978176.83545  24630841.843    24630841.2434   24630852.1294
 99  5 15 16 50 45.0000000  0  8  2  4 24  8  7  5  9 16             0.000000001
   7059215.720 9   5496153.25246  23068828.507    23068827.8434   23068838.9124
 -13411027.977 9 -10434830.05449  20265022.749    20265022.8964   20265030.1684
 -19111457.301 9 -14625936.11948  21542457.243    21542457.0474   21542467.0724
 -12876403.268 9 -10011634.62846  22868319.796    22868319.3224   22868329.5094
   8153149.868 9   6347499.91547  22375132.499    22375131.8684   22375140.2554
  -5685917.418 9  -4412895.03146  23100957.622    23100957.0504   23100967.4864
  -1724575.556 9  -1338388.50847  21181523.630    21181523.4274   21181531.5074
  -5276272.622 8  -3987876.23245  24628473.136    24628472.5144   24628483.4174
 99  5 15 16 51  0.0000000  0  8  2  4 24  8  7  5  9 16             0.000000014
   7093809.678 9   5523109.49546  23075411.561    23075410.8864   23075422.0604
 -13418137.012 9 -10440369.56449  20263669.940    20263670.0834   20263677.3794
 -19152253.275 9 -14657725.16048  21534693.988    21534693.7924   21534703.7794
 -12918044.951 9 -10044082.68246  22860395.640    22860395.1584   22860405.3274
   8184216.361 9   6371707.54547  22381044.300    22381043.6664   22381052.0904
  -5727566.946 9  -4445349.17146  23093031.952    23093031.3774   23093041.8164
  -1727629.369 9  -1340768.12047  21180942.525    21180942.3294   21180950.3974
  -5288632.484 8  -3997507.28345  24626121.143    24626120.4524   24626131.3604
 99  5 15 16 51 15.0000000  0  8  2  4 24  8  7  5  9 16             0.000000030
   7128475.126 9   5550121.45346  23082008.216    23082007.5494   23082018.7854
 -13425105.516 9 -10445799.57549  20262343.854    20262344.0014   20262351.3104
 -19192956.367 9 -14689441.83148  21526948.462    21526948.2644   21526958.2154
 -12959594.264 9 -10076458.76746  22852489.088    22852488.5914   22852498.7874
   8215295.801 9   6395925.25847  22386958.540    22386957.9014   22386966.3644
  -5769209.822 9  -4477798.12746  23085107.536    23085106.9734   23085117.3734
  -1730541.988 9  -1343037.70947  21180388.318    21180388.0824   21180396.1884
  -5300888.422 8  -4007057.34345  24623788.925    24623788.2764   24623799.1064
 99  5 15 16 51 30.0000000  0  8  2  4 24  8  7  5  9 16             0.000000045
   7163203.906 9   5577182.76846  23088616.938    23088616.3134   23088627.5304
 -13431942.255 9 -10451126.90549  20261042.872    20261043.0124   20261050.3384
 -19233569.790 9 -14721088.62248  21519219.996    21519219.7844   21519229.6884
 -13001057.558 9 -10108767.83646  22844598.851    22844598.3644   22844608.5394
   8246380.287 9   6420146.91847  22392873.788    22392873.1564   22392881.6474
  -5810855.564 9  -4510249.31446  23077182.605    23077182.0404   23077192.4144
  -1733320.755 9  -1345202.99547  21179859.543    21179859.3184   21179867.4004
  -5313047.110 9  -4016531.61145  24621475.166    24621474.5494   24621485.4944
 99  5 15 16 51 45.0000000  0  8  2  4 24  8  7  5  9 16             0.000000060
   7197992.850 9   5604290.95446  23095237.112    23095236.4804   23095247.7524
 -13438649.833 9 -10456353.59649  20259766.430    20259766.5754   20259773.9114
 -19274092.067 9 -14752664.39848  21511508.877    21511508.6624   21511518.5254
 -13042433.613 9 -10141008.91246  22836725.260    22836724.7354   22836734.9244
   8277468.522 9   6444371.47847  22398789.726    22398789.0914   22398797.5764
  -5852502.849 9  -4542701.71346  23069257.340    23069256.7564   23069267.1364
  -1735967.191 9  -1347265.17047  21179355.965    21179355.7474   21179363.8084
  -5325106.241 9  -4025928.32545  24619180.400    24619179.7374   24619190.8134
 99  5 15 16 52  0.0000000  0  8  2  4 24  8  7  5  9 16             0.000000071
   7232836.151 9   5631441.50146  23101867.667    23101867.0304   23101878.3064
 -13445229.108 9 -10461480.31049  20258514.446    20258514.6024   20258521.9414
 -19314527.070 9 -14784172.17048  21503814.350    21503814.1394   21503823.9804
 -13083722.133 9 -10173181.78246  22828868.256    22828867.7144   22828877.9854
   8308559.026 9   6468597.82347  22404706.121    22404705.4754   22404713.9464
  -5894153.874 9  -4575157.00946  23061331.395    23061330.8034   23061341.1704
  -1738485.134 9  -1349227.21547  21178876.849    21178876.6194   21178884.6484
  -5337068.446 8  -4035249.50745  24616904.099    24616903.4624   24616914.4874
 99  5 15 16 52 15.0000000  0  8  2  4 24  8  7  5  9 16             0.000000082
   7267743.002 9   5658641.56746  23108510.284    23108509.6814   23108520.9394
 -13451663.647 9 -10466494.24149  20257289.968    20257290.1304   20257297.4674
 -19354865.263 9 -14815604.49648  21496138.219    21496137.9844   21496147.8644
 -13124908.306 9 -10205274.90346  22821030.770    22821030.2104   22821040.5404
   8339665.698 9   6492836.76547  22410625.573    22410624.9374   22410633.3944
  -5935798.810 9  -4607607.58346  23053406.615    23053405.9804   23053416.3524
  -1740864.987 9  -1351081.66147  21178424.017    21178423.8024   21178431.8234
  -5348920.835 8  -4044485.11445  24614648.674    24614648.1044   24614658.9834
 99  5 15 16 52 30.0000000  0  8  2  4 24  8  7  5  9 16             0.000000088
   7302706.803 9   5685886.01346  23115163.751    23115163.1854   23115174.4254
 -13457956.318 9 -10471397.62749  20256092.529    20256092.6694   20256100.0224
 -19395111.316 9 -14846965.02648  21488479.601    21488479.3754   21488489.2944
 -13165994.989 9 -10237290.50046  22813212.248    22813211.6624   22813222.0364
   8370783.612 9   6517084.45947  22416547.121    22416546.4884   22416554.9834
  -5977441.982 9  -4640056.77646  23045482.169    23045481.5654   23045491.8904
  -1743111.647 9  -1352832.31947  21177996.481    21177996.2684   21178004.3224
  -5360666.907 8  -4053637.87945  24612413.463    24612412.8414   24612423.7044
 99  5 15 16 52 45.0000000  0  8  2  4 24  8  7  5  9 16             0.000000093
   7337731.665 9   5713178.02546  23121828.840    23121828.2514   23121839.5264
 -13464102.331 9 -10476186.73649  20254922.991    20254923.1384   20254930.4954
 -19435259.841 9 -14878249.56848  21480839.558    21480839.3344   21480849.2594
 -13206978.661 9 -10269225.82946  22805413.331    22805412.7414   22805423.1174
   8401913.904 9   6541341.79447  22422470.996    22422470.3574   22422478.9164
  -6019077.248 9  -4672499.80446  23037559.210    23037558.5904   23037568.8584
  -1745220.411 9  -1354475.53647  21177595.213    21177595.0164   21177603.0514
  -5372306.188 8  -4062707.43445  24610198.560    24610197.9744   24610208.8434
 99  5 15 16 53  0.0000000  0  8  2  4 24  8  7  5  9 16             0.000000098
   7372820.958 9   5740520.25146  23128506.196    23128505.6284   23128516.9004
 -13470097.399 9 -10480858.21749  20253782.174    20253782.3284   20253789.6854
 -19475309.258 9 -14909456.87448  21473218.421    21473218.2004   21473228.1014
 -13247857.700 9 -10301079.61546  22797634.318    22797633.7174   22797644.1284
   8433054.917 9   6565607.49747  22428396.907    22428396.2744   22428404.8464
  -6060699.078 9  -4704932.34946  23029638.815    23029638.2534   23029648.4824
  -1747185.035 9  -1356006.42947  21177221.404    21177221.1954   21177229.2154
  -5383835.132 8  -4071691.02145  24608004.639    24608004.0734   24608014.9384
 99  5 15 16 53 15.0000000  0  8  2  4 24  8  7  5  9 16             0.000000094
   7407963.693 9   5767904.11046  23135193.716    23135193.1294   23135204.4094
 -13475947.587 9 -10485416.81249  20252668.907    20252669.0694   20252676.4294
 -19515267.932 9 -14940593.48348  21465614.523    21465614.3044   21465624.1944
 -13288640.887 9 -10332858.72946  22789873.545    22789872.9604   22789883.3504
   8464202.857 9   6589878.57647  22434324.176    22434323.5614   22434332.1374
  -6102316.626 9  -4737361.59146  23021719.245    23021718.6664   23021728.9104
  -1749013.641 9  -1357431.33947  21176873.479    21176873.2654   21176881.2534
  -5395260.044 8  -4080593.50545  24605830.510    24605829.9994   24605840.8984
 99  5 15 16 53 30.0000000  0  8  2  4 24  8  7  5  9 16             0.000000086
   7443169.593 9   5795337.19646  23141893.241    23141892.6414   23141903.9314
 -13481640.720 9 -10489853.03049  20251585.572    20251585.7294   20251593.0754
 -19555124.859 9 -14971650.80448  21458030.001    21458029.7654   21458039.6554
 -13329316.702 9 -10364554.16746  22782133.230    22782132.6174   22782142.9934
   8495369.905 9   6614164.55847  22440255.097    22440254.5054   22440263.0534
  -6143919.562 9  -4769779.41946  23013802.428    23013801.8764   23013812.0604
  -1750693.929 9  -1358740.66747  21176553.774    21176553.5574   21176561.5514
  -5406570.640 8  -4089406.95145  24603678.171    24603677.5894   24603688.5984
 99  5 15 16 53 45.0000000  0  8  2  4 24  8  7  5  9 16             0.000000073
   7478440.088 9   5822820.61846  23148605.035    23148604.4144   23148615.6984
 -13487176.488 9 -10494166.61849  20250532.152    20250532.3084   20250539.6454
 -19594884.034 9 -15002631.94748  21450464.024    21450463.7934   21450473.6764
 -13369887.316 9 -10396167.61446  22774412.958    22774412.3134   22774422.6474
   8526550.864 9   6638461.38447  22446188.724    22446188.1274   22446196.6194
  -6185507.974 9  -4802185.93646  23005888.348    23005887.7464   23005897.9974
  -1752226.738 9  -1359935.08547  21176262.129    21176261.8994   21176269.8544
  -5417770.355 9  -4098133.99045  24601546.956    24601546.3544   24601557.3244
 99  5 15 16 54  0.0000000  0  8  2  4 24  8  7  5  9 16             0.000000063
   7513787.896 9   5850364.27246  23155331.555    23155330.9284   23155342.2814
 -13492541.397 9 -10498347.07649  20249511.258    20249511.4054   20249518.7484
 -19634534.793 9 -15033528.61148  21442918.676    21442918.4674   21442928.3224
 -13410341.266 9 -10427690.17146  22766714.847    22766714.2024   22766724.4844
   8557756.844 9   6662777.70447  22452127.091    22452126.4574   22452134.9134
  -6227067.789 9  -4834570.17846  22997979.759    22997979.1904   22997989.4094
  -1753599.678 9  -1361004.92447  21176000.864    21176000.6204   21176008.5924
  -5428849.361 8  -4106766.95045  24599438.634    24599438.0834   24599448.9444
 99  5 15 16 54 15.0000000  0  8  2  4 24  8  7  5  9 16             0.000000052
   7549211.218 9   5877966.77246  23162072.376    23162071.7324   23162083.1394
 -13497737.954 9 -10502396.35149  20248522.383    20248522.5394   20248529.8704
 -19674080.433 9 -15064343.36748  21435393.393    21435393.1764   21435403.0074
 -13450685.086 9 -10459126.89946  22759037.660    22759037.0374   22759047.2664
   8588983.483 9   6687110.12047  22458069.375    22458068.7424   22458077.1804
  -6268604.096 9  -4866936.08846  22990075.614    22990075.0424   22990085.2654
  -1754816.490 9  -1361953.09747  21175769.333    21175769.0904   21175777.0964
  -5439813.720 8  -4115310.58445  24597352.184    24597351.6284   24597362.5004
 99  5 15 16 54 30.0000000  0  8  2  4 24  8  7  5  9 16             0.000000044
   7584714.105 9   5905631.26946  23168828.349    23168827.7054   23168839.1174
 -13502766.543 9 -10506314.73649  20247565.493    20247565.6424   20247572.9764
 -19713518.527 9 -15095074.31448  21427888.549    21427888.3324   21427898.1534
 -13490918.824 9 -10490477.84846  22751381.384    22751380.7974   22751390.9784
   8620232.954 9   6711460.32447  22464015.965    22464015.3364   22464023.7414
  -6310113.615 9  -4899281.14446  22982176.577    22982176.0014   22982186.2184
  -1755874.586 9  -1362777.60447  21175568.010    21175567.7404   21175575.7754
  -5450660.359 8  -4123762.51245  24595288.119    24595287.6164   24595298.6144
 99  5 15 16 54 45.0000000  0  8  2  4 24  8  7  5  9 16             0.000000036
   7620290.185 9   5933352.78946  23175598.307    23175597.6574   23175609.0834
 -13507639.099 9 -10510111.54549  20246638.294    20246638.4544   20246645.7524
 -19752856.170 9 -15125726.99848  21420402.788    21420402.5744   21420412.3534
 -13531052.284 9 -10521750.67446  22743744.192    22743743.6344   22743753.7754
   8651495.169 9   6735820.46147  22469964.960    22469964.3384   22469972.7404
  -6351605.329 9  -4931612.31546  22974280.992    22974280.4274   22974290.6204
  -1756781.488 9  -1363484.29047  21175395.458    21175395.1994   21175403.2144
  -5461396.630 8  -4132128.40845  24593245.050    24593244.4714   24593255.8314
 99  5 15 16 55  0.0000000  0  8  2  4 24  8  7  5  9 16             0.000000029
   7655944.019 9   5961134.90246  23182383.035    23182382.4214   23182393.8804
 -13512351.371 9 -10513783.44749  20245741.606    20245741.7544   20245749.0584
 -19792091.325 9 -15156299.81548  21412936.544    21412936.3334   21412946.0574
 -13571082.325 9 -10552942.90346  22736126.740    22736126.1874   22736136.2584
   8682775.142 9   6760194.44847  22475917.321    22475916.6574   22475925.1274
  -6393076.629 9  -4963927.56946  22966389.226    22966388.6704   22966398.8804
  -1757532.451 9  -1364069.46647  21175252.551    21175252.2684   21175260.3104
  -5472016.655 8  -4140403.76345  24591224.142    24591223.5694   24591234.8254
 99  5 15 16 55 15.0000000  0  8  2  4 24  8  7  5  9 16             0.000000022
   7691676.239 9   5988978.09646  23189182.699    23189182.1034   23189193.5994
 -13516899.549 9 -10517327.49249  20244876.150    20244876.2844   20244883.5674
 -19831221.940 9 -15186791.17648  21405490.199    21405490.0184   21405499.6744
 -13611005.979 9 -10584052.24046  22728529.548    22728528.9474   22728539.0364
   8714079.344 9   6784587.29247  22481874.314    22481873.6434   22481882.1634
  -6434526.926 9  -4996226.47046  22958501.489    22958500.9514   22958511.1494
  -1758127.374 9  -1364533.05947  21175139.303    21175139.0464   21175147.1114
  -5482514.733 8  -4148584.08345  24589226.481    24589226.1134   24589236.9354
 99  5 15 16 55 30.0000000  0  8  2  4 24  8  7  5  9 16             0.000000018
   7727485.908 9   6016881.65746  23195997.146    23195996.5654   23196007.9954
 -13521284.907 9 -10520744.65749  20244041.662    20244041.7924   20244049.0954
 -19870247.079 9 -15217200.34448  21398063.982    21398063.7794   21398073.4094
 -13650821.749 9 -10615077.49646  22720952.822    22720952.2534   22720962.3134
   8745407.776 9   6808999.02047  22487835.873    22487835.2454   22487843.8124
  -6475955.264 9  -5028508.25446  22950617.903    22950617.4084   22950627.5704
  -1758571.313 9  -1364878.99447  21175054.808    21175054.5544   21175062.6224
  -5492892.259 8  -4156670.46745  24587251.698    24587251.3604   24587261.9424
 99  5 15 16 55 45.0000000  0  8  2  4 24  8  7  5  9 16             0.000000014
   7763368.112 9   6044841.73046  23202825.398    23202824.8384   23202836.2544
 -13525513.193 9 -10524039.42749  20243237.041    20243237.1884   20243244.4954
 -19909173.093 9 -15247532.27648  21390656.625    21390656.4164   21390665.9844
 -13690533.834 9 -10646021.98146  22713395.874    22713395.2934   22713405.3524
   8776749.129 9   6833420.82847  22493799.940    22493799.3274   22493807.9434
  -6517367.195 9  -5060777.25246  22942737.443    22942736.9444   22942747.0984
  -1758871.864 9  -1365113.18846  21174997.672    21174997.4044   21175005.4634
  -5503155.737 9  -4164667.98045  24585298.642    24585298.1524   24585308.7374
 99  5 15 16 56  0.0000000  0  8  2  4 24  8  7  5  9 16             0.000000013
   7799327.126 9   6072861.66046  23209668.295    23209667.6914   23209679.1364
 -13529577.713 9 -10527206.58649  20242463.605    20242463.7444   20242471.0724
 -19947989.863 9 -15277779.08448  21383270.078    21383269.8604   21383279.3974
 -13730136.470 9 -10676881.15546  22705859.727    22705859.1814   22705869.2034
   8808112.874 9   6857860.07847  22499768.333    22499767.6954   22499776.3404
  -6558757.279 9  -5093029.23646  22934861.182    22934860.6864   22934870.8274
  -1759023.976 9  -1365231.72946  21174968.747    21174968.4554   21174976.5184
  -5513298.832 8  -4172571.67945  24583368.454    24583368.0084   24583378.5704
 99  5 15 16 56 15.0000000  0  8  2  4 24  8  7  5  9 16             0.000000008
   7835352.975 9   6100933.64646  23216523.831    23216523.2354   23216534.7144
 -13533487.410 9 -10530253.10849  20241719.602    20241719.7394   20241727.0624
 -19986702.874 9 -15307945.04248  21375903.253    21375903.0404   21375912.5424
 -13769639.237 9 -10707662.54046  22698342.578    22698342.0254   22698352.0974
   8839494.891 9   6882313.56547  22505740.193    22505739.5104   22505748.1644
  -6600135.531 9  -5125272.00546  22926987.158    22926986.6384   22926996.7414
  -1759037.173 9  -1365242.02846  21174966.212    21174965.8964   21174974.0104
  -5523331.775 8  -4180389.55345  24581459.194    24581458.6914   24581469.5104
 99  5 15 16 56 30.0000000  0  8  2  4 24  8  7  5  9 16             0.000000008
   7871459.832 9   6129068.77946  23223394.806    23223394.1894   23223405.7444
 -13537230.103 9 -10533169.49949  20241007.411    20241007.5424   20241014.8574
 -20025298.999 9 -15338019.91648  21368558.669    21368558.4454   21368568.0034
 -13809027.362 9 -10738354.57446  22690847.269    22690846.7344   22690856.8204
   8870910.348 9   6906793.10347  22511718.378    22511717.7024   22511726.3444
  -6641490.334 9  -5157496.49646  22919117.589    22919117.0264   22919127.1244
  -1758899.079 9  -1365134.44046  21174992.477    21174992.1584   21175000.3114
  -5533239.341 8  -4188109.73345  24579573.800    24579573.2754   24579584.2814
 99  5 15 16 56 45.0000000  0  8  2  4 24  8  7  5  9 16             0.000000006
   7907630.134 9   6157253.34546  23230277.853    23230277.2234   23230288.8384
 -13540825.545 9 -10535971.14049  20240323.230    20240323.3664   20240330.6884
 -20063792.904 9 -15368015.13448  21361233.496    21361233.2564   21361242.8784
 -13848314.280 9 -10768967.75146  22683371.213    22683370.6994   22683380.7854
   8902342.125 9   6931285.36847  22517699.692    22517699.0014   22517707.6574
  -6682837.747 9  -5189715.23046  22911249.438    22911248.8434   22911258.9644
  -1758625.650 9  -1364921.38546  21175044.514    21175044.2224   21175052.3394
  -5543039.287 8  -4195746.05145  24577708.965    24577708.3474   24577719.5044
 99  5 15 16 57  0.0000000  0  8  2  4 24  8  7  5  9 16             0.000000006
   7943871.179 9   6185493.03046  23237174.396    23237173.6994   23237185.3854
 -13544264.182 9 -10538650.59949  20239668.874    20239668.9994   20239676.3404
 -20102174.395 9 -15397922.75848  21353929.695    21353929.4524   21353939.1394
 -13887490.103 9 -10799494.35246  22675916.301    22675915.8004   22675925.9054
   8933798.622 9   6955796.89247  22523685.719    22523685.0274   22523693.6964
  -6724167.658 9  -5221920.31446  22903384.579    22903384.0074   22903394.1454
  -1758208.167 9  -1364596.08746  21175123.969    21175123.6574   21175131.7854
  -5552725.571 8  -4203293.79545  24575865.690    24575865.0924   24575876.3194
 99  5 15 16 57 15.0000000  0  8  2  4 24  8  7  5  9 16             0.000000003
   7980172.181 9   6213779.42946  23244082.289    23244081.6174   23244093.3154
 -13547556.484 9 -10541216.03049  20239042.360    20239042.4924   20239049.8454
 -20140453.180 9 -15427750.35248  21346645.397    21346645.1854   21346654.9074
 -13926562.438 9 -10829940.32146  22668481.078    22668480.5684   22668490.6874
   8965269.575 9   6980319.68647  22529674.423    22529673.7614   22529682.4214
  -6765487.287 9  -5254117.41146  22895521.675    22895521.0914   22895531.2544
  -1757657.981 9  -1364167.39046  21175228.667    21175228.3844   21175236.5364
  -5562310.751 8  -4210762.76245  24574041.626    24574041.0864   24574052.2074
 99  5 15 16 57 30.0000000  0  8  2  4 24  8  7  5  9 16            -0.000000001
   8016533.643 9   6242112.96346  23251001.688    23251000.9874   23251012.7444
 -13550703.802 9 -10543668.48549  20238443.429    20238443.5674   20238450.9024
 -20178629.442 9 -15457498.05748  21339380.645    21339380.4544   21339390.1704
 -13965529.818 9 -10860304.49246  22661065.842    22661065.3414   22661075.4814
   8996750.876 9   7004850.54047  22535665.127    22535664.4744   22535673.1724
  -6806795.299 9  -5286305.42446  22887660.980    22887660.4034   22887670.5674
  -1756978.802 8  -1363638.17246  21175357.874    21175357.6254   21175365.8014
  -5571796.128 8  -4218153.96045  24572236.631    24572236.1454   24572247.1784
 99  5 15 16 57 45.0000000  0  8  2  4 24  8  7  5  9 16            -0.000000000
   8052963.152 9   6270499.49646  23257933.971    23257933.3284   23257945.1424
 -13553701.697 9 -10546004.50449  20237872.980    20237873.1224   20237880.4474
 -20216698.405 9 -15487162.15548  21332136.349    21332136.1594   21332145.8734
 -14004387.769 9 -10890583.40046  22653671.438    22653670.9214   22653681.1014
   9028244.238 9   7029390.79347  22541658.126    22541657.4654   22541666.1814
  -6848085.920 9  -5318479.89146  22879803.604    22879803.0024   22879813.2154
  -1756162.316 9  -1363001.96246  21175513.243    21175512.9784   21175521.1754
  -5581176.876 8  -4225463.62245  24570451.528    24570451.0614   24570461.9964
 99  5 15 16 58  0.0000000  0  8  2  4 24  8  7  5  9 16            -0.000000000
   8089455.113 9   6298934.70246  23264878.236    23264877.5204   23264889.3564
 -13556556.989 9 -10548229.41249  20237329.654    20237329.7884   20237337.1044
 -20254666.175 9 -15516747.40548  21324911.305    21324911.1214   21324920.7794
 -14043143.743 9 -10920782.86346  22646296.415    22646295.8564   22646306.0704
   9059742.765 9   7053935.07047  22547652.143    22547651.4664   22547660.2424
  -6889367.731 9  -5350647.51946  22871947.930    22871947.3414   22871957.5254
  -1755214.945 8  -1362263.75646  21175693.505    21175693.2734   21175701.4764
  -5590457.503 8  -4232695.25845  24568685.441    24568685.0534   24568695.9454
 99  5 15 16 58 15.0000000  0  8  2  4 24  8  7  5  9 16            -0.000000002
   8126005.788 9   6327415.65946  23271833.682    23271832.9744   23271844.8204
 -13559276.931 9 -10550348.84349  20236812.063    20236812.1764   20236819.5254
 -20292537.389 9 -15546257.40848  21317704.666    21317704.4714   21317714.0804
 -14081803.000 9 -10950906.94546  22638939.792    22638939.2384   22638949.4734
   9091239.876 9   7078478.24647  22553645.836    22553645.1074   22553653.9664
  -6930644.575 9  -5382811.25846  22864093.209    22864092.6184   22864102.7374
  -1754143.022 8  -1361428.50946  21175897.479    21175897.2724   21175905.4814
  -5599641.802 8  -4239851.85145  24566937.661    24566937.2134   24566948.1774
 99  5 15 16 58 30.0000000  0  8  2  4 24  8  7  5  9 16            -0.000000000
   8162618.530 9   6355944.98046  23278800.963    23278800.3114   23278812.1354
 -13561863.305 9 -10552364.20149  20236319.891    20236320.0274   20236327.3634
 -20330316.234 9 -15575695.44048  21310515.624    21310515.4274   21310524.9904
 -14120359.706 9 -10980951.12946  22631602.689    22631602.1284   22631612.3914
   9122730.251 9   7103016.15647  22559638.259    22559637.5484   22559646.4424
  -6971913.416 9  -5414968.76846  22856240.015    22856239.4354   22856249.5094
  -1752943.944 8  -1360494.17446  21176125.728    21176125.4734   21176133.6674
  -5608725.758 8  -4246930.24845  24565208.995    24565208.5704   24565219.6444
 99  5 15 16 58 45.0000000  0  8  2  4 24  8  7  5  9 16             0.000000050
   8199288.342 9   6384518.77546  23285779.123    23285778.4504   23285790.2204
 -13564322.100 9 -10554280.14449  20235852.002    20235852.1314   20235859.4754
 -20368009.010 9 -15605066.40748  21303342.940    21303342.7524   21303352.2364
 -14158813.910 9 -11010915.44246  22624285.067    22624284.5234   22624294.7724
   9154206.683 9   7127543.20947  22565628.050    22565627.3614   22565636.2554
  -7013176.173 9  -5447121.53746  22848387.954    22848387.3614   22848397.3814
  -1751621.366 8  -1359463.60546  21176377.435    21176377.1504   21176385.4104
  -5617710.168 8  -4253931.06745  24563499.325    24563498.9734   24563509.9914
 99  5 15 16 59  0.0000000  0  8  2  4 24  8  7  5  9 16             0.000000036
   8236011.121 9   6413133.84646  23292767.375    23292766.7234   23292778.4224
 -13566653.147 9 -10556096.54349  20235408.452    20235408.5684   20235415.9044
 -20405617.052 9 -15634371.34748  21296186.420    21296186.2174   21296195.6404
 -14197167.382 9 -11040801.25646  22616986.617    22616986.0974   22616996.3584
   9185664.380 9   7152055.67947  22571614.303    22571613.6274   22571622.4694
  -7054432.526 9  -5479269.31146  22840537.134    22840536.5854   22840546.4964
  -1750178.316 8  -1358339.17046  21176651.987    21176651.7194   21176660.0104
  -5626596.306 8  -4260855.33945  24561808.400    24561808.1344   24561818.9764
 99  5 15 16 59 15.0000000  0  8  2  4 24  8  7  5  9 16             0.000000026
   8272798.090 9   6441798.92246  23299767.787    23299767.1264   23299778.8424
 -13568841.816 9 -10557801.99549  20234991.963    20234992.0864   20234999.4234
 -20443130.868 9 -15663602.86048  21289047.772    21289047.5494   21289056.9554
 -14235408.966 9 -11070599.88946  22609709.487    22609708.9844   22609719.2114
   9217115.763 9   7176563.22047  22577599.385    22577598.6944   22577607.5154
  -7095670.893 9  -5511403.07146  22832689.697    22832689.1284   22832699.0694
  -1748606.738 8  -1357114.57946  21176951.063    21176950.7924   21176959.0804
  -5635369.504 8  -4267691.59345  24560138.935    24560138.5814   24560149.3824
 99  5 15 16 59 30.0000000  0  8  2  4 24  8  7  5  9 16             0.000000030
   8309659.435 9   6470521.96446  23306782.300    23306781.6904   23306793.3004
 -13570875.904 9 -10559386.99449  20234604.888    20234605.0144   20234612.3334
 -20480541.755 9 -15692754.16948  21281928.685    21281928.4484   21281937.9004
 -14273526.974 9 -11100302.22146  22602455.900    22602455.4064   22602465.6044
   9248570.946 9   7201073.71647  22583585.124    22583584.4404   22583593.2334
  -7136880.086 9  -5543514.08946  22824847.820    22824847.2274   22824857.2444
  -1746897.099 8  -1355782.41146  21177276.493    21177276.2264   21177284.4014
  -5644013.518 8  -4274427.18645  24558494.066    24558493.5694   24558504.3944
 99  5 15 16 59 45.0000000  0  8  2  4 24  8  7  5  9 16             0.000000037
   8346584.406 9   6499294.57346  23313808.953    23313808.4064   23313819.9794
 -13572764.418 9 -10560858.55749  20234245.525    20234245.6334   20234252.9554
 -20517859.962 9 -15721833.25548  21274827.195    21274826.9844   21274836.4744
 -14311535.087 9 -11129918.92146  22595223.188    22595222.6434   22595232.8754
   9280022.059 9   7225581.04647  22589570.104    22589569.4364   22589578.2134
  -7178073.243 9  -5575612.61946  22817008.989    22817008.4444   22817018.4404
  -1745059.156 8  -1354350.25946  21177626.267    21177626.0444   21177634.1414
  -5652538.022 8  -4281069.65145  24556871.929    24556871.4424   24556882.3104
 99  5 15 17  0  0.0000000  0  8  2  4 24  8  7  5  9 16             0.000000048
   8383573.514 9   6528117.16346  23320847.827    23320847.2634   23320858.8064
 -13574505.723 9 -10562215.42249  20233914.146    20233914.2534   20233921.5664
 -20555081.744 9 -15750837.21848  21267744.046    21267743.8484   21267753.4014
 -14349429.504 9 -11159447.03846  22588012.152    22588011.5864   22588021.8134
   9311475.432 9   7250090.12847  22595555.498    22595554.8134   22595563.5764
  -7219248.641 9  -5607697.31747  22809173.530    22809172.9884   22809182.9804
  -1743088.778 8  -1352814.91346  21178001.175    21178001.0454   21178009.1334
  -5660939.249 8  -4287616.06145  24555273.214    24555272.7094   24555283.7084
 99  5 15 17  0 15.0000000  0  8  2  4 24  8  7  5  9 16             0.000000057
   8420618.685 9   6556983.44646  23327897.348    23327896.7834   23327908.3504
 -13576106.579 9 -10563462.83949  20233609.513    20233609.6244   20233616.9294
 -20592212.986 9 -15779770.62148  21260678.158    21260677.9694   21260687.5544
 -14387214.670 9 -11188890.01846  22580821.861    22580821.2934   22580831.5184
   9342929.310 9   7274599.61047  22601540.996    22601540.3194   22601549.0684
  -7260411.971 9  -5639772.60147  22801340.380    22801339.8124   22801349.8314
  -1740992.099 8  -1351181.15446  21178400.092    21178400.0194   21178408.0754
  -5669223.037 8  -4294070.95645  24553696.833    24553696.2704   24553707.3074
 99  5 15 17  0 30.0000000  0  8  2  4 24  8  7  5  9 16             0.000000068
   8457722.827 9   6585895.66646  23334958.087    23334957.5154   23334969.0214
 -13577561.826 9 -10564596.79249  20233332.570    20233332.6764   20233340.0094
 -20629248.761 9 -15808629.63448  21253630.476    21253630.2784   21253639.8794
 -14424883.635 9 -11218242.44646  22573653.707    22573653.1354   22573663.3504
   9374392.032 9   7299115.98747  22607528.145    22607527.4844   22607536.2074
  -7301556.254 9  -5671833.05247  22793510.875    22793510.2924   22793520.2604
  -1738759.656 8  -1349441.59246  21178824.945    21178824.8754   21178832.8944
  -5677385.535 8  -4300431.35245  24552143.562    24552143.0454   24552154.0124
 99  5 15 17  0 45.0000000  0  8  2  4 24  8  7  5  9 16             0.000000074
   8494881.882 9   6614850.67946  23342029.246    23342028.6604   23342040.2714
 -13578869.756 9 -10565615.95749  20233083.657    20233083.7784   20233091.1284
 -20666189.182 9 -15837414.35248  21246600.932    21246600.7344   21246610.3004
 -14462439.541 9 -11247506.78046  22566507.049    22566506.4634   22566516.7044
   9405866.562 9   7323641.56447  22613517.529    22613516.8584   22613525.6334
  -7342685.645 9  -5703881.89147  22785684.173    22785683.6004   22785693.5524
  -1736390.650 8  -1347595.61746  21179275.840    21179275.7034   21179283.7594
  -5685428.593 8  -4306698.65545  24550612.979    24550612.5454   24550623.3834
 99  5 15 17  1  0.0000000  0  8  2  4 24  8  7  5  9 16             0.000000080
   8532106.603 9   6643856.85046  23349112.908    23349112.3654   23349124.0274
 -13580014.905 9 -10566508.28249  20232865.746    20232865.8594   20232873.2034
 -20703018.321 9 -15866112.35548  21239592.575    21239592.3864   21239601.9024
 -14499874.813 9 -11276677.10946  22559383.320    22559382.7054   22559392.9534
   9437368.796 9   7348188.71747  22619512.174    22619511.5384   22619520.3444
  -7383788.520 9  -5735910.07847  22777862.529    22777861.9854   22777871.9004
  -1733873.858 8  -1345634.50645  21179754.759    21179754.6414   21179762.7064
  -5693341.204 8  -4312864.31045  24549107.262    24549106.7584   24549117.6614
 99  5 15 17  1 15.0000000  0  8  2  4 24  8  7  5  9 16             0.000000077
   8569388.466 9   6672907.56046  23356207.488    23356206.9644   23356218.6794
 -13581002.360 9 -10567277.72249  20232677.808    20232677.9394   20232685.2674
 -20739743.896 9 -15894729.65648  21232603.924    21232603.7144   21232613.2044
 -14537198.102 9 -11305760.17546  22552280.926    22552280.3114   22552290.6114
   9468891.607 9   7372751.91847  22625510.808    22625510.1754   22625518.9844
  -7424874.567 9  -5767925.14047  22770044.068    22770043.5174   22770053.4124
  -1731215.992 8  -1343563.46645  21180260.515    21180260.4414   21180268.4664
  -5701132.202 8  -4318935.22545  24547624.694    24547624.2044   24547635.0394
 99  5 15 17  1 30.0000000  0  8  2  4 24  8  7  5  9 16             0.000000072
   8606739.922 9   6702012.49146  23363315.286    23363314.7944   23363326.5214
 -13581823.228 9 -10567917.35949  20232521.578    20232521.7074   20232529.0334
 -20776355.797 9 -15923258.38448  21225636.937    21225636.7374   21225646.1674
 -14574397.751 9 -11334746.90046  22545202.049    22545201.4524   22545211.7954
   9500446.059 9   7397339.77447  22631515.441    22631514.8084   22631523.6324
  -7465935.453 9  -5799920.59247  22762230.404    22762229.8364   22762239.7834
  -1728401.799 8  -1341370.60545  21180796.058    21180795.9904   21180803.9644
  -5708791.307 8  -4324903.35245  24546167.222    24546166.7334   24546177.5834
 99  5 15 17  1 45.0000000  0  8  2  4 24  8  7  5  9 16             0.000000062
   8644154.295 9   6731166.44046  23370435.075    23370434.6144   23370446.3414
 -13582488.532 9 -10568435.77649  20232394.955    20232395.0844   20232402.4134
 -20812858.843 9 -15951702.28948  21218690.623    21218690.4164   21218699.7894
 -14611482.764 9 -11363644.30746  22538145.022    22538144.4174   22538154.7234
   9532023.155 9   7421945.26447  22637524.419    22637523.7794   22637532.6054
  -7506981.043 9  -5831904.14047  22754419.659    22754419.1134   22754429.0594
  -1725434.348 8  -1339058.33945  21181360.795    21181360.7094   21181368.7444
  -5716328.948 8  -4330776.82145  24544732.777    24544732.3054   24544743.1594
 99  5 15 17  2  0.0000000  0  8  2  4 24  8  7  5  9 16             0.000000053
   8681639.817 9   6760375.84346  23377568.460    23377567.9864   23377579.7324
 -13582992.730 9 -10568828.65449  20232298.984    20232299.1214   20232306.4604
 -20849240.233 9 -15980051.39348  21211767.476    21211767.2794   21211776.6274
 -14648444.543 9 -11392445.67946  22531111.379    22531110.7674   22531121.0794
   9563631.404 9   7446575.04347  22643539.285    22643538.6444   22643547.4664
  -7548004.633 9  -5863870.52847  22746613.086    22746612.5484   22746622.4944
  -1722303.842 7  -1336618.99945  21181956.536    21181956.5064   21181964.5164
  -5723742.030 8  -4336553.24445  24543322.047    24543321.6424   24543332.3844
 99  5 15 17  2 15.0000000  0  8  2  4 24  8  7  5  9 16             0.000000039
   8719189.023 9   6789634.86746  23384713.949    23384713.4394   23384725.2404
 -13583343.284 9 -10569101.81549  20232232.249    20232232.3974   20232239.7224
 -20885505.571 9 -16008310.06748  21204866.385    21204866.1774   21204875.5444
 -14685289.204 9 -11421155.79846  22524100.059    22524099.4904   22524109.7154
   9595261.187 9   7471221.59647  22649558.249    22649557.6074   22649566.4504
  -7589013.162 9  -5895825.19047  22738809.367    22738808.8404   22738818.7744
  -1719015.252 7  -1334056.48845  21182582.304    21182582.2844   21182590.3134
  -5731039.030 8  -4342239.20245  24541933.457    24541932.9634   24541943.7394
 99  5 15 17  2 30.0000000  0  8  2  4 24  8  7  5  9 16             0.000000027
   8756810.052 9   6818949.86146  23391873.094    23391872.5344   23391884.3624
 -13583533.667 9 -10569250.16949  20232196.007    20232196.1424   20232203.4634
 -20921646.468 9 -16036471.77448  21197988.963    21197988.7584   21197998.1654
 -14722015.274 9 -11449773.52346  22517111.309    22517110.7494   22517120.9704
   9626916.309 9   7495887.89447  22655582.079    22655581.4274   22655590.2334
  -7629998.538 9  -5927761.81247  22731010.059    22731009.5404   22731019.4784
  -1715562.244 7  -1331365.86945  21183239.360    21183239.3184   21183247.4524
  -5738214.250 8  -4347830.26845  24540568.080    24540567.6384   24540578.3924
 99  5 15 17  2 45.0000000  0  8  2  4 24  8  7  5  9 16             0.000000009
   8794494.325 9   6848314.12546  23399044.242    23399043.6594   23399055.5994
 -13583573.302 9 -10569281.05249  20232188.464    20232188.5874   20232195.9074
 -20957673.601 9 -16064544.83348  21191133.166    21191132.9844   21191142.4274
 -14758634.201 9 -11478307.73746  22510142.963    22510142.4024   22510152.6134
   9658580.872 9   7520561.54747  22661607.698    22661607.0364   22661615.8704
  -7670972.317 9  -5959689.40547  22723212.991    22723212.4484   22723222.4334
  -1711956.731 7  -1328556.40845  21183925.432    21183925.4644   21183933.6314
  -5745277.146 8  -4353333.81945  24539224.112    24539223.6894   24539234.3714
 99  5 15 17  3  0.0000000  0  8  2  4 24  8  7  5  9 16            -0.000000008
   8832250.257 9   6877734.24146  23406229.018    23406228.4454   23406240.4084
 -13583456.432 9 -10569189.98849  20232210.712    20232210.8524   20232218.1684
 -20993582.350 9 -16092525.64948  21184299.931    21184299.7544   21184309.2184
 -14795140.695 9 -11506754.35246  22503196.039    22503195.4824   22503205.6464
   9690256.175 9   7545243.56947  22667635.336    22667634.6834   22667643.5504
  -7711929.419 9  -5991603.99747  22715419.057    22715418.5334   22715428.5094
  -1708196.591 7  -1325626.44445  21184641.023    21184640.9684   21184649.1114
  -5752221.291 8  -4358744.83745  24537902.733    24537902.3234   24537912.9954
